ftp/pub/palmer/observations_modified/2019/March/original_files/AR190310_BASE.txt

Download

Sample DateTime	Unit Id	WS Avg 2min	WD Avg 2min	WGS 10min	WGD 10min	Air Temp	Rel Humidity	Dew Point	Pyranometer	Quantum	Air Pressure	Snow Level	Rainfall	PW Current	Visibility	CBase 1	CBase 2	CBase 3	Vert Vis
2019/03/10 00:00:00	BASE	0.04	171	1.03	174	1.5	100	1.5	0	0	987.9	NA	0.0000		9999	460	0	0	0
2019/03/10 00:01:00	BASE	0.00	176	1.03	174	1.5	100	1.5	0	0	987.9	NA	0.0000		9999	520	0	0	0
2019/03/10 00:02:00	BASE	0.00	185	1.03	174	1.5	100	1.5	0	0	987.9	NA	0.0000		9999	460	0	0	0
2019/03/10 00:03:00	BASE	0.00	210	1.03	174	1.4	100	1.4	0	0	987.9	NA	0.0000		9999	2200	0	0	0
2019/03/10 00:04:00	BASE	0.00	217	1.03	174	1.4	100	1.4	0	0	987.9	NA	0.0000		9999	620	0	0	0
2019/03/10 00:05:00	BASE	0.61	186	1.95	161	1.4	100	1.4	0	0	987.9	NA	0.0000		9999	560	0	0	0
2019/03/10 00:06:00	BASE	1.00	155	1.95	161	1.5	100	1.5	0	0	987.9	NA	0.0000		9000	490	0	0	0
2019/03/10 00:07:00	BASE	0.39	179	1.95	161	1.5	100	1.5	0	0	987.9	NA	0.0000		9999	1970	0	0	0
2019/03/10 00:08:00	BASE	0.00	254	1.95	161	1.5	100	1.5	0	0	987.9	NA	0.0000		9999	2030	0	0	0
2019/03/10 00:09:00	BASE	0.00	15	1.95	161	1.5	100	1.5	0	0	987.9	NA	0.0000		9999	2100	0	0	0
2019/03/10 00:10:00	BASE	0.00	98	1.95	161	1.5	100	1.5	0	0	987.9	NA	0.0000		9999	560	0	0	0
2019/03/10 00:11:00	BASE	0.00	183	1.95	161	1.5	100	1.5	0	0	987.9	NA	0.0000		9999	430	0	0	0
2019/03/10 00:12:00	BASE	0.53	202	1.95	161	1.5	100	1.5	0	0	987.9	NA	0.0000		9999	430	0	0	0
2019/03/10 00:13:00	BASE	1.28	195	1.95	161	1.4	100	1.4	0	0	987.9	NA	0.0000		9999	2130	0	0	0
2019/03/10 00:14:00	BASE	1.53	186	1.95	161	1.4	100	1.4	0	0	987.9	NA	0.0000		9000	2130	0	0	0
2019/03/10 00:15:00	BASE	1.58	183	1.75	184	1.4	100	1.4	0	0	987.9	NA	0.0000		7000	2100	0	0	0
2019/03/10 00:16:00	BASE	1.68	181	1.95	174	1.4	100	1.4	0	0	987.9	NA	0.0000	BR	7000	2000	0	0	0
2019/03/10 00:17:00	BASE	1.74	173	1.95	174	1.4	100	1.4	0	0	988.0	NA	0.0000	BR	6000	2070	0	0	0
2019/03/10 00:18:00	BASE	0.90	156	1.95	174	1.4	100	1.4	0	0	988.0	NA	0.0000	BR	7000	980	2070	0	0
2019/03/10 00:19:00	BASE	0.05	113	1.95	174	1.4	100	1.4	0	0	988.0	NA	0.0000	BR	8000	720	0	0	0
2019/03/10 00:20:00	BASE	0.05	76	1.95	174	1.4	100	1.4	0	0	988.0	NA	0.0000	BR	9999	1940	0	0	0
2019/03/10 00:21:00	BASE	0.05	67	1.95	174	1.4	100	1.4	0	0	988.0	NA	0.0000	BR	9999	2000	0	0	0
2019/03/10 00:22:00	BASE	0.00	82	1.95	174	1.4	100	1.4	0	0	988.0	NA	0.0000	BR	9999	1940	0	0	0
2019/03/10 00:23:00	BASE	0.14	120	1.95	174	1.5	100	1.5	0	0	988.0	NA	0.0000	BR	9999	1940	0	0	0
2019/03/10 00:24:00	BASE	0.91	157	1.95	174	1.5	100	1.5	0	0	987.9	NA	0.0000	BR	9999	1970	0	0	0
2019/03/10 00:25:00	BASE	1.76	180	2.37	180	1.5	100	1.5	0	0	988.0	NA	0.0000	BR	9999	1840	0	0	0
2019/03/10 00:26:00	BASE	1.77	198	2.37	180	1.5	100	1.5	0	0	988.0	NA	0.0000	BR	9999	1740	0	0	0
2019/03/10 00:27:00	BASE	0.86	230	2.37	180	1.4	100	1.4	0	0	988.0	NA	0.0000		9999	1840	0	0	0
2019/03/10 00:28:00	BASE	0.28	266	2.37	180	1.4	100	1.4	0	0	988.1	NA	0.0000		9999	2200	0	0	0
2019/03/10 00:29:00	BASE	0.24	273	2.37	180	1.4	100	1.4	0	0	988.2	NA	0.0000		9999	1900	0	0	0
2019/03/10 00:30:00	BASE	0.14	261	2.37	180	1.3	100	1.3	0	0	988.2	NA	0.0000		9999	1800	0	0	0
2019/03/10 00:31:00	BASE	0.09	272	2.37	180	1.3	100	1.3	0	0	988.2	NA	0.0000		9999	1900	0	0	0
2019/03/10 00:32:00	BASE	0.62	303	2.37	180	1.3	100	1.3	0	0	988.2	NA	0.0000		9999	1940	0	0	0
2019/03/10 00:33:00	BASE	1.31	327	2.37	180	1.3	100	1.3	0	0	988.2	NA	0.0000		9999	1840	0	0	0
2019/03/10 00:34:00	BASE	1.49	346	2.37	180	1.3	100	1.3	0	0	988.2	NA	0.0000		9999	1840	0	0	0
2019/03/10 00:35:00	BASE	1.76	359	2.01	3	1.4	100	1.4	0	0	988.2	NA	0.0000		9999	1900	0	0	0
2019/03/10 00:36:00	BASE	1.71	356	2.01	3	1.4	100	1.4	0	0	988.2	NA	0.0000		9999	2100	0	0	0
2019/03/10 00:37:00	BASE	1.30	347	2.01	3	1.4	100	1.4	0	0	988.2	NA	0.0000		9999	2070	0	0	0
2019/03/10 00:38:00	BASE	0.55	337	2.01	3	1.4	100	1.4	0	0	988.2	NA	0.0000		9999	2170	0	0	0
2019/03/10 00:39:00	BASE	0.00	328	2.01	3	1.4	100	1.4	0	0	988.2	NA	0.0000		9999	2200	0	0	0
2019/03/10 00:40:00	BASE	0.00	290	2.01	3	1.5	100	1.5	0	0	988.2	NA	0.0000		9999	2260	0	0	0
2019/03/10 00:41:00	BASE	0.35	207	2.01	3	1.5	100	1.5	0	0	988.2	NA	0.0000		9999	2130	0	0	0
2019/03/10 00:42:00	BASE	0.35	165	2.01	3	1.5	100	1.5	0	0	988.2	NA	0.0000		9999	2200	0	0	0
2019/03/10 00:43:00	BASE	0.00	150	2.01	3	1.5	100	1.5	0	0	988.2	NA	0.0000		9999	2100	0	0	0
2019/03/10 00:44:00	BASE	0.19	109	2.01	3	1.4	100	1.4	0	0	988.2	NA	0.0000		9999	2030	0	0	0
2019/03/10 00:45:00	BASE	0.33	60	1.75	353	1.4	100	1.4	0	0	988.2	NA	0.0000		9999	2070	0	0	0
2019/03/10 00:46:00	BASE	0.60	73	1.54	347	1.5	100	1.5	0	0	988.2	NA	0.0000		9999	2070	0	0	0
2019/03/10 00:47:00	BASE	0.46	91	1.39	175	1.5	100	1.5	0	0	988.2	NA	0.0000		9999	1900	0	0	0
2019/03/10 00:48:00	BASE	0.00	98	1.39	175	1.5	100	1.5	0	0	988.2	NA	0.0000		9999	1870	0	0	0
2019/03/10 00:49:00	BASE	0.09	115	1.39	175	1.5	100	1.5	0	0	988.1	NA	0.0000		9999	1840	0	0	0
2019/03/10 00:50:00	BASE	0.09	140	1.39	175	1.5	100	1.5	0	0	988.1	NA	0.0000		9999	1970	0	0	0
2019/03/10 00:51:00	BASE	0.22	173	1.29	87	1.5	100	1.5	0	0	988.1	NA	0.0000		9999	2030	0	0	0
2019/03/10 00:52:00	BASE	0.55	197	1.29	87	1.5	100	1.5	0	0	988.1	NA	0.0000		9999	2000	0	0	0
2019/03/10 00:53:00	BASE	0.88	197	1.44	178	1.4	100	1.4	0	0	988.0	NA	0.0000		9999	1970	0	0	0
2019/03/10 00:54:00	BASE	1.13	177	1.49	152	1.4	100	1.4	0	0	988.0	NA	0.0000		9999	2070	0	0	0
2019/03/10 00:55:00	BASE	1.70	159	2.68	163	1.3	100	1.3	0	0	988.0	NA	0.0000		9999	2100	0	0	0
2019/03/10 00:56:00	BASE	2.41	163	3.04	172	1.3	100	1.3	0	0	987.9	NA	0.0000		9999	2000	0	0	0
2019/03/10 00:57:00	BASE	2.59	168	3.04	172	1.3	100	1.3	0	0	987.9	NA	0.0000		9999	2100	0	0	0
2019/03/10 00:58:00	BASE	2.89	166	3.55	164	1.3	100	1.3	0	0	987.9	NA	0.0000		9999	2100	0	0	0
2019/03/10 00:59:00	BASE	3.16	168	3.55	164	1.3	100	1.3	0	0	987.9	NA	0.0000		9999	2030	0	0	0
2019/03/10 01:00:00	BASE	3.27	167	3.81	169	1.4	100	1.4	0	0	987.9	NA	0.0000		9999	1970	0	0	0
2019/03/10 01:01:00	BASE	3.40	170	3.81	169	1.4	100	1.4	0	0	987.9	NA	0.0000		9999	1940	0	0	0
2019/03/10 01:02:00	BASE	3.28	175	3.81	169	1.4	100	1.4	0	0	987.9	NA	0.0000		9999	2100	0	0	0
2019/03/10 01:03:00	BASE	3.04	169	3.81	169	1.4	100	1.4	0	0	987.9	NA	0.0000		9999	2030	0	0	0
2019/03/10 01:04:00	BASE	3.11	166	3.81	169	1.4	100	1.4	0	0	987.9	NA	0.0000		9999	2100	0	0	0
2019/03/10 01:05:00	BASE	3.20	168	3.81	169	1.4	100	1.4	0	0	987.9	NA	0.0000		9999	2100	0	0	0
2019/03/10 01:06:00	BASE	2.76	164	3.81	169	1.4	100	1.4	0	0	987.9	NA	0.0000		9999	2130	0	0	0
2019/03/10 01:07:00	BASE	2.42	153	3.81	169	1.5	100	1.5	0	0	987.9	NA	0.0000		9999	2130	0	0	0
2019/03/10 01:08:00	BASE	2.37	147	3.81	169	1.5	100	1.5	0	0	987.9	NA	0.0000		9999	2230	0	0	0
2019/03/10 01:09:00	BASE	2.01	143	3.81	169	1.5	100	1.5	0	0	987.9	NA	0.0000		9999	2070	0	0	0
2019/03/10 01:10:00	BASE	1.97	144	3.76	176	1.5	100	1.5	0	0	987.9	NA	0.0000		9999	2070	0	0	0
2019/03/10 01:11:00	BASE	2.63	157	3.45	167	1.5	100	1.5	0	0	987.9	NA	0.0000		9999	2230	0	0	0
2019/03/10 01:12:00	BASE	3.08	164	4.01	168	1.5	100	1.5	0	0	987.9	NA	0.0000		9999	2260	0	0	0
2019/03/10 01:13:00	BASE	2.79	143	4.12	121	1.5	100	1.5	0	0	987.9	NA	0.0000		9999	2330	0	0	0
2019/03/10 01:14:00	BASE	2.87	102	4.12	121	1.5	100	1.5	0	0	987.9	NA	0.0000		9999	2430	0	0	0
2019/03/10 01:15:00	BASE	3.13	76	4.12	121	1.5	100	1.5	0	0	987.9	NA	0.0000		9999	2460	0	0	0
2019/03/10 01:16:00	BASE	2.31	72	4.12	121	1.4	100	1.4	0	0	987.9	NA	0.0000		9999	2490	0	0	0
2019/03/10 01:17:00	BASE	1.53	78	4.12	121	1.4	100	1.4	0	0	987.9	NA	0.0000		9999	2790	0	0	0
2019/03/10 01:18:00	BASE	0.70	111	4.12	121	1.4	100	1.4	0	0	987.9	NA	0.0000		9999	2790	0	0	0
2019/03/10 01:19:00	BASE	0.05	142	4.12	121	1.4	100	1.4	0	0	987.9	NA	0.0000		9999	2760	0	0	0
2019/03/10 01:20:00	BASE	0.81	140	4.12	121	1.4	100	1.4	0	0	987.9	NA	0.0000		9999	2760	0	0	0
2019/03/10 01:21:00	BASE	1.33	148	4.12	121	1.4	100	1.4	0	0	987.9	NA	0.0000		9999	2760	0	0	0
2019/03/10 01:22:00	BASE	1.53	155	4.12	121	1.4	100	1.4	0	0	987.9	NA	0.0000		9999	2690	0	0	0
2019/03/10 01:23:00	BASE	2.34	141	3.65	97	1.4	100	1.4	0	0	987.9	NA	0.0000		9999	2690	0	0	0
2019/03/10 01:24:00	BASE	2.74	131	3.76	134	1.4	100	1.4	0	0	987.9	NA	0.0000		9999	2820	0	0	0
2019/03/10 01:25:00	BASE	2.80	136	3.76	134	1.4	100	1.4	0	0	987.9	NA	0.0000		9999	2820	0	0	0
2019/03/10 01:26:00	BASE	2.45	142	3.76	134	1.4	100	1.4	0	0	987.9	NA	0.0000		9999	2820	0	0	0
2019/03/10 01:27:00	BASE	1.79	134	3.76	134	1.3	100	1.3	0	0	987.9	NA	0.0000		9999	2850	0	0	0
2019/03/10 01:28:00	BASE	1.80	120	3.76	134	1.3	100	1.3	0	0	987.9	NA	0.0000		9999	2920	0	0	0
2019/03/10 01:29:00	BASE	1.92	119	3.76	134	1.3	100	1.3	0	0	987.9	NA	0.0000		9999	2890	0	0	0
2019/03/10 01:30:00	BASE	1.72	134	3.76	134	1.3	100	1.3	0	0	988.0	NA	0.0000		9999	2890	0	0	0
2019/03/10 01:31:00	BASE	2.03	158	3.76	134	1.2	100	1.2	0	0	988.0	NA	0.0000		9999	2720	0	0	0
2019/03/10 01:32:00	BASE	2.65	170	4.42	179	1.2	100	1.2	0	0	988.0	NA	0.0000		9999	2720	0	0	0
2019/03/10 01:33:00	BASE	4.17	161	5.81	149	1.2	100	1.2	0	0	988.0	NA	0.0000		9999	2620	0	0	0
2019/03/10 01:34:00	BASE	5.53	152	6.07	153	1.2	100	1.2	0	0	988.0	NA	0.0000		9999	2330	0	0	0
2019/03/10 01:35:00	BASE	5.12	150	6.07	153	1.1	100	1.1	0	0	988.0	NA	0.0000		9999	2530	0	0	0
2019/03/10 01:36:00	BASE	3.75	149	6.07	153	1.1	100	1.1	0	0	988.0	NA	0.0000		9999	2620	0	0	0
2019/03/10 01:37:00	BASE	2.59	146	6.07	153	1.1	100	1.1	0	0	988.1	NA	0.0000		9999	2590	0	0	0
2019/03/10 01:38:00	BASE	2.54	141	6.07	153	1.0	100	1.0	0	0	988.1	NA	0.0000		9999	2400	0	0	0
2019/03/10 01:39:00	BASE	2.88	142	6.07	153	1.0	100	1.0	0	0	988.2	NA	0.0000		9999	2430	0	0	0
2019/03/10 01:40:00	BASE	3.55	144	6.07	153	1.0	100	1.0	0	0	988.2	NA	0.0000		9999	2300	0	0	0
2019/03/10 01:41:00	BASE	4.14	142	6.07	153	1.0	100	1.0	0	0	988.2	NA	0.0000		9999	2360	0	0	0
2019/03/10 01:42:00	BASE	4.14	138	6.07	153	1.0	100	1.0	0	0	988.2	NA	0.0000		9999	2260	0	0	0
2019/03/10 01:43:00	BASE	4.01	135	6.07	153	1.0	100	1.0	0	0	988.2	NA	0.0000		9999	2300	0	0	0
2019/03/10 01:44:00	BASE	3.83	134	5.61	144	1.0	100	1.0	0	0	988.1	NA	0.0000		9999	2200	0	0	0
2019/03/10 01:45:00	BASE	3.73	133	4.94	141	1.0	100	1.0	0	0	988.1	NA	0.0000		9999	2360	0	0	0
2019/03/10 01:46:00	BASE	3.60	128	4.94	141	1.0	100	1.0	0	0	988.1	NA	0.0000		9999	2200	0	0	0
2019/03/10 01:47:00	BASE	3.32	126	4.94	141	1.0	100	1.0	0	0	988.1	NA	0.0000		9999	2260	0	0	0
2019/03/10 01:48:00	BASE	3.26	128	4.94	141	1.0	100	1.0	0	0	988.0	NA	0.0000		9999	2260	0	0	0
2019/03/10 01:49:00	BASE	3.45	126	4.94	141	1.0	100	1.0	0	0	988.0	NA	0.0000		9999	2260	0	0	0
2019/03/10 01:50:00	BASE	3.74	125	4.78	146	1.0	100	1.0	0	0	988.0	NA	0.0000		9999	2260	0	0	0
2019/03/10 01:51:00	BASE	3.92	127	4.37	136	1.0	100	1.0	0	0	988.0	NA	0.0000		9999	2300	0	0	0
2019/03/10 01:52:00	BASE	3.85	129	4.37	136	1.0	100	1.0	0	0	988.0	NA	0.0000		9999	2330	0	0	0
2019/03/10 01:53:00	BASE	3.87	131	4.32	128	1.0	100	1.0	0	0	988.0	NA	0.0000		9999	2300	0	0	0
2019/03/10 01:54:00	BASE	4.02	132	4.32	128	1.0	100	1.0	0	0	988.0	NA	0.0000		9999	2300	0	0	0
2019/03/10 01:55:00	BASE	3.91	129	4.32	128	1.0	100	1.0	0	0	988.0	NA	0.0000		9999	2300	0	0	0
2019/03/10 01:56:00	BASE	3.63	130	4.32	128	1.1	100	1.1	0	0	988.0	NA	0.0000		9999	2300	0	0	0
2019/03/10 01:57:00	BASE	3.24	133	4.32	128	1.1	100	1.1	0	0	987.9	NA	0.0000		9999	2260	2920	0	0
2019/03/10 01:58:00	BASE	2.86	132	4.32	128	1.1	100	1.1	0	0	987.9	NA	0.0000		9999	2330	0	0	0
2019/03/10 01:59:00	BASE	2.77	129	4.32	128	1.1	100	1.1	0	0	988.0	NA	0.0000		9999	2300	0	0	0
2019/03/10 02:00:00	BASE	2.72	134	4.22	130	1.1	100	1.1	0	0	988.0	NA	0.0000		9999	2300	0	0	0
2019/03/10 02:01:00	BASE	2.58	146	4.22	130	1.1	100	1.1	0	0	987.9	NA	0.0000		9999	2400	2950	0	0
2019/03/10 02:02:00	BASE	2.37	151	4.22	130	1.2	100	1.2	0	0	987.9	NA	0.0000		9999	2460	2850	0	0
2019/03/10 02:03:00	BASE	2.29	160	4.22	130	1.2	100	1.2	0	0	987.9	NA	0.0000		9999	2330	0	0	0
2019/03/10 02:04:00	BASE	2.79	175	3.91	130	1.2	100	1.2	0	0	987.9	NA	0.0000		9999	2330	0	0	0
2019/03/10 02:05:00	BASE	3.28	178	3.70	136	1.2	100	1.2	0	0	987.9	NA	0.0000		9999	2360	0	0	0
2019/03/10 02:06:00	BASE	3.51	174	4.12	178	1.2	100	1.2	0	0	987.8	NA	0.0000		9999	2330	0	0	0
2019/03/10 02:07:00	BASE	3.99	179	4.48	186	1.2	100	1.2	0	0	987.8	NA	0.0000		9999	2260	0	0	0
2019/03/10 02:08:00	BASE	4.12	183	4.48	186	1.2	100	1.2	0	0	987.8	NA	0.0000		9999	2430	0	0	0
2019/03/10 02:09:00	BASE	3.54	175	4.48	186	1.2	100	1.2	0	0	987.9	NA	0.0000		9999	2460	0	0	0
2019/03/10 02:10:00	BASE	2.74	170	4.48	186	1.2	100	1.2	0	0	987.9	NA	0.0000		9999	2460	0	0	0
2019/03/10 02:11:00	BASE	1.49	171	4.48	186	1.1	100	1.1	0	0	987.9	NA	0.0000		9999	2460	0	0	0
2019/03/10 02:12:00	BASE	0.31	184	4.48	186	1.1	100	1.1	0	0	987.9	NA	0.0000		9999	2400	0	0	0
2019/03/10 02:13:00	BASE	0.00	237	4.48	186	1.1	100	1.1	0	0	987.9	NA	0.0000		9999	2460	0	0	0
2019/03/10 02:14:00	BASE	0.00	277	4.48	186	1.1	100	1.1	0	0	987.9	NA	0.0000		9999	2400	0	0	0
2019/03/10 02:15:00	BASE	0.00	279	4.48	186	1.2	100	1.2	0	0	987.9	NA	0.0000		9999	2560	0	0	0
2019/03/10 02:16:00	BASE	0.00	236	4.48	186	1.2	100	1.2	0	0	987.9	NA	0.0000		9999	2400	0	0	0
2019/03/10 02:17:00	BASE	0.09	188	4.37	183	1.2	100	1.2	0	0	987.9	NA	0.0000		9999	2460	0	0	0
2019/03/10 02:18:00	BASE	0.79	162	3.55	171	1.2	100	1.2	0	0	987.8	NA	0.0000		9999	2400	3150	0	0
2019/03/10 02:19:00	BASE	1.40	155	2.78	173	1.2	100	1.2	0	0	987.8	NA	0.0000		9999	2400	3120	0	0
2019/03/10 02:20:00	BASE	1.51	143	2.06	117	1.1	100	1.1	0	0	987.8	NA	0.0000		9999	3080	0	0	0
2019/03/10 02:21:00	BASE	2.04	122	2.62	110	1.1	100	1.1	0	0	987.8	NA	0.0000		9999	3020	0	0	0
2019/03/10 02:22:00	BASE	2.42	114	2.62	107	1.1	100	1.1	0	0	987.7	NA	0.0000		9999	2920	0	0	0
2019/03/10 02:23:00	BASE	2.62	125	3.19	142	1.1	100	1.1	0	0	987.7	NA	0.0000		9999	2990	0	0	0
2019/03/10 02:24:00	BASE	3.26	141	4.01	147	1.1	100	1.1	0	0	987.6	NA	0.0000		9999	3020	0	0	0
2019/03/10 02:25:00	BASE	3.83	149	4.48	155	1.1	100	1.1	0	0	987.6	NA	0.0000		9999	2590	3150	0	0
2019/03/10 02:26:00	BASE	4.12	158	4.58	166	1.1	100	1.1	0	0	987.5	NA	0.0000		9999	2530	3080	0	0
2019/03/10 02:27:00	BASE	4.38	166	4.78	169	1.1	100	1.1	0	0	987.5	NA	0.0000		9999	2460	0	0	0
2019/03/10 02:28:00	BASE	4.51	172	4.89	177	1.2	100	1.2	0	0	987.5	NA	0.0000		9999	2590	0	0	0
2019/03/10 02:29:00	BASE	3.49	161	4.89	177	1.2	100	1.2	0	0	987.6	NA	0.0000		9999	2530	0	0	0
2019/03/10 02:30:00	BASE	2.45	100	4.89	343	1.2	100	1.2	0	0	987.7	NA	0.0000		9999	2490	4330	0	0
2019/03/10 02:31:00	BASE	2.78	359	4.89	343	1.2	100	1.2	0	0	987.6	NA	0.0000		9999	4040	0	0	0
2019/03/10 02:32:00	BASE	3.12	325	4.89	343	1.0	100	1.0	0	0	987.6	NA	0.0000		9999	3770	0	0	0
2019/03/10 02:33:00	BASE	2.55	296	4.89	343	0.9	100	0.9	0	0	987.6	NA	0.0000		9999	2950	3480	0	0
2019/03/10 02:34:00	BASE	1.00	292	4.89	343	0.8	100	0.8	0	0	987.6	NA	0.0000		9999	2490	0	0	0
2019/03/10 02:35:00	BASE	0.00	8	4.89	343	0.7	100	0.7	0	0	987.6	NA	0.0000		9999	2660	3410	0	0
2019/03/10 02:36:00	BASE	0.00	72	4.89	343	0.7	100	0.7	0	0	987.6	NA	0.0000		9999	2790	0	0	0
2019/03/10 02:37:00	BASE	0.50	159	4.89	343	0.8	100	0.8	0	0	987.5	NA	0.0000		9999	3310	0	0	0
2019/03/10 02:38:00	BASE	1.69	207	4.89	343	0.8	100	0.8	0	0	987.4	NA	0.0000		9999	2300	0	0	0
2019/03/10 02:39:00	BASE	2.11	195	4.89	343	0.9	100	0.9	0	0	987.4	NA	0.0000		9999	2490	3080	0	0
2019/03/10 02:40:00	BASE	2.24	188	4.06	341	0.9	100	0.9	0	0	987.4	NA	0.0000		9999	2400	3250	0	0
2019/03/10 02:41:00	BASE	2.56	197	3.45	321	1.0	100	1.0	0	0	987.4	NA	0.0000		9999	2560	3220	0	0
2019/03/10 02:42:00	BASE	2.04	218	2.88	299	1.0	100	1.0	0	0	987.4	NA	0.0000		9999	2530	0	0	0
2019/03/10 02:43:00	BASE	1.16	252	2.83	197	1.0	100	1.0	0	0	987.5	NA	0.0000		9999	2490	0	0	0
2019/03/10 02:44:00	BASE	1.57	285	2.93	304	1.1	100	1.1	0	0	987.6	NA	0.0000		9999	2460	0	0	0
2019/03/10 02:45:00	BASE	2.59	301	3.14	299	1.1	100	1.1	0	0	987.6	NA	0.0000		9999	2560	0	0	0
2019/03/10 02:46:00	BASE	2.41	314	3.14	299	1.0	100	1.0	0	0	987.6	NA	0.0000		9000	2530	0	0	0
2019/03/10 02:47:00	BASE	1.46	317	3.14	299	1.0	100	1.0	0	0	987.6	NA	0.0000		9000	2560	0	0	0
2019/03/10 02:48:00	BASE	0.41	283	3.14	299	1.0	100	1.0	0	0	987.6	NA	0.0000		9000	2530	0	0	0
2019/03/10 02:49:00	BASE	0.95	231	3.19	193	1.0	100	1.0	0	0	987.5	NA	0.0000		9000	2590	3150	0	0
2019/03/10 02:50:00	BASE	2.65	199	3.76	192	1.0	100	1.0	0	0	987.4	NA	0.0000		9999	2430	3020	0	0
2019/03/10 02:51:00	BASE	3.45	184	3.81	177	1.0	100	1.0	0	0	987.4	NA	0.0000		9999	2920	0	0	0
2019/03/10 02:52:00	BASE	3.00	170	3.81	177	1.0	100	1.0	0	0	987.4	NA	0.0000	BR	9999	3020	0	0	0
2019/03/10 02:53:00	BASE	2.31	170	3.81	177	1.0	100	1.0	0	0	987.5	NA	0.0000	BR	9999	2820	0	0	0
2019/03/10 02:54:00	BASE	1.86	185	3.81	177	1.0	100	1.0	0	0	987.5	NA	0.0000	BR	9999	2720	0	0	0
2019/03/10 02:55:00	BASE	0.94	206	3.81	177	1.0	100	1.0	0	0	987.6	NA	0.0000	BR	9999	2460	0	0	0
2019/03/10 02:56:00	BASE	0.13	242	3.81	177	1.0	100	1.0	0	0	987.6	NA	0.0000	BR	9999	2460	0	0	0
2019/03/10 02:57:00	BASE	0.18	302	3.81	177	1.0	100	1.0	0	0	987.6	NA	0.0000		9999	2590	0	0	0
2019/03/10 02:58:00	BASE	0.18	335	3.81	177	1.0	100	1.0	0	0	987.6	NA	0.0000		9999	2620	0	0	0
2019/03/10 02:59:00	BASE	0.00	340	3.81	177	1.0	100	1.0	0	0	987.6	NA	0.0000		9999	2660	0	0	0
2019/03/10 03:00:00	BASE	0.00	346	3.81	177	1.0	100	1.0	0	0	987.6	NA	0.0000		9999	2560	0	0	0
2019/03/10 03:01:00	BASE	0.00	355	2.88	168	1.0	100	1.0	0	0	987.6	NA	0.0000		9999	2560	0	0	0
2019/03/10 03:02:00	BASE	0.00	1	2.31	164	1.0	100	1.0	0	0	987.6	NA	0.0000		9999	2590	0	0	0
2019/03/10 03:03:00	BASE	0.00	4	1.90	189	1.0	100	1.0	0	0	987.6	NA	0.0000		9999	2490	0	0	0
2019/03/10 03:04:00	BASE	0.39	17	1.34	37	1.0	100	1.0	0	0	987.6	NA	0.0000		9999	2360	0	0	0
2019/03/10 03:05:00	BASE	1.04	36	1.54	49	1.0	100	1.0	0	0	987.6	NA	0.0000		9999	2200	0	0	0
2019/03/10 03:06:00	BASE	1.42	56	2.06	72	1.0	100	1.0	0	0	987.6	NA	0.0000		9999	2430	0	0	0
2019/03/10 03:07:00	BASE	1.47	85	2.06	72	1.0	100	1.0	0	0	987.5	NA	0.0000		9999	2300	0	0	0
2019/03/10 03:08:00	BASE	1.29	109	2.06	72	0.9	100	0.9	0	0	987.4	NA	0.0000		9999	2300	0	0	0
2019/03/10 03:09:00	BASE	1.32	115	2.06	72	0.9	100	0.9	0	0	987.4	NA	0.0000		9999	2300	0	0	0
2019/03/10 03:10:00	BASE	1.31	120	2.06	72	0.8	100	0.8	0	0	987.4	NA	0.0000		9999	2300	0	0	0
2019/03/10 03:11:00	BASE	0.85	123	2.06	96	0.8	100	0.8	0	0	987.4	NA	0.0000		9999	2300	0	0	0
2019/03/10 03:12:00	BASE	1.23	106	2.62	99	0.8	100	0.8	0	0	987.4	NA	0.0000		9999	2460	0	0	0
2019/03/10 03:13:00	BASE	1.40	121	2.62	99	0.9	100	0.9	0	0	987.4	NA	0.0000		9999	2360	0	0	0
2019/03/10 03:14:00	BASE	1.53	141	2.62	99	1.0	100	1.0	0	0	987.3	NA	0.0000		9999	2200	0	0	0
2019/03/10 03:15:00	BASE	2.19	130	2.62	99	1.0	100	1.0	0	0	987.3	NA	0.0000		9999	2330	0	0	0
2019/03/10 03:16:00	BASE	2.26	147	2.62	99	1.1	100	1.1	0	0	987.3	NA	0.0000		9999	2200	0	0	0
2019/03/10 03:17:00	BASE	2.30	170	2.62	99	1.1	100	1.1	0	0	987.3	NA	0.0000		9999	2130	0	0	0
2019/03/10 03:18:00	BASE	1.91	165	2.62	99	1.2	100	1.2	0	0	987.3	NA	0.0000		9999	2230	0	0	0
2019/03/10 03:19:00	BASE	1.03	163	2.62	99	1.2	100	1.2	0	0	987.3	NA	0.0000		9999	3050	0	0	0
2019/03/10 03:20:00	BASE	0.42	194	2.62	99	1.2	100	1.2	0	0	987.3	NA	0.0000		9999	2200	2660	0	0
2019/03/10 03:21:00	BASE	0.50	226	2.62	99	1.2	100	1.2	0	0	987.3	NA	0.0000		9999	2260	2990	0	0
2019/03/10 03:22:00	BASE	1.06	227	2.47	157	1.2	100	1.2	0	0	987.3	NA	0.0000		9999	2200	0	0	0
2019/03/10 03:23:00	BASE	1.71	212	2.47	201	1.2	100	1.2	0	0	987.3	NA	0.0000		9999	2990	0	0	0
2019/03/10 03:24:00	BASE	2.28	206	2.88	210	1.2	100	1.2	0	0	987.3	NA	0.0000		9999	2200	0	0	0
2019/03/10 03:25:00	BASE	2.69	214	2.88	223	1.2	100	1.2	0	0	987.3	NA	0.0000		9999	2170	2820	0	0
2019/03/10 03:26:00	BASE	2.71	222	3.04	233	1.2	100	1.2	0	0	987.2	NA	0.0000		9999	2920	0	0	0
2019/03/10 03:27:00	BASE	2.99	232	3.50	246	1.2	100	1.2	0	0	987.2	NA	0.0000		9999	3220	0	0	0
2019/03/10 03:28:00	BASE	3.01	237	3.50	246	1.2	100	1.2	0	0	987.3	NA	0.0000		9999	2170	0	0	0
2019/03/10 03:29:00	BASE	2.60	239	3.50	246	1.2	100	1.2	0	0	987.3	NA	0.0000		9999	2170	3220	0	0
2019/03/10 03:30:00	BASE	2.37	241	3.50	246	1.3	100	1.3	0	0	987.3	NA	0.0000		9999	2130	3250	0	0
2019/03/10 03:31:00	BASE	2.28	237	3.50	246	1.3	100	1.3	0	0	987.2	NA	0.0000		9999	3250	0	0	0
2019/03/10 03:32:00	BASE	2.64	232	3.50	246	1.3	100	1.3	0	0	987.2	NA	0.0000		9999	2230	3280	0	0
2019/03/10 03:33:00	BASE	2.86	229	3.50	246	1.4	100	1.4	0	0	987.2	NA	0.0000		9999	2170	3310	0	0
2019/03/10 03:34:00	BASE	2.60	230	3.50	246	1.4	100	1.4	0	0	987.3	NA	0.0000		9999	3350	0	0	0
2019/03/10 03:35:00	BASE	2.46	231	3.50	246	1.4	100	1.4	0	0	987.3	NA	0.0000		9999	3380	0	0	0
2019/03/10 03:36:00	BASE	2.31	234	3.50	246	1.5	100	1.5	0	0	987.3	NA	0.0000		9999	2200	0	0	0
2019/03/10 03:37:00	BASE	2.04	232	3.34	237	1.5	100	1.5	0	0	987.2	NA	0.0000		9999	2170	3410	0	0
2019/03/10 03:38:00	BASE	2.08	226	3.24	228	1.5	100	1.5	0	0	987.2	NA	0.0000		9999	2170	3410	0	0
2019/03/10 03:39:00	BASE	2.26	219	3.24	228	1.5	100	1.5	0	0	987.2	NA	0.0000		9999	2260	3510	0	0
2019/03/10 03:40:00	BASE	2.35	218	3.24	228	1.5	100	1.5	0	0	987.2	NA	0.0000		9999	3480	0	0	0
2019/03/10 03:41:00	BASE	2.10	235	3.24	228	1.5	100	1.5	0	0	987.2	NA	0.0000		9999	2170	3640	0	0
2019/03/10 03:42:00	BASE	1.35	252	3.09	228	1.5	100	1.5	0	0	987.3	NA	0.0000		9999	2170	0	0	0
2019/03/10 03:43:00	BASE	0.43	238	2.68	233	1.5	100	1.5	0	0	987.3	NA	0.0000		9999	2030	0	0	0
2019/03/10 03:44:00	BASE	0.95	191	2.98	175	1.5	100	1.5	0	0	987.2	NA	0.0000		9999	3510	0	0	0
2019/03/10 03:45:00	BASE	2.58	182	3.55	210	1.5	100	1.5	0	0	987.2	NA	0.0000		9999	3510	0	0	0
2019/03/10 03:46:00	BASE	2.51	183	3.55	210	1.5	100	1.5	0	0	987.2	NA	0.0000		9999	3540	0	0	0
2019/03/10 03:47:00	BASE	1.77	176	3.55	210	1.5	100	1.5	0	0	987.2	NA	0.0000		9999	3540	0	0	0
2019/03/10 03:48:00	BASE	1.83	200	3.55	210	1.5	100	1.5	0	0	987.2	NA	0.0000		9999	3510	0	0	0
2019/03/10 03:49:00	BASE	2.11	227	3.55	210	1.5	100	1.5	0	0	987.2	NA	0.0000		9999	3410	0	0	0
2019/03/10 03:50:00	BASE	2.64	235	3.60	240	1.5	100	1.5	0	0	987.2	NA	0.0000		9999	3310	0	0	0
2019/03/10 03:51:00	BASE	3.73	243	5.25	255	1.5	100	1.5	0	0	987.2	NA	0.0000		9999	3280	0	0	0
2019/03/10 03:52:00	BASE	4.36	249	5.25	255	1.5	100	1.5	0	0	987.2	NA	0.0000		9999	3250	0	0	0
2019/03/10 03:53:00	BASE	4.33	237	5.35	229	1.5	100	1.5	0	0	987.1	NA	0.0000		9999	3220	0	0	0
2019/03/10 03:54:00	BASE	4.79	227	5.61	227	1.6	100	1.6	0	0	987.1	NA	0.0000		9999	3180	0	0	0
2019/03/10 03:55:00	BASE	4.59	220	5.61	227	1.6	100	1.6	0	0	987.1	NA	0.0000		9999	3180	0	0	0
2019/03/10 03:56:00	BASE	3.29	209	5.61	227	1.6	100	1.6	0	0	987.1	NA	0.0000		9999	3150	0	0	0
2019/03/10 03:57:00	BASE	1.39	191	5.61	227	1.5	100	1.5	0	0	987.1	NA	0.0000		9999	3150	0	0	0
2019/03/10 03:58:00	BASE	1.08	201	5.61	227	1.5	100	1.5	0	0	987.0	NA	0.0000		9999	2030	3120	0	0
2019/03/10 03:59:00	BASE	3.21	290	6.33	261	1.6	100	1.6	0	0	987.0	NA	0.0000		9999	2070	3120	0	0
2019/03/10 04:00:00	BASE	4.38	276	6.43	264	1.7	100	1.7	0	0	987.1	NA	0.0000		9999	2000	0	0	0
2019/03/10 04:01:00	BASE	5.12	268	6.94	275	1.7	100	1.7	0	0	987.0	NA	0.0000		9999	1970	0	0	0
2019/03/10 04:02:00	BASE	5.78	268	6.94	275	1.8	100	1.8	0	0	987.0	NA	0.0000		9999	2100	2990	0	0
2019/03/10 04:03:00	BASE	5.20	281	6.94	275	1.8	100	1.8	0	0	987.0	NA	0.0000		9999	2030	0	0	0
2019/03/10 04:04:00	BASE	4.76	297	6.94	275	1.8	100	1.8	0	0	987.0	NA	0.0000		9999	2030	0	0	0
2019/03/10 04:05:00	BASE	5.32	310	6.94	275	1.9	100	1.9	0	0	987.0	NA	0.0000		9999	2070	0	0	0
2019/03/10 04:06:00	BASE	6.09	325	6.94	275	1.9	100	1.9	0	0	987.0	NA	0.0000		9999	1970	0	0	0
2019/03/10 04:07:00	BASE	6.15	330	7.31	326	1.9	100	1.9	0	0	987.0	NA	0.0000		9999	1940	0	0	0
2019/03/10 04:08:00	BASE	5.28	336	7.31	326	1.8	100	1.8	0	0	987.0	NA	0.0000		9999	1970	0	0	0
2019/03/10 04:09:00	BASE	4.90	341	7.31	326	1.7	100	1.7	0	0	987.0	NA	0.0000		9999	1940	0	0	0
2019/03/10 04:10:00	BASE	5.21	335	7.31	326	1.5	100	1.5	0	0	987.0	NA	0.0000		9999	1970	2890	0	0
2019/03/10 04:11:00	BASE	4.43	328	7.31	326	1.5	100	1.5	0	0	987.0	NA	0.0000		9999	2070	2820	0	0
2019/03/10 04:12:00	BASE	3.73	327	7.31	326	1.5	100	1.5	0	0	987.0	NA	0.0000		9999	2030	2890	0	0
2019/03/10 04:13:00	BASE	3.17	327	7.31	326	1.7	100	1.7	0	0	986.9	NA	0.0000		9999	2990	0	0	0
2019/03/10 04:14:00	BASE	3.22	319	7.31	326	1.9	100	1.9	0	0	986.8	NA	0.0000		9999	1970	2950	0	0
2019/03/10 04:15:00	BASE	4.01	306	7.31	326	2.1	100	2.1	0	0	986.8	NA	0.0000		9999	1970	3020	0	0
2019/03/10 04:16:00	BASE	4.66	304	7.31	326	2.3	100	2.3	0	0	986.8	NA	0.0000		9999	1940	3020	0	0
2019/03/10 04:17:00	BASE	4.79	309	6.69	312	2.4	100	2.4	0	0	986.8	NA	0.0000		9999	1970	2920	0	0
2019/03/10 04:18:00	BASE	4.74	322	6.69	312	2.5	100	2.5	0	0	986.8	NA	0.0000		9999	2000	3020	0	0
2019/03/10 04:19:00	BASE	3.99	357	6.69	312	2.5	100	2.5	0	0	986.8	NA	0.0000		9999	2030	3080	0	0
2019/03/10 04:20:00	BASE	2.98	13	6.69	312	2.5	100	2.4	0	0	986.8	NA	0.0000		9999	3150	0	0	0
2019/03/10 04:21:00	BASE	2.53	2	6.69	312	2.4	100	2.4	0	0	986.8	NA	0.0000		9999	3220	0	0	0
2019/03/10 04:22:00	BASE	1.90	3	6.69	312	2.2	100	2.2	0	0	986.7	NA	0.0000		9999	3280	0	0	0
2019/03/10 04:23:00	BASE	2.55	354	6.69	312	2.1	100	2.0	0	0	986.7	NA	0.0000		9999	3350	0	0	0
2019/03/10 04:24:00	BASE	4.57	342	8.90	332	2.0	100	2.0	0	0	986.7	NA	0.0000		9999	3380	0	0	0
2019/03/10 04:25:00	BASE	7.25	344	10.08	335	2.0	100	2.0	0	0	986.7	NA	0.0000		9999	3380	0	0	0
2019/03/10 04:26:00	BASE	7.92	344	10.08	335	2.1	100	2.1	0	0	986.7	NA	0.0000		9999	3410	0	0	0
2019/03/10 04:27:00	BASE	7.24	341	10.08	335	2.1	100	2.1	0	0	986.7	NA	0.0000		9999	3410	0	0	0
2019/03/10 04:28:00	BASE	6.61	350	10.08	335	2.2	100	2.2	0	0	986.7	NA	0.0000		9999	3380	0	0	0
2019/03/10 04:29:00	BASE	5.56	7	10.08	335	2.3	100	2.3	0	0	986.7	NA	0.0000		9999	3380	0	0	0
2019/03/10 04:30:00	BASE	5.16	16	10.08	335	2.3	100	2.3	0	0	986.6	NA	0.0000		9999	3510	0	0	0
2019/03/10 04:31:00	BASE	4.44	10	10.08	335	2.3	100	2.3	0	0	986.6	NA	0.0000		9999	3480	0	0	0
2019/03/10 04:32:00	BASE	5.24	8	10.08	335	2.3	100	2.3	0	0	986.6	NA	0.0000		9999	3510	0	0	0
2019/03/10 04:33:00	BASE	6.11	18	10.08	335	2.3	100	2.3	0	0	986.6	NA	0.0000		9999	3540	0	0	0
2019/03/10 04:34:00	BASE	5.63	14	10.08	335	2.4	100	2.4	0	0	986.5	NA	0.0000		9999	3540	0	0	0
2019/03/10 04:35:00	BASE	6.12	7	9.21	11	2.5	100	2.5	0	0	986.5	NA	0.0000		9999	3380	0	0	0
2019/03/10 04:36:00	BASE	5.57	358	9.21	11	2.6	100	2.6	0	0	986.5	NA	0.0000		9999	3350	0	0	0
2019/03/10 04:37:00	BASE	3.96	22	9.21	11	2.7	99	2.6	0	0	986.6	NA	0.0000		9999	3310	0	0	0
2019/03/10 04:38:00	BASE	3.14	74	9.21	11	2.7	99	2.5	0	0	986.6	NA	0.0000		9999	3310	0	0	0
2019/03/10 04:39:00	BASE	3.60	115	9.21	11	2.7	98	2.4	0	0	986.6	NA	0.0000		9999	3280	0	0	0
2019/03/10 04:40:00	BASE	4.15	132	9.21	11	2.6	98	2.3	0	0	986.6	NA	0.0000		9999	3310	0	0	0
2019/03/10 04:41:00	BASE	3.51	126	9.21	11	2.5	98	2.3	0	0	986.6	NA	0.0000		9999	3310	0	0	0
2019/03/10 04:42:00	BASE	2.64	127	9.21	11	2.4	99	2.2	0	0	986.6	NA	0.0000		9999	3280	0	0	0
2019/03/10 04:43:00	BASE	1.77	124	9.21	11	2.4	99	2.3	0	0	986.6	NA	0.0000		9999	3280	0	0	0
2019/03/10 04:44:00	BASE	1.47	83	9.21	11	2.4	100	2.4	0	0	986.6	NA	0.0000		9999	3310	0	0	0
2019/03/10 04:45:00	BASE	3.15	50	5.30	349	2.5	99	2.4	0	0	986.6	NA	0.0000		9999	3280	0	0	0
2019/03/10 04:46:00	BASE	4.47	53	5.20	44	2.5	99	2.3	0	0	986.6	NA	0.0000		9999	3310	0	0	0
2019/03/10 04:47:00	BASE	3.68	58	5.20	44	2.4	99	2.2	0	0	986.6	NA	0.0000		9999	3280	0	0	0
2019/03/10 04:48:00	BASE	2.69	63	5.20	44	2.3	99	2.1	0	0	986.5	NA	0.0000		9999	3250	0	0	0
2019/03/10 04:49:00	BASE	1.71	73	5.20	44	2.2	99	2.0	0	0	986.5	NA	0.0000		9999	3220	0	0	0
2019/03/10 04:50:00	BASE	2.11	52	5.97	49	2.2	100	2.1	0	0	986.5	NA	0.0000		9999	3250	0	0	0
2019/03/10 04:51:00	BASE	3.84	45	6.33	57	2.3	100	2.2	0	0	986.5	NA	0.0000		9999	3220	0	0	0
2019/03/10 04:52:00	BASE	3.95	54	6.33	57	2.3	100	2.2	0	0	986.5	NA	0.0000		9999	3250	0	0	0
2019/03/10 04:53:00	BASE	2.87	65	6.33	57	2.2	100	2.2	0	0	986.5	NA	0.0000		9999	3220	0	0	0
2019/03/10 04:54:00	BASE	2.75	86	6.33	57	2.0	100	2.0	0	0	986.5	NA	0.0000		9999	3150	0	0	0
2019/03/10 04:55:00	BASE	2.68	110	6.33	57	1.8	100	1.8	0	0	986.5	NA	0.0000		9999	3120	0	0	0
2019/03/10 04:56:00	BASE	2.10	86	6.33	57	1.7	100	1.7	0	0	986.5	NA	0.0000		9999	3080	0	0	0
2019/03/10 04:57:00	BASE	1.78	18	6.33	57	1.6	100	1.6	0	0	986.4	NA	0.0000		9999	3080	0	0	0
2019/03/10 04:58:00	BASE	1.71	39	6.33	57	1.6	100	1.6	0	0	986.4	NA	0.0000		9999	3080	0	0	0
2019/03/10 04:59:00	BASE	2.48	59	6.33	57	1.7	100	1.7	0	0	986.5	NA	0.0000		9999	3080	0	0	0
2019/03/10 05:00:00	BASE	2.51	71	6.33	57	1.6	100	1.6	0	0	986.5	NA	0.0000		9999	3080	0	0	0
2019/03/10 05:01:00	BASE	1.98	94	3.76	76	1.7	100	1.7	0	0	986.4	NA	0.0000		9999	3120	0	0	0
2019/03/10 05:02:00	BASE	2.14	115	3.76	76	1.7	100	1.7	0	0	986.4	NA	0.0000		9999	3120	0	0	0
2019/03/10 05:03:00	BASE	2.65	121	3.76	76	1.8	100	1.8	0	0	986.4	NA	0.0000		9999	3080	0	0	0
2019/03/10 05:04:00	BASE	2.58	128	3.76	76	1.8	100	1.8	0	0	986.4	NA	0.0000		9999	3080	0	0	0
2019/03/10 05:05:00	BASE	2.10	100	3.76	76	1.9	100	1.9	0	0	986.4	NA	0.0000		9999	3080	0	0	0
2019/03/10 05:06:00	BASE	2.31	59	3.76	76	1.9	100	1.9	0	0	986.3	NA	0.0000		9999	3050	0	0	0
2019/03/10 05:07:00	BASE	3.78	39	6.74	35	2.0	100	2.0	0	0	986.3	NA	0.0000		9999	3050	0	0	0
2019/03/10 05:08:00	BASE	4.73	35	6.74	35	2.1	100	2.1	0	0	986.3	NA	0.0000		9999	3080	0	0	0
2019/03/10 05:09:00	BASE	6.48	42	10.19	42	2.3	100	2.3	0	0	986.3	NA	0.0000		9999	3150	0	0	0
2019/03/10 05:10:00	BASE	8.28	38	11.47	53	2.4	100	2.4	0	0	986.3	NA	0.0000		9999	3150	0	0	0
2019/03/10 05:11:00	BASE	7.82	43	11.47	53	2.5	100	2.5	0	0	986.3	NA	0.0000		9999	3180	0	0	0
2019/03/10 05:12:00	BASE	7.80	42	11.47	53	2.5	100	2.5	0	0	986.2	NA	0.0000		9999	3220	0	0	0
2019/03/10 05:13:00	BASE	6.98	38	11.47	53	2.6	99	2.5	0	0	986.2	NA	0.0000		9999	3250	0	0	0
2019/03/10 05:14:00	BASE	4.51	49	11.47	53	2.7	99	2.5	0	0	986.2	NA	0.0000		9999	3180	0	0	0
2019/03/10 05:15:00	BASE	3.48	50	11.47	53	2.7	98	2.4	0	0	986.3	NA	0.0000		9999	3120	3510	0	0
2019/03/10 05:16:00	BASE	4.87	40	11.47	53	2.7	97	2.3	0	0	986.2	NA	0.0000		9999	3150	0	0	0
2019/03/10 05:17:00	BASE	5.80	46	11.47	53	2.7	97	2.3	0	0	986.2	NA	0.0000		9999	3150	0	0	0
2019/03/10 05:18:00	BASE	5.00	71	11.47	53	2.8	97	2.3	0	0	986.2	NA	0.0000		9999	3050	0	0	0
2019/03/10 05:19:00	BASE	4.23	68	11.47	53	2.8	96	2.3	0	0	986.2	NA	0.0000		9999	3080	0	0	0
2019/03/10 05:20:00	BASE	5.97	34	10.34	19	2.9	95	2.2	0	0	986.1	NA	0.0000		9999	3050	0	0	0
2019/03/10 05:21:00	BASE	9.29	28	14.71	42	3.0	95	2.2	0	0	986.0	NA	0.0000		9999	3020	0	0	0
2019/03/10 05:22:00	BASE	8.89	34	14.71	42	3.0	94	2.1	0	0	986.0	NA	0.0000		9999	3020	0	0	0
2019/03/10 05:23:00	BASE	7.11	29	14.71	42	3.0	93	2.0	0	0	986.0	NA	0.0000		9999	2990	0	0	0
2019/03/10 05:24:00	BASE	7.50	14	14.71	42	3.0	92	1.9	0	0	986.0	NA	0.0000		9999	3020	0	0	0
2019/03/10 05:25:00	BASE	6.32	1	14.71	42	3.0	92	1.8	0	0	986.0	NA	0.0000		9999	3020	0	0	0
2019/03/10 05:26:00	BASE	5.69	4	14.71	42	3.0	91	1.8	0	0	986.0	NA	0.0000		9999	3020	0	0	0
2019/03/10 05:27:00	BASE	6.31	32	14.71	42	3.0	91	1.7	0	0	986.0	NA	0.0000		9999	2360	2990	0	0
2019/03/10 05:28:00	BASE	5.81	59	14.71	42	3.0	91	1.7	0	0	986.0	NA	0.0000		9999	3020	0	0	0
2019/03/10 05:29:00	BASE	4.21	103	14.71	42	3.1	91	1.7	0	0	986.0	NA	0.0000		9999	2990	0	0	0
2019/03/10 05:30:00	BASE	2.24	182	14.71	42	3.1	91	1.7	0	0	985.9	NA	0.0000		9999	2260	2990	0	0
2019/03/10 05:31:00	BASE	2.78	271	10.91	360	3.1	91	1.7	0	0	985.9	NA	0.0000		9999	2330	2950	0	0
2019/03/10 05:32:00	BASE	3.64	278	10.91	360	3.1	90	1.7	0	0	985.9	NA	0.0000		9999	2890	0	0	0
2019/03/10 05:33:00	BASE	1.79	288	10.91	360	3.1	90	1.7	0	0	986.0	NA	0.0000		9999	2230	2990	0	0
2019/03/10 05:34:00	BASE	0.69	51	8.03	29	3.1	90	1.6	0	0	986.0	NA	0.0000		9999	2200	0	0	0
2019/03/10 05:35:00	BASE	1.36	113	8.03	29	3.1	90	1.6	0	0	986.0	NA	0.0000		9999	2360	0	0	0
2019/03/10 05:36:00	BASE	1.36	154	7.82	59	3.1	90	1.6	0	0	986.0	NA	0.0000		9999	2230	0	0	0
2019/03/10 05:37:00	BASE	0.46	145	7.41	49	3.0	90	1.6	0	0	986.0	NA	0.0000		9999	2170	0	0	0
2019/03/10 05:38:00	BASE	0.79	137	5.71	279	3.0	90	1.6	0	0	986.0	NA	0.0000		9999	2230	0	0	0
2019/03/10 05:39:00	BASE	1.26	187	5.71	279	3.0	91	1.6	0	0	986.0	NA	0.0000		9999	2070	0	0	0
2019/03/10 05:40:00	BASE	0.52	299	5.71	279	2.9	91	1.7	0	0	986.0	NA	0.0000		9999	2030	0	0	0
2019/03/10 05:41:00	BASE	2.07	10	6.02	70	2.9	92	1.7	0	0	986.0	NA	0.0000		9999	2230	0	0	0
2019/03/10 05:42:00	BASE	5.20	89	10.80	136	2.8	92	1.7	0	0	985.9	NA	0.0000		9999	2920	0	0	0
2019/03/10 05:43:00	BASE	8.21	142	11.99	149	2.8	93	1.7	0	0	985.6	NA	0.0000		9999	3080	0	0	0
2019/03/10 05:44:00	BASE	8.77	167	11.99	149	2.9	92	1.7	0	0	985.5	NA	0.0000		9999	2000	0	0	0
2019/03/10 05:45:00	BASE	8.77	167	11.99	149	2.9	91	1.6	0	0	985.6	NA	0.0000		9999	2130	0	0	0
2019/03/10 05:46:00	BASE	9.49	157	11.99	149	3.0	90	1.6	0	0	985.6	NA	0.0000		9999	2890	0	0	0
2019/03/10 05:47:00	BASE	7.55	150	11.99	149	3.1	89	1.5	0	0	985.7	NA	0.0000		9999	2200	3180	0	0
2019/03/10 05:48:00	BASE	5.25	133	11.99	149	3.1	89	1.4	0	0	985.7	NA	0.0000		9999	2130	0	0	0
2019/03/10 05:49:00	BASE	4.31	96	11.99	149	3.0	89	1.3	0	0	985.8	NA	0.0000		9999	2260	0	0	0
2019/03/10 05:50:00	BASE	3.46	86	11.99	149	2.9	90	1.4	0	0	985.7	NA	0.0000		9999	2230	0	0	0
2019/03/10 05:51:00	BASE	2.86	132	11.99	149	2.8	91	1.4	0	0	985.7	NA	0.0000		9999	3220	0	0	0
2019/03/10 05:52:00	BASE	3.77	138	11.99	149	2.8	92	1.6	0	0	985.7	NA	0.0000		9999	2300	3480	0	0
2019/03/10 05:53:00	BASE	5.39	107	11.68	163	2.7	93	1.6	0	0	985.8	NA	0.0000		9999	3450	0	0	0
2019/03/10 05:54:00	BASE	7.41	84	11.68	163	2.7	93	1.7	0	0	985.7	NA	0.0000		9999	3480	0	0	0
2019/03/10 05:55:00	BASE	8.68	80	10.44	152	2.7	94	1.7	0	0	985.7	NA	0.0000		9999	3350	0	0	0
2019/03/10 05:56:00	BASE	7.25	78	10.19	82	2.6	94	1.8	0	0	985.7	NA	0.0000		9999	2300	3120	0	0
2019/03/10 05:57:00	BASE	4.28	106	10.19	82	2.6	94	1.8	0	0	985.7	NA	0.0000		9999	2300	3080	0	0
2019/03/10 05:58:00	BASE	1.82	131	10.19	82	2.7	94	1.8	0	0	985.7	NA	0.0000		9999	2400	0	0	0
2019/03/10 05:59:00	BASE	3.39	118	10.19	82	2.7	94	1.9	0	0	985.7	NA	0.0000		9999	2170	0	0	0
2019/03/10 06:00:00	BASE	5.99	116	10.19	82	2.8	93	1.8	0	0	985.7	NA	0.0000		9999	2330	0	0	0
2019/03/10 06:01:00	BASE	4.79	118	10.19	82	2.7	93	1.7	0	0	985.7	NA	0.0000		9999	2030	0	0	0
2019/03/10 06:02:00	BASE	3.88	111	10.19	82	2.7	93	1.6	0	0	985.7	NA	0.0000		9999	2230	0	0	0
2019/03/10 06:03:00	BASE	3.57	110	10.19	82	2.5	93	1.5	0	0	985.7	NA	0.0000		9999	2460	0	0	0
2019/03/10 06:04:00	BASE	2.81	104	10.19	82	2.4	94	1.6	0	0	985.7	NA	0.0000		9999	2400	2990	0	0
2019/03/10 06:05:00	BASE	1.97	95	7.51	118	2.3	95	1.7	0	0	985.8	NA	0.0000		9999	2260	0	0	0
2019/03/10 06:06:00	BASE	1.32	126	7.51	118	2.3	96	1.7	0	0	985.8	NA	0.0000		9999	2460	0	0	0
2019/03/10 06:07:00	BASE	2.42	193	7.51	118	2.3	97	1.8	0	0	985.7	NA	0.0000		9999	2230	0	0	0
2019/03/10 06:08:00	BASE	4.91	205	7.72	198	2.3	97	1.9	0	0	985.7	NA	0.0000		9999	2130	0	0	0
2019/03/10 06:09:00	BASE	6.56	201	7.72	198	2.3	98	1.9	0	0	985.7	NA	0.0000		9999	2170	0	0	0
2019/03/10 06:10:00	BASE	6.27	204	7.72	198	2.3	98	1.9	0	0	985.7	NA	0.0000		9999	2300	0	0	0
2019/03/10 06:11:00	BASE	6.52	205	8.85	204	2.2	98	2.0	0	0	985.8	NA	0.0000		9999	2330	0	0	0
2019/03/10 06:12:00	BASE	6.69	207	8.85	204	2.2	99	2.0	0	0	985.8	NA	0.0000		9999	2360	0	0	0
2019/03/10 06:13:00	BASE	6.31	219	8.85	204	2.2	99	2.1	0	0	985.7	NA	0.0000		9999	2330	0	0	0
2019/03/10 06:14:00	BASE	6.13	223	8.85	204	2.1	99	2.1	0	0	985.7	NA	0.0000		9999	2300	0	0	0
2019/03/10 06:15:00	BASE	5.02	186	8.85	204	2.1	100	2.1	0	0	985.7	NA	0.0000		9999	2170	0	0	0
2019/03/10 06:16:00	BASE	3.65	138	8.85	204	2.1	100	2.1	0	0	985.7	NA	0.0000		9999	2260	0	0	0
2019/03/10 06:17:00	BASE	2.50	136	8.85	204	2.1	100	2.1	0	0	985.8	NA	0.0000		9999	2260	0	0	0
2019/03/10 06:18:00	BASE	2.33	179	8.85	204	2.1	100	2.1	0	0	985.8	NA	0.0000		9999	2330	0	0	0
2019/03/10 06:19:00	BASE	2.97	210	8.85	204	2.1	100	2.1	0	0	985.7	NA	0.0000		9999	2100	0	0	0
2019/03/10 06:20:00	BASE	2.57	210	8.85	204	2.2	100	2.2	0	0	985.7	NA	0.0000		9999	2230	0	0	0
2019/03/10 06:21:00	BASE	1.96	189	7.41	222	2.3	100	2.3	0	0	985.7	NA	0.0000		9999	2200	0	0	0
2019/03/10 06:22:00	BASE	2.81	172	7.41	222	2.3	100	2.3	0	0	985.7	NA	0.0000		9999	2200	0	0	0
2019/03/10 06:23:00	BASE	3.91	183	6.53	230	2.4	99	2.3	0	0	985.7	NA	0.0000		9999	2070	0	0	0
2019/03/10 06:24:00	BASE	3.72	198	5.45	173	2.4	99	2.3	0	0	985.7	NA	0.0000		9999	2170	0	0	0
2019/03/10 06:25:00	BASE	2.03	199	4.99	216	2.5	98	2.3	0	0	985.6	NA	0.0000		9999	2070	0	0	0
2019/03/10 06:26:00	BASE	2.10	183	5.30	162	2.6	97	2.2	0	0	985.6	NA	0.0000		9999	1940	0	0	0
2019/03/10 06:27:00	BASE	4.52	176	7.05	181	2.6	96	2.1	0	0	985.6	NA	0.0000		9999	2000	0	0	0
2019/03/10 06:28:00	BASE	4.89	164	7.05	181	2.6	96	2.0	0	0	985.7	NA	0.0000		9999	1940	0	0	0
2019/03/10 06:29:00	BASE	4.52	142	7.05	181	2.5	96	1.9	0	0	985.7	NA	0.0000		9999	1900	0	0	0
2019/03/10 06:30:00	BASE	4.75	137	7.05	181	2.4	97	1.9	0	0	985.7	NA	0.0000		9999	2100	0	0	0
2019/03/10 06:31:00	BASE	4.49	134	7.05	181	2.2	98	1.9	0	0	985.7	NA	0.0000		9999	2130	0	0	0
2019/03/10 06:32:00	BASE	4.41	142	7.05	181	2.1	99	1.9	0	0	985.7	NA	0.0000		9999	2230	0	0	0
2019/03/10 06:33:00	BASE	5.39	161	8.28	188	2.0	100	2.0	0	0	985.7	NA	0.0000		9999	2200	0	0	0
2019/03/10 06:34:00	BASE	7.46	179	9.83	177	2.0	100	2.0	0	0	985.6	NA	0.0000		9999	2200	0	0	0
2019/03/10 06:35:00	BASE	8.31	197	9.83	177	2.0	100	2.0	0	0	985.7	NA	0.0000		9999	2230	0	0	0
2019/03/10 06:36:00	BASE	6.64	225	9.83	177	2.0	100	2.0	0	0	985.7	NA	0.0000		9999	2130	0	0	0
2019/03/10 06:37:00	BASE	5.14	236	9.83	177	2.0	100	2.0	0	0	985.7	NA	0.0000		9999	1970	0	0	0
2019/03/10 06:38:00	BASE	6.09	229	9.83	177	2.0	100	2.0	0	0	985.7	NA	0.0000		9999	2130	0	0	0
2019/03/10 06:39:00	BASE	7.92	220	9.83	177	2.0	100	2.0	0	0	985.7	NA	0.0000		9999	2200	0	0	0
2019/03/10 06:40:00	BASE	8.66	217	9.83	177	2.0	100	2.0	0	0	985.7	NA	0.0000		9999	2130	0	0	0
2019/03/10 06:41:00	BASE	9.17	220	10.60	226	2.0	100	2.0	0	0	985.6	NA	0.0000		9999	2100	0	0	0
2019/03/10 06:42:00	BASE	8.87	229	10.60	226	1.9	100	1.9	0	0	985.7	NA	0.0000		9999	2100	0	0	0
2019/03/10 06:43:00	BASE	7.91	234	10.60	226	1.9	100	1.9	0	0	985.6	NA	0.0000		9999	2170	0	0	0
2019/03/10 06:44:00	BASE	7.86	234	10.60	226	1.9	100	1.9	0	0	985.7	NA	0.0000		9999	2070	0	0	0
2019/03/10 06:45:00	BASE	7.65	233	10.60	226	1.8	100	1.8	0	0	985.7	NA	0.0000		9999	2100	0	0	0
2019/03/10 06:46:00	BASE	6.09	245	10.60	226	1.8	100	1.8	0	0	985.7	NA	0.0000		9999	2170	0	0	0
2019/03/10 06:47:00	BASE	5.22	250	10.60	226	1.7	100	1.7	0	0	985.7	NA	0.0000		9999	2260	0	0	0
2019/03/10 06:48:00	BASE	6.20	241	10.60	226	1.7	100	1.7	0	0	985.7	NA	0.0000		9999	1970	0	0	0
2019/03/10 06:49:00	BASE	5.71	258	10.60	226	1.7	100	1.7	0	0	985.6	NA	0.0000		9999	2070	0	0	0
2019/03/10 06:50:00	BASE	3.60	289	10.60	226	1.7	100	1.7	0	0	985.6	NA	0.0000		9999	2000	0	0	0
2019/03/10 06:51:00	BASE	3.04	299	10.08	219	1.8	100	1.8	0	0	985.6	NA	0.0000		9999	2000	0	0	0
2019/03/10 06:52:00	BASE	4.02	298	10.08	219	2.0	100	2.0	0	0	985.6	NA	0.0000		9999	2030	0	0	0
2019/03/10 06:53:00	BASE	4.80	303	10.08	219	2.1	100	2.1	0	0	985.6	NA	0.0000		9999	1970	0	0	0
2019/03/10 06:54:00	BASE	4.89	299	9.00	237	2.2	99	2.1	0	0	985.6	NA	0.0000		9999	2030	0	0	0
2019/03/10 06:55:00	BASE	4.68	280	8.95	236	2.3	99	2.2	0	0	985.6	NA	0.0000		9999	2070	0	0	0
2019/03/10 06:56:00	BASE	4.14	269	8.95	236	2.4	98	2.1	0	0	985.6	NA	0.0000		9999	2000	0	0	0
2019/03/10 06:57:00	BASE	3.54	271	8.95	236	2.5	97	2.0	0	0	985.6	NA	0.0000		9999	1840	0	0	0
2019/03/10 06:58:00	BASE	3.68	280	7.82	246	2.5	96	1.9	0	0	985.6	NA	0.0000		9999	2000	0	0	0
2019/03/10 06:59:00	BASE	4.11	286	7.10	309	2.6	95	1.8	0	0	985.6	NA	0.0000		9999	2100	0	0	0
2019/03/10 07:00:00	BASE	5.00	283	7.10	309	2.6	94	1.8	0	0	985.6	NA	0.0000		9999	2230	0	0	0
2019/03/10 07:01:00	BASE	5.93	278	7.41	286	2.6	94	1.7	0	0	985.6	NA	0.0000		9999	2330	0	0	0
2019/03/10 07:02:00	BASE	6.24	283	9.11	311	2.6	94	1.7	0	0	985.6	NA	0.0000		9999	2170	0	0	0
2019/03/10 07:03:00	BASE	7.33	299	9.77	308	2.5	94	1.7	0	0	985.6	NA	0.0000		9999	2130	0	0	0
2019/03/10 07:04:00	BASE	8.21	304	9.77	308	2.5	94	1.7	0	0	985.6	NA	0.0000		9999	2100	0	0	0
2019/03/10 07:05:00	BASE	6.93	302	9.77	308	2.5	94	1.6	0	0	985.7	NA	0.0000		9999	1970	0	0	0
2019/03/10 07:06:00	BASE	5.34	301	9.77	308	2.5	94	1.6	0	0	985.7	NA	0.0000		9999	2000	0	0	0
2019/03/10 07:07:00	BASE	4.55	299	9.77	308	2.5	94	1.6	0	0	985.7	NA	0.0000		9999	1970	0	0	0
2019/03/10 07:08:00	BASE	4.20	294	9.77	308	2.5	94	1.6	0	0	985.7	NA	0.0000		9999	2170	0	0	0
2019/03/10 07:09:00	BASE	4.00	282	9.77	308	2.4	94	1.5	0	0	985.7	NA	0.0000		9999	2200	0	0	0
2019/03/10 07:10:00	BASE	4.12	275	9.77	308	2.4	94	1.5	0	0	985.6	NA	0.0000		9999	2200	0	0	0
2019/03/10 07:11:00	BASE	3.73	243	9.77	308	2.3	94	1.5	0	0	985.6	NA	0.0000		9999	2230	0	0	0
2019/03/10 07:12:00	BASE	2.99	248	9.77	308	2.3	95	1.5	0	0	985.6	NA	0.0000		9999	2200	0	0	0
2019/03/10 07:13:00	BASE	3.39	298	9.16	297	2.3	95	1.6	0	0	985.6	NA	0.0000		9999	2230	0	0	0
2019/03/10 07:14:00	BASE	4.12	324	7.31	316	2.2	96	1.7	0	0	985.6	NA	0.0000		9999	2230	0	0	0
2019/03/10 07:15:00	BASE	5.78	338	8.90	319	2.2	96	1.7	0	0	985.6	NA	0.0000		9999	2260	2850	0	0
2019/03/10 07:16:00	BASE	6.66	337	8.90	319	2.2	97	1.7	0	0	985.6	NA	0.0000		9999	2130	2890	0	0
2019/03/10 07:17:00	BASE	4.85	334	8.90	319	2.2	97	1.8	0	0	985.6	NA	0.0000		9999	2300	2850	0	0
2019/03/10 07:18:00	BASE	3.13	332	8.90	319	2.3	96	1.8	0	0	985.6	NA	0.0000		9999	2070	0	0	0
2019/03/10 07:19:00	BASE	3.61	315	8.90	319	2.5	95	1.7	0	0	985.6	NA	0.0000		9999	1970	2790	0	0
2019/03/10 07:20:00	BASE	4.23	313	8.90	319	2.6	94	1.7	0	0	985.6	NA	0.0000		9999	1970	0	0	0
2019/03/10 07:21:00	BASE	3.36	13	8.90	319	2.6	92	1.5	0	0	985.7	NA	0.0000		9999	2070	0	0	0
2019/03/10 07:22:00	BASE	2.78	63	8.90	319	2.5	92	1.4	0	0	985.7	NA	0.0000		9999	1870	2990	0	0
2019/03/10 07:23:00	BASE	2.50	22	8.90	319	2.4	93	1.3	0	0	985.6	NA	0.0000		9999	1970	2920	0	0
2019/03/10 07:24:00	BASE	1.92	356	8.90	319	2.3	94	1.4	0	0	985.6	NA	0.0000		9999	2850	0	0	0
2019/03/10 07:25:00	BASE	0.82	321	7.36	338	2.2	95	1.5	0	0	985.5	NA	0.0000		9999	1800	2820	0	0
2019/03/10 07:26:00	BASE	0.89	289	5.61	349	2.2	96	1.6	0	0	985.5	NA	0.0000		9999	1770	0	0	0
2019/03/10 07:27:00	BASE	3.56	322	7.36	2	2.1	97	1.7	0	0	985.6	NA	0.0000		9999	1870	2950	0	0
2019/03/10 07:28:00	BASE	5.81	351	8.18	341	2.1	97	1.7	0	0	985.5	NA	0.0000		9999	2790	0	0	0
2019/03/10 07:29:00	BASE	5.63	347	8.18	341	2.1	97	1.7	0	0	985.4	NA	0.0000		9999	1870	2790	0	0
2019/03/10 07:30:00	BASE	4.10	2	8.18	341	2.1	96	1.6	0	0	985.4	NA	0.0000		9999	1740	0	0	0
2019/03/10 07:31:00	BASE	2.54	78	8.18	341	2.2	96	1.6	0	0	985.4	NA	0.0000		9999	1800	2990	0	0
2019/03/10 07:32:00	BASE	1.29	100	8.18	341	2.2	96	1.6	0	0	985.4	NA	0.0000		9999	2030	2820	0	0
2019/03/10 07:33:00	BASE	1.17	151	8.18	341	2.2	96	1.6	0	0	985.4	NA	0.0000		9999	2790	0	0	0
2019/03/10 07:34:00	BASE	2.03	125	8.18	341	2.2	95	1.6	0	0	985.4	NA	0.0000		9999	1940	0	0	0
2019/03/10 07:35:00	BASE	4.41	75	8.18	341	2.3	95	1.5	0	0	985.4	NA	0.0000		9999	1840	0	0	0
2019/03/10 07:36:00	BASE	4.78	70	8.18	341	2.3	94	1.4	0	0	985.4	NA	0.0000		9999	2820	0	0	0
2019/03/10 07:37:00	BASE	2.96	54	8.18	341	2.3	93	1.3	0	0	985.4	NA	0.0000		9999	2790	0	0	0
2019/03/10 07:38:00	BASE	3.01	360	7.72	100	2.3	93	1.3	0	0	985.3	NA	0.0000		9999	2820	0	0	0
2019/03/10 07:39:00	BASE	3.41	327	7.72	100	2.3	92	1.2	0	0	985.4	NA	0.0000		9999	2030	2920	0	0
2019/03/10 07:40:00	BASE	2.90	358	7.72	100	2.3	93	1.2	0	0	985.3	NA	0.0000		9999	1870	0	0	0
2019/03/10 07:41:00	BASE	2.30	79	7.72	100	2.3	93	1.3	0	0	985.4	NA	0.0000		9999	1970	0	0	0
2019/03/10 07:42:00	BASE	1.86	99	7.72	100	2.3	93	1.3	0	0	985.4	NA	0.0000		9999	2100	2950	0	0
2019/03/10 07:43:00	BASE	1.50	64	7.72	100	2.4	92	1.2	0	0	985.4	NA	0.0000		9999	2000	0	0	0
2019/03/10 07:44:00	BASE	4.35	343	8.33	326	2.4	92	1.2	0	0	985.4	NA	0.0000		9999	2100	0	0	0
2019/03/10 07:45:00	BASE	7.69	323	9.41	322	2.4	91	1.1	0	0	985.4	NA	0.0000		9999	2070	0	0	0
2019/03/10 07:46:00	BASE	9.19	328	12.19	353	2.3	91	1.0	0	0	985.3	NA	0.0000		9999	2030	2950	0	0
2019/03/10 07:47:00	BASE	9.07	339	12.19	353	2.2	92	1.0	0	0	985.4	NA	0.0000		9999	3220	0	0	0
2019/03/10 07:48:00	BASE	5.67	357	12.19	353	2.2	93	1.1	0	0	985.4	NA	0.0000		9999	3810	0	0	0
2019/03/10 07:49:00	BASE	3.14	6	12.19	353	2.1	94	1.2	0	0	985.4	NA	0.0000		9999	1940	3940	0	0
2019/03/10 07:50:00	BASE	3.46	353	12.19	353	2.1	94	1.2	0	0	985.4	NA	0.0000		9999	3050	3900	0	0
2019/03/10 07:51:00	BASE	5.07	348	12.19	353	2.1	94	1.3	0	0	985.3	NA	0.0000		9999	1970	4000	0	0
2019/03/10 07:52:00	BASE	6.63	352	12.19	353	2.1	95	1.3	0	0	985.3	NA	0.0000		9999	1900	0	0	0
2019/03/10 07:53:00	BASE	7.52	355	12.19	353	2.1	95	1.3	0	0	985.3	NA	0.0000		9999	3080	4040	0	0
2019/03/10 07:54:00	BASE	8.49	358	12.19	353	2.1	95	1.3	0	0	985.2	NA	0.0000		9999	4070	0	0	0
2019/03/10 07:55:00	BASE	9.51	353	14.10	354	2.1	95	1.3	0	0	985.1	NA	0.0000		9999	4070	0	0	0
2019/03/10 07:56:00	BASE	8.29	356	14.10	354	2.1	94	1.3	0	0	985.2	NA	0.0000		9999	4070	0	0	0
2019/03/10 07:57:00	BASE	6.84	357	14.10	354	2.2	94	1.2	0	0	985.2	NA	0.0000		9999	4040	0	0	0
2019/03/10 07:58:00	BASE	6.65	358	14.10	354	2.2	93	1.2	0	0	985.2	NA	0.0000		9999	4100	0	0	0
2019/03/10 07:59:00	BASE	5.62	11	14.10	354	2.2	93	1.1	0	0	985.2	NA	0.0000		9999	4170	0	0	0
2019/03/10 08:00:00	BASE	4.66	28	14.10	354	2.2	92	1.1	0	0	985.2	NA	0.0000		9999	4100	0	0	0
2019/03/10 08:01:00	BASE	4.31	31	14.10	354	2.2	92	1.0	0	0	985.2	NA	0.0000		9999	4040	0	0	0
2019/03/10 08:02:00	BASE	4.47	28	14.10	354	2.2	92	1.0	0	0	985.2	NA	0.0000		9999	3770	0	0	0
2019/03/10 08:03:00	BASE	6.53	25	14.10	354	2.2	92	1.0	0	0	985.2	NA	0.0000		9999	3810	0	0	0
2019/03/10 08:04:00	BASE	6.26	16	14.10	354	2.2	92	1.0	0	0	985.2	NA	0.0000		9999	3840	0	0	0
2019/03/10 08:05:00	BASE	4.87	16	11.42	17	2.2	92	1.1	0	0	985.2	NA	0.0000		9999	3810	0	0	0
2019/03/10 08:06:00	BASE	6.19	27	11.42	17	2.2	92	1.1	0	0	985.1	NA	0.0000	UP	9999	3840	0	0	0
2019/03/10 08:07:00	BASE	6.34	38	11.42	17	2.2	93	1.1	0	0	985.1	NA	0.0000	UP	9999	1870	3840	0	0
2019/03/10 08:08:00	BASE	5.82	25	11.42	17	2.2	93	1.1	0	0	985.2	NA	0.0000	UP	9999	1870	4170	0	0
2019/03/10 08:09:00	BASE	5.40	24	11.42	17	2.2	93	1.2	0	0	985.3	NA	0.0000	UP	9999	1970	3410	0	0
2019/03/10 08:10:00	BASE	3.08	21	11.42	17	2.2	93	1.2	0	0	985.2	NA	0.0000	UP	9999	4130	0	0	0
2019/03/10 08:11:00	BASE	1.48	357	11.42	17	2.2	93	1.2	0	0	985.2	NA	0.0000	UP	9999	3020	0	0	0
2019/03/10 08:12:00	BASE	1.34	346	11.42	17	2.2	93	1.2	0	0	985.2	NA	0.0000	UP	9999	4170	0	0	0
2019/03/10 08:13:00	BASE	0.86	129	8.75	6	2.2	93	1.2	0	0	985.2	NA	0.0000	UP	9999	3020	4130	0	0
2019/03/10 08:14:00	BASE	1.79	147	8.75	6	2.1	93	1.1	0	0	985.2	NA	0.0000	UP	9999	4170	0	0	0
2019/03/10 08:15:00	BASE	2.48	153	8.75	6	2.1	93	1.1	0	0	985.1	NA	0.0000	UP	9999	4200	0	0	0
2019/03/10 08:16:00	BASE	1.59	171	7.05	47	2.1	93	1.1	0	0	985.2	NA	0.0000	UP	9999	0	0	0	4590
2019/03/10 08:17:00	BASE	0.64	190	6.38	1	2.2	93	1.1	0	0	985.2	NA	0.0000	UP	9999	0	0	0	5380
2019/03/10 08:18:00	BASE	0.73	171	5.97	35	2.2	92	1.1	0	0	985.2	NA	0.0000	UP	9999	4100	0	0	0
2019/03/10 08:19:00	BASE	1.29	129	3.91	181	2.2	92	1.0	0	0	985.2	NA	0.0000	UP	9999	4070	0	0	0
2019/03/10 08:20:00	BASE	1.53	104	5.04	95	2.2	92	1.0	0	0	985.1	NA	0.0000	UP	9999	3710	0	0	0
2019/03/10 08:21:00	BASE	2.93	98	6.58	96	2.2	92	1.0	0	0	985.1	NA	0.0000	UP	9999	1870	4100	0	0
2019/03/10 08:22:00	BASE	4.25	76	6.58	96	2.1	93	1.1	0	0	985.1	NA	0.0000	UP	9999	2030	4040	0	0
2019/03/10 08:23:00	BASE	3.40	54	6.58	96	2.1	93	1.1	0	0	985.2	NA	0.0000	UP	9999	2560	0	0	0
2019/03/10 08:24:00	BASE	2.48	37	6.58	96	2.1	93	1.1	0	0	985.2	NA	0.0000	UP	9999	2620	3940	0	0
2019/03/10 08:25:00	BASE	2.16	9	6.58	96	2.1	93	1.1	0	0	985.1	NA	0.0000	UP	9999	2920	0	0	0
2019/03/10 08:26:00	BASE	1.19	12	6.58	96	2.1	93	1.1	0	0	985.1	NA	0.0000	UP	9999	3350	0	0	0
2019/03/10 08:27:00	BASE	2.60	69	7.92	66	2.1	93	1.1	0	0	985.0	NA	0.0000	UP	9999	3710	0	0	0
2019/03/10 08:28:00	BASE	6.49	77	10.75	63	2.1	93	1.1	0	0	984.9	NA	0.0000	UP	9999	3670	0	0	0
2019/03/10 08:29:00	BASE	7.18	59	10.75	63	2.1	93	1.1	0	0	984.9	NA	0.0000	UP	9999	3670	0	0	0
2019/03/10 08:30:00	BASE	6.10	45	10.75	63	2.1	93	1.1	0	0	984.9	NA	0.0000	UP	9999	3640	0	0	0
2019/03/10 08:31:00	BASE	4.77	46	10.75	63	2.1	93	1.0	0	0	984.9	NA	0.0000	UP	9999	3510	0	0	0
2019/03/10 08:32:00	BASE	6.00	60	12.04	65	2.0	93	1.0	0	0	984.9	NA	0.0000	UP	9999	3450	0	0	0
2019/03/10 08:33:00	BASE	7.91	63	12.04	65	2.0	93	1.0	0	0	984.8	NA	0.0000	UP	9999	3540	0	0	0
2019/03/10 08:34:00	BASE	6.66	68	12.04	65	2.0	93	1.0	0	0	984.8	NA	0.0000	UP	9999	3310	0	0	0
2019/03/10 08:35:00	BASE	6.11	80	12.04	65	2.0	93	1.0	0	0	984.8	NA	0.0000	UP	9999	3220	0	0	0
2019/03/10 08:36:00	BASE	6.25	85	12.04	65	2.0	93	1.0	0	0	984.8	NA	0.0000	UP	9999	3120	0	0	0
2019/03/10 08:37:00	BASE	6.15	68	12.04	65	2.0	93	1.0	0	0	984.8	NA	0.0000	UP	9999	3050	0	0	0
2019/03/10 08:38:00	BASE	6.83	72	12.04	65	2.0	93	1.0	0	0	984.8	NA	0.0000	UP	9999	3050	0	0	0
2019/03/10 08:39:00	BASE	7.25	84	12.04	65	2.0	93	0.9	0	0	984.8	NA	0.0000		9999	2920	0	0	0
2019/03/10 08:40:00	BASE	6.60	74	12.04	65	2.0	93	1.0	0	0	984.8	NA	0.0000		9999	2790	0	0	0
2019/03/10 08:41:00	BASE	5.25	71	12.04	65	2.0	93	1.0	0	0	984.8	NA	0.0000		9999	2890	0	0	0
2019/03/10 08:42:00	BASE	3.39	59	10.34	59	2.0	93	1.0	0	0	984.8	NA	0.0000		9999	2890	0	0	0
2019/03/10 08:43:00	BASE	3.06	61	10.29	91	2.0	93	1.0	0	0	984.8	NA	0.0000		9999	2760	0	0	0
2019/03/10 08:44:00	BASE	4.82	47	10.29	91	1.9	94	1.0	0	0	984.8	NA	0.0000		9999	2690	0	0	0
2019/03/10 08:45:00	BASE	8.90	22	14.20	26	1.9	94	1.0	0	0	984.7	NA	0.0000		9999	2720	0	0	0
2019/03/10 08:46:00	BASE	11.57	24	14.20	26	1.9	94	1.1	0	0	984.6	NA	0.0000		9999	2590	0	0	0
2019/03/10 08:47:00	BASE	12.98	28	15.79	30	1.8	95	1.1	0	0	984.6	NA	0.0000	UP	9999	2530	0	0	0
2019/03/10 08:48:00	BASE	14.65	28	15.79	30	1.8	95	1.1	0	0	984.5	NA	0.0000	UP	9999	2530	0	0	0
2019/03/10 08:49:00	BASE	14.73	25	15.95	17	1.8	95	1.1	0	0	984.5	NA	0.0000	UP	9999	2460	0	0	0
2019/03/10 08:50:00	BASE	14.40	23	15.95	17	1.8	95	1.1	0	0	984.5	NA	0.0000	UP	9999	2460	0	0	0
2019/03/10 08:51:00	BASE	13.58	23	15.95	17	1.8	95	1.1	0	0	984.5	NA	0.0000	UP	9999	2360	0	0	0
2019/03/10 08:52:00	BASE	13.33	21	15.95	17	1.8	95	1.1	0	0	984.5	NA	0.0000	UP	9999	2400	0	0	0
2019/03/10 08:53:00	BASE	12.99	21	15.95	17	1.8	95	1.1	0	0	984.5	NA	0.0000	UP	9999	2430	0	0	0
2019/03/10 08:54:00	BASE	12.37	25	15.95	17	1.8	95	1.1	0	0	984.5	NA	0.0000	UP	9999	2360	0	0	0
2019/03/10 08:55:00	BASE	12.52	27	15.95	17	1.8	95	1.1	0	0	984.4	NA	0.0000	UP	9999	2530	0	0	0
2019/03/10 08:56:00	BASE	13.46	27	15.95	17	1.8	95	1.2	0	0	984.4	NA	0.0000	UP	9999	2460	0	0	0
2019/03/10 08:57:00	BASE	13.62	25	15.95	17	1.8	96	1.2	0	0	984.4	NA	0.0000	UP	9999	2430	0	0	0
2019/03/10 08:58:00	BASE	13.30	25	15.95	17	1.8	96	1.2	0	0	984.4	NA	0.0000	UP	9999	2560	0	0	0
2019/03/10 08:59:00	BASE	12.65	26	15.48	26	1.8	96	1.2	0	0	984.4	NA	0.0000	UP	9999	2490	0	0	0
2019/03/10 09:00:00	BASE	12.86	27	15.48	26	1.8	95	1.1	0	0	984.3	NA	0.0000	UP	9999	2490	0	0	0
2019/03/10 09:01:00	BASE	13.77	27	15.48	26	1.8	95	1.1	0	0	984.3	NA	0.0000	UP	9999	2430	0	0	0
2019/03/10 09:02:00	BASE	13.86	25	15.90	26	1.8	95	1.1	0	0	984.3	NA	0.0000	UP	9999	2200	0	0	0
2019/03/10 09:03:00	BASE	12.99	26	15.90	26	1.8	95	1.1	0	0	984.3	NA	0.0000	UP	9999	1770	3220	0	0
2019/03/10 09:04:00	BASE	12.61	25	15.90	26	1.8	96	1.1	0	0	984.2	NA	0.0000	UP	9999	1180	0	0	0
2019/03/10 09:05:00	BASE	13.46	22	15.90	26	1.7	96	1.2	0	0	984.2	NA	0.0000	UP	9999	750	0	0	0
2019/03/10 09:06:00	BASE	14.68	23	16.98	24	1.7	96	1.2	0	0	984.2	NA	0.0000	UP	9999	390	0	0	0
2019/03/10 09:07:00	BASE	15.78	24	17.03	23	1.7	97	1.2	0	0	984.2	NA	0.0000	UP	9999	360	2660	0	0
2019/03/10 09:08:00	BASE	14.91	25	17.03	23	1.7	97	1.3	0	0	984.2	NA	0.0000	UP	9999	360	0	0	0
2019/03/10 09:09:00	BASE	14.66	26	17.03	23	1.7	97	1.3	0	0	984.2	NA	0.0000	UP	9000	330	0	0	0
2019/03/10 09:10:01	BASE	14.40	26	17.03	23	1.7	98	1.4	0	0	984.2	NA	0.0000	UP	9000	2620	3180	0	0
2019/03/10 09:11:01	BASE	14.13	25	17.03	23	1.7	98	1.4	0	0	984.1	NA	0.0000	UP	9999	360	0	0	0
2019/03/10 09:12:00	BASE	14.52	26	17.03	23	1.7	98	1.4	0	0	984.2	NA	0.0000	UP	9000	360	0	0	0
2019/03/10 09:13:00	BASE	13.99	27	17.03	23	1.6	98	1.4	0	0	984.2	NA	0.0000	UP	8000	330	0	0	0
2019/03/10 09:14:01	BASE	13.52	28	17.03	23	1.6	99	1.4	0	0	984.2	NA	0.0000	-SN BR	7000	330	0	0	0
2019/03/10 09:15:01	BASE	13.08	30	17.03	23	1.6	99	1.4	0	0	984.2	NA	0.0000	-SN BR	6000	360	0	0	0
2019/03/10 09:16:01	BASE	12.26	32	17.03	23	1.6	99	1.4	0	0	984.2	NA	0.0000	-SN BR	4800	260	0	0	0
2019/03/10 09:17:01	BASE	11.81	32	16.20	26	1.6	99	1.4	0	0	984.2	NA	0.0000	-SN BR	4500	330	0	0	0
2019/03/10 09:18:01	BASE	11.83	32	16.20	26	1.5	99	1.4	0	0	984.2	NA	0.0000	-SN BR	4300	260	0	0	0
2019/03/10 09:19:01	BASE	11.67	31	15.95	28	1.5	99	1.4	0	0	984.1	NA	0.0000	-SN BR	4700	300	0	0	0
2019/03/10 09:20:01	BASE	12.03	26	15.95	28	1.5	100	1.5	0	0	984.2	NA	0.0000	-SN BR	5000	260	0	0	0
2019/03/10 09:21:01	BASE	11.72	24	15.95	28	1.5	100	1.5	0	0	984.2	NA	0.0000	-SN BR	4300	230	0	0	0
2019/03/10 09:22:01	BASE	10.14	27	15.74	17	1.5	100	1.5	0	0	984.1	NA	0.0000	-SN BR	4800	230	0	0	0
2019/03/10 09:23:01	BASE	8.88	30	15.74	17	1.5	100	1.5	0	0	984.2	NA	0.0000	-SN BR	4100	0	0	0	2430
2019/03/10 09:24:01	BASE	9.53	34	15.74	17	1.5	100	1.5	0	0	984.1	NA	0.0000	-SN BR	3500	0	0	0	2430
2019/03/10 09:25:01	BASE	10.12	37	15.74	17	1.5	100	1.5	0	0	984.1	NA	0.0000	-SN BR	3600	0	0	0	2070
2019/03/10 09:26:01	BASE	9.29	40	15.74	17	1.5	100	1.5	0	0	984.1	NA	0.0000	-SN BR	5000	260	0	0	0
2019/03/10 09:27:01	BASE	9.70	43	15.74	17	1.4	100	1.4	0	0	984.1	NA	0.0000	-SN BR	5000	0	0	0	3180
2019/03/10 09:28:01	BASE	10.69	46	15.74	17	1.4	100	1.4	0	0	984.1	NA	0.0000	-SN BR	4600	0	0	0	3220
2019/03/10 09:29:01	BASE	10.37	45	15.74	17	1.4	100	1.4	0	0	984.1	NA	0.0000	-SN BR	5000	0	0	0	3540
2019/03/10 09:30:01	BASE	9.61	43	13.68	26	1.4	100	1.4	0	0	984.1	NA	0.0000	-SN BR	6000	0	0	0	3380
2019/03/10 09:31:01	BASE	9.28	45	13.02	39	1.4	100	1.4	0	0	984.1	NA	0.0000	-SN BR	6000	430	0	0	0
2019/03/10 09:32:01	BASE	8.79	43	13.02	39	1.5	100	1.5	0	0	984.1	NA	0.0000	-SN BR	7000	460	0	0	0
2019/03/10 09:33:01	BASE	8.75	43	13.02	39	1.5	100	1.5	1	0	984.0	NA	0.0000	-SN BR	9999	460	0	0	0
2019/03/10 09:34:01	BASE	8.69	42	12.04	39	1.5	100	1.5	1	0	984.0	NA	0.0000	-SN BR	9999	460	0	0	0
2019/03/10 09:35:01	BASE	8.48	41	12.04	39	1.5	100	1.5	1	0	984.0	NA	0.0000	-SN BR	9999	460	0	0	0
2019/03/10 09:36:01	BASE	7.43	35	12.04	39	1.5	100	1.5	1	0	984.0	NA	0.0000	-SN BR	9999	300	0	0	0
2019/03/10 09:37:01	BASE	7.28	28	11.99	47	1.5	100	1.5	1	0	983.9	NA	0.0000	-SN BR	5000	300	0	0	0
2019/03/10 09:38:01	BASE	8.93	32	11.11	41	1.5	100	1.5	1	0	983.9	NA	0.0000	-SN BR	4200	230	0	0	0
2019/03/10 09:39:01	BASE	9.75	36	11.11	35	1.5	100	1.5	1	0	983.9	NA	0.0000	-SN BR	3700	0	0	0	2400
2019/03/10 09:40:01	BASE	10.28	34	12.24	36	1.5	100	1.5	1	0	983.9	NA	0.0000	-SN BR	3600	200	0	0	0
2019/03/10 09:41:01	BASE	9.70	36	12.24	36	1.6	100	1.6	1	0	983.9	NA	0.0000	-SN BR	3600	230	0	0	0
2019/03/10 09:42:01	BASE	9.52	38	12.24	36	1.6	100	1.6	1	0	983.9	NA	0.0000	-SN BR	3900	330	0	0	0
2019/03/10 09:43:01	BASE	9.83	40	12.24	36	1.6	100	1.6	1	0	983.9	NA	0.0000	-SN BR	4800	300	0	0	0
2019/03/10 09:44:01	BASE	9.41	43	12.24	36	1.6	100	1.6	1	0	983.9	NA	0.0000	-SN BR	6000	360	0	0	0
2019/03/10 09:45:01	BASE	8.95	42	12.24	36	1.6	100	1.6	1	0	983.9	NA	0.0000	-SN BR	6000	0	0	0	2070
2019/03/10 09:46:01	BASE	9.57	42	12.71	35	1.6	100	1.6	1	0	983.9	NA	0.0000	-SN BR	6000	360	0	0	0
2019/03/10 09:47:01	BASE	10.53	42	12.71	35	1.6	100	1.6	1	0	983.8	NA	0.0000	-SN BR	5000	0	0	0	1870
2019/03/10 09:48:01	BASE	10.20	41	12.71	35	1.7	100	1.7	2	0	983.8	NA	0.0000	-SN BR	6000	360	0	0	0
2019/03/10 09:49:01	BASE	10.05	42	12.81	43	1.7	100	1.7	2	0	983.7	NA	0.0000	-SN BR	6000	0	0	0	1740
2019/03/10 09:50:01	BASE	10.33	41	13.27	48	1.7	100	1.7	2	0	983.7	NA	0.0000	-SN BR	5000	790	0	0	0
2019/03/10 09:51:01	BASE	10.00	41	13.27	48	1.7	99	1.6	2	0	983.7	NA	0.0000	-SN BR	4900	330	0	0	0
2019/03/10 09:52:01	BASE	8.73	42	13.27	48	1.7	99	1.6	2	0	983.7	NA	0.0000	-SN BR	3200	330	0	0	0
2019/03/10 09:53:01	BASE	8.13	43	13.27	48	1.7	99	1.6	2	0	983.7	NA	0.0000	-SN BR	3800	330	0	0	0
2019/03/10 09:54:01	BASE	8.23	46	13.27	48	1.7	100	1.6	2	0	983.7	NA	0.0000	-SN BR	5000	390	0	0	0
2019/03/10 09:55:01	BASE	8.38	49	13.27	48	1.6	100	1.6	3	0	983.7	NA	0.0000	-SN BR	7000	0	0	0	2990
2019/03/10 09:56:01	BASE	7.96	50	13.27	48	1.6	100	1.6	3	0	983.7	NA	0.0000	-SN BR	9000	1540	0	0	0
2019/03/10 09:57:01	BASE	6.97	51	13.27	48	1.6	100	1.6	3	0	983.7	NA	0.0000	-SN BR	9000	430	0	0	0
2019/03/10 09:58:01	BASE	6.71	48	13.27	48	1.6	100	1.6	3	0	983.7	NA	0.0000	-SN BR	9000	0	0	0	3020
2019/03/10 09:59:01	BASE	7.33	41	13.27	48	1.7	100	1.7	3	0	983.7	NA	0.0000	-SN BR	7000	0	0	0	2890
2019/03/10 10:00:01	BASE	7.71	38	11.21	40	1.7	100	1.7	3	0	983.7	NA	0.0000	-SN BR	8000	0	0	0	2360
2019/03/10 10:01:01	BASE	8.42	39	10.75	41	1.7	100	1.7	3	0	983.7	NA	0.0000	-SN BR	6000	0	0	0	2230
2019/03/10 10:02:01	BASE	10.14	41	12.60	45	1.7	100	1.7	3	0	983.7	NA	0.0000	-SN BR	4000	0	0	0	2490
2019/03/10 10:03:01	BASE	10.73	43	12.60	45	1.7	100	1.7	3	0	983.7	NA	0.0000	-SN BR	3100	0	0	0	2070
2019/03/10 10:04:01	BASE	10.44	45	13.48	39	1.7	100	1.7	4	0	983.7	NA	0.0000	-SN BR	3200	0	0	0	2530
2019/03/10 10:05:01	BASE	9.96	45	13.48	39	1.6	100	1.6	4	0	983.7	NA	0.0000	-SN BR	2800	0	0	0	2460
2019/03/10 10:06:01	BASE	9.30	46	13.48	39	1.6	100	1.6	4	0	983.7	NA	0.0000	-SN BR	3500	0	0	0	2530
2019/03/10 10:07:01	BASE	9.09	47	13.48	39	1.6	100	1.6	4	0	983.6	NA	0.0000	-SN BR	4800	2820	0	0	0
2019/03/10 10:08:01	BASE	9.05	49	13.48	39	1.6	100	1.6	4	0	983.6	NA	0.0000	-SN BR	7000	330	0	0	0
2019/03/10 10:09:01	BASE	9.49	51	13.48	39	1.6	100	1.6	5	0	983.6	NA	0.0000	-SN BR	5000	0	0	0	2620
2019/03/10 10:10:01	BASE	8.94	52	13.48	39	1.6	100	1.6	5	0	983.6	NA	0.0000	-SN BR	5000	0	0	0	2620
2019/03/10 10:11:01	BASE	7.36	57	13.48	39	1.6	100	1.6	5	0	983.7	NA	0.0000	-SN BR	6000	390	0	0	0
2019/03/10 10:12:01	BASE	6.14	70	13.48	39	1.6	100	1.6	6	0	983.7	NA	0.0000	-SN BR	8000	0	0	0	2660
2019/03/10 10:13:01	BASE	5.78	82	13.48	39	1.7	100	1.7	6	0	983.6	NA	0.0000	-SN BR	8000	0	0	0	2720
2019/03/10 10:14:01	BASE	5.19	90	11.37	43	1.7	100	1.7	6	0	983.6	NA	0.0000	-SN BR	7000	390	0	0	0
2019/03/10 10:15:01	BASE	5.07	80	11.37	43	1.7	100	1.7	7	0	983.5	NA	0.0000	-SN BR	8000	390	0	0	0
2019/03/10 10:16:01	BASE	5.34	79	11.37	43	1.6	100	1.6	7	0	983.5	NA	0.0000	-SN BR	9999	430	0	0	0
2019/03/10 10:17:01	BASE	4.98	105	11.32	66	1.6	100	1.6	7	1	983.5	NA	0.0000	-SN BR	9999	460	0	0	0
2019/03/10 10:18:01	BASE	5.22	115	11.32	66	1.5	100	1.5	7	0	983.5	NA	0.0000	-SN BR	6000	460	0	0	0
2019/03/10 10:19:01	BASE	5.80	114	9.41	63	1.4	100	1.4	8	0	983.5	NA	0.0000	-SN BR	4600	690	0	0	0
2019/03/10 10:20:01	BASE	6.34	115	9.41	63	1.3	100	1.3	8	0	983.5	NA	0.0000	-SN BR	3400	590	2330	0	0
2019/03/10 10:21:01	BASE	6.24	115	9.41	63	1.2	100	1.2	8	0	983.5	NA	0.0000	-SN BR	3100	720	2400	0	0
2019/03/10 10:22:01	BASE	5.70	119	9.41	63	1.1	100	1.1	8	0	983.4	NA	0.0000	-SN BR	3600	620	2460	0	0
2019/03/10 10:23:01	BASE	5.11	122	7.67	52	1.0	100	1.0	9	0	983.4	NA	0.0000	-SN BR	3500	750	2360	0	0
2019/03/10 10:24:01	BASE	5.25	119	7.67	52	0.9	100	0.9	9	0	983.4	NA	0.0000	-SN BR	4000	950	0	0	0
2019/03/10 10:25:01	BASE	6.29	129	7.72	148	0.9	100	0.9	9	0	983.4	NA	0.0000	-SN BR	4800	2260	0	0	0
2019/03/10 10:26:01	BASE	7.43	146	9.88	145	0.8	100	0.8	9	0	983.3	NA	0.0000	-SN BR	6000	2330	0	0	0
2019/03/10 10:27:01	BASE	6.35	136	9.88	145	0.8	100	0.8	10	0	983.3	NA	0.0000	-SN BR	9999	2360	0	0	0
2019/03/10 10:28:01	BASE	4.72	116	9.88	145	0.8	100	0.8	10	0	983.4	NA	0.0000	-SN BR	9999	1250	0	0	0
2019/03/10 10:29:01	BASE	5.84	109	9.88	145	0.9	100	0.9	10	0	983.4	NA	0.0000	-SN BR	9999	2660	0	0	0
2019/03/10 10:30:01	BASE	6.61	110	9.88	145	0.9	100	0.9	11	0	983.4	NA	0.0000	-SN BR	7000	1210	0	0	0
2019/03/10 10:31:01	BASE	5.87	111	9.88	145	0.9	100	0.9	11	0	983.4	NA	0.0000	-SN BR	6000	1120	2620	0	0
2019/03/10 10:32:01	BASE	5.62	96	9.88	145	0.9	100	0.9	11	0	983.4	NA	0.0000	-SN BR	8000	460	2560	0	0
2019/03/10 10:33:01	BASE	5.78	98	9.88	145	0.8	100	0.8	12	0	983.3	NA	0.0000	-SN BR	5000	360	2690	0	0
2019/03/10 10:34:01	BASE	6.16	119	9.88	145	0.8	100	0.8	12	0	983.3	NA	0.0000	-SN BR	3500	330	2690	0	0
2019/03/10 10:35:01	BASE	6.62	127	9.88	145	0.8	100	0.8	12	0	983.3	NA	0.0000	-SN BR	4000	390	0	0	0
2019/03/10 10:36:01	BASE	6.54	122	7.72	111	0.7	100	0.7	12	0	983.3	NA	0.0000	-SN BR	4700	300	1310	0	0
2019/03/10 10:37:01	BASE	6.26	123	7.72	111	0.7	100	0.7	13	0	983.3	NA	0.0000	-SN BR	4700	300	2720	0	0
2019/03/10 10:38:01	BASE	6.49	128	8.03	108	0.7	100	0.7	13	0	983.2	NA	0.0000	-SN BR	5000	260	0	0	0
2019/03/10 10:39:01	BASE	6.41	127	8.03	108	0.7	100	0.7	13	0	983.2	NA	0.0000	-SN BR	6000	390	0	0	0
2019/03/10 10:40:01	BASE	6.36	122	8.03	108	0.7	100	0.7	14	0	983.3	NA	0.0000	-SN BR	5000	390	2690	0	0
2019/03/10 10:41:01	BASE	7.15	116	8.39	111	0.7	100	0.7	14	0	983.3	NA	0.0000	-SN BR	5000	230	0	0	0
2019/03/10 10:42:01	BASE	7.15	120	8.39	111	0.7	100	0.7	15	0	983.2	NA	0.0000	-SN BR	3400	0	0	0	590
2019/03/10 10:43:01	BASE	6.43	127	8.39	111	0.7	100	0.7	14	0	983.2	NA	0.0000	-SN BR	2900	230	2760	0	0
2019/03/10 10:44:01	BASE	7.36	128	10.19	124	0.6	100	0.6	15	0	983.1	NA	0.0000	-SN BR	2600	300	0	0	0
2019/03/10 10:45:01	BASE	9.08	130	10.19	124	0.6	100	0.6	15	0	983.1	NA	0.0000	-SN BR	2400	200	0	0	0
2019/03/10 10:46:01	BASE	9.12	132	11.27	139	0.6	100	0.6	16	0	983.1	NA	0.0000	-SN BR	2200	200	1120	0	0
2019/03/10 10:47:01	BASE	6.53	118	11.27	139	0.6	100	0.6	15	0	983.2	NA	0.0000	-SN BR	2200	660	0	0	0
2019/03/10 10:48:01	BASE	5.36	83	11.27	139	0.6	100	0.6	17	0	983.2	NA	0.0000	-SN BR	2500	200	0	0	0
2019/03/10 10:49:01	BASE	7.83	83	11.27	139	0.5	100	0.5	16	0	983.2	NA	0.0000	-SN BR	2400	330	920	0	0
2019/03/10 10:50:00	BASE	8.70	107	11.27	139	0.5	100	0.5	18	0	983.2	NA	0.0000	-SN BR	2200	0	0	0	490
2019/03/10 10:51:00	BASE	8.26	116	11.27	139	0.5	100	0.5	20	0	983.2	NA	0.0000	-SN BR	2100	0	0	0	2560
2019/03/10 10:52:00	BASE	8.84	113	11.27	139	0.5	100	0.5	19	0	983.2	NA	0.0000	-SN BR	2200	360	2330	0	0
2019/03/10 10:53:01	BASE	8.78	105	11.27	139	0.5	100	0.5	20	0	983.2	NA	0.0000	-SN BR	2200	0	0	0	1120
2019/03/10 10:54:01	BASE	8.48	102	11.27	139	0.4	100	0.4	21	0	983.2	NA	0.0000	-SN BR	2200	0	0	0	2400
2019/03/10 10:55:00	BASE	9.31	106	11.27	139	0.4	100	0.4	23	0	983.1	NA	0.0000	-SN BR	2100	260	0	0	0
2019/03/10 10:56:01	BASE	9.63	106	11.06	109	0.4	100	0.4	23	0	983.1	NA	0.0000	-SN BR	2100	1150	0	0	0
2019/03/10 10:57:00	BASE	9.03	100	11.06	109	0.4	100	0.4	23	0	983.2	NA	0.0000	-SN BR	2000	200	0	0	0
2019/03/10 10:58:01	BASE	8.31	95	11.06	109	0.4	100	0.4	24	0	983.3	NA	0.0000	-SN BR	2000	0	0	0	2660
2019/03/10 10:59:00	BASE	7.92	101	11.06	109	0.4	100	0.4	25	0	983.2	NA	0.0000	-SN BR	1800	0	0	0	2760
2019/03/10 11:00:01	BASE	7.66	105	11.06	109	0.4	100	0.4	25	0	983.2	NA	0.0000	-SN BR	1500	230	0	0	0
2019/03/10 11:01:00	BASE	7.43	111	11.06	109	0.4	100	0.4	26	0	983.2	NA	0.0000	-SN BR	1800	300	0	0	0
2019/03/10 11:02:01	BASE	7.37	116	11.06	109	0.4	100	0.4	27	0	983.2	NA	0.0000	-SN BR	1800	0	0	0	2360
2019/03/10 11:03:00	BASE	7.07	120	11.06	109	0.4	100	0.4	28	0	983.2	NA	0.0000	-SN BR	1600	0	0	0	2430
2019/03/10 11:04:01	BASE	7.10	126	11.06	109	0.4	100	0.4	29	0	983.1	NA	0.0000	-SN BR	1500	300	0	0	0
2019/03/10 11:05:00	BASE	6.99	130	11.06	109	0.4	100	0.4	31	0	983.1	NA	0.0000	-SN BR	1800	330	0	0	0
2019/03/10 11:06:00	BASE	5.87	119	9.52	90	0.4	100	0.4	32	0	983.1	NA	0.0000	-SN BR	2100	390	0	0	0
2019/03/10 11:07:00	BASE	5.53	109	9.00	96	0.5	100	0.5	32	0	983.1	NA	0.0000	-SN BR	2200	890	2100	0	0
2019/03/10 11:08:00	BASE	6.00	114	8.39	103	0.5	100	0.5	33	0	983.1	NA	0.0000	-SN BR	2100	390	0	0	0
2019/03/10 11:09:00	BASE	5.96	119	8.18	118	0.5	100	0.5	34	0	983.1	NA	0.0000	-SN BR	2900	390	2170	0	0
2019/03/10 11:10:00	BASE	5.93	114	8.18	118	0.5	100	0.5	35	0	983.1	NA	0.0000	-SN BR	3500	790	2170	0	0
2019/03/10 11:11:00	BASE	5.98	110	7.72	136	0.5	100	0.5	35	0	983.1	NA	0.0000	-SN BR	3900	790	2170	0	0
2019/03/10 11:12:00	BASE	6.25	114	7.82	110	0.6	100	0.6	36	0	983.0	NA	0.0000	-SN BR	4400	820	2130	0	0
2019/03/10 11:13:00	BASE	6.96	114	8.44	107	0.6	100	0.6	37	0	982.9	NA	0.0000	-SN BR	2800	920	2100	0	0
2019/03/10 11:14:00	BASE	7.15	111	8.44	107	0.6	100	0.6	37	0	982.9	NA	0.0000	-SN BR	3000	890	2260	0	0
2019/03/10 11:15:00	BASE	6.35	113	8.44	107	0.6	100	0.6	37	0	983.0	NA	0.0000	-SN BR	2900	950	2170	0	0
2019/03/10 11:16:00	BASE	5.05	122	8.44	107	0.5	100	0.5	38	0	983.0	NA	0.0000	-SN BR	3100	890	2230	0	0
2019/03/10 11:17:00	BASE	4.61	132	8.44	107	0.5	100	0.5	38	0	982.9	NA	0.0000	-SN BR	3400	750	0	0	0
2019/03/10 11:18:00	BASE	4.50	128	8.44	107	0.5	100	0.5	38	0	982.9	NA	0.0000	-SN BR	4600	820	2430	0	0
2019/03/10 11:19:01	BASE	3.76	116	8.44	107	0.5	100	0.5	37	0	982.9	NA	0.0000	-SN BR	6000	920	2430	0	0
2019/03/10 11:20:01	BASE	3.64	116	8.44	107	0.5	100	0.5	37	0	982.9	NA	0.0000	-SN BR	3900	1020	2030	0	0
2019/03/10 11:21:00	BASE	3.80	123	8.44	107	0.6	100	0.6	37	0	982.9	NA	0.0000	-SN BR	3200	1080	0	0	0
2019/03/10 11:22:00	BASE	4.90	125	8.44	107	0.6	100	0.6	38	0	982.9	NA	0.0000	-SN BR	3700	1310	0	0	0
2019/03/10 11:23:00	BASE	6.63	131	8.33	121	0.6	100	0.6	39	0	982.9	NA	0.0000	-SN BR	3600	2300	0	0	0
2019/03/10 11:24:01	BASE	7.09	125	8.33	121	0.6	100	0.6	40	0	982.9	NA	0.0000	-SN BR	5000	2460	0	0	0
2019/03/10 11:25:00	BASE	5.89	128	8.33	121	0.6	100	0.6	41	0	982.8	NA	0.0000	-SN BR	9000	2460	0	0	0
2019/03/10 11:26:00	BASE	6.12	141	8.54	136	0.6	100	0.6	42	0	982.8	NA	0.0000	-SN BR	9999	2400	0	0	0
2019/03/10 11:27:00	BASE	7.16	138	8.54	136	0.6	100	0.6	43	0	982.8	NA	0.0000	-SN BR	9999	1410	0	0	0
2019/03/10 11:28:00	BASE	5.89	137	8.54	136	0.6	100	0.6	44	0	982.8	NA	0.0000	-SN BR	9999	2430	0	0	0
2019/03/10 11:29:00	BASE	3.53	119	8.54	136	0.7	100	0.7	45	0	982.8	NA	0.0000	-SN BR	9999	2330	0	0	0
2019/03/10 11:30:00	BASE	1.41	77	8.54	136	0.7	100	0.7	44	0	982.9	NA	0.0000	-SN BR	9999	1570	0	0	0
2019/03/10 11:31:00	BASE	0.94	72	8.54	136	0.8	100	0.8	43	0	982.8	NA	0.0000	-SN BR	9999	2260	24410	0	0
2019/03/10 11:32:00	BASE	3.56	116	8.54	136	0.8	100	0.8	42	0	982.8	NA	0.0000	-SN BR	9999	1210	0	0	0
2019/03/10 11:33:00	BASE	4.77	115	8.54	136	0.9	100	0.9	41	0	982.8	NA	0.0000	-SN	9999	1540	0	0	0
2019/03/10 11:34:00	BASE	4.47	44	8.54	136	0.9	100	0.9	40	0	982.8	NA	0.0000	-SN	9999	0	0	0	2660
2019/03/10 11:35:00	BASE	4.73	55	8.54	136	0.9	100	0.9	40	0	982.8	NA	0.0000	-SN	9999	0	0	0	2530
2019/03/10 11:36:01	BASE	2.90	99	8.28	136	0.9	100	0.9	39	0	982.7	NA	0.0000	-SN	9999	1120	0	0	0
2019/03/10 11:37:00	BASE	1.97	141	7.61	142	0.9	100	0.9	39	0	982.7	NA	0.0000	-SN	9999	1150	2230	0	0
2019/03/10 11:38:00	BASE	3.24	144	8.18	112	0.9	100	0.9	38	0	982.8	NA	0.0000	-SN	9999	1280	0	0	0
2019/03/10 11:39:00	BASE	6.25	113	10.85	105	0.9	100	0.9	38	0	982.7	NA	0.0000	-SN	9999	1350	0	0	0
2019/03/10 11:40:00	BASE	7.85	104	10.85	105	1.0	100	1.0	38	0	982.7	NA	0.0000	-SN	9999	1280	0	0	0
2019/03/10 11:41:00	BASE	6.84	114	10.85	105	1.0	100	1.0	38	0	982.7	NA	0.0000	-SN	9999	1280	2300	0	0
2019/03/10 11:42:00	BASE	5.61	130	10.85	105	1.0	100	1.0	38	0	982.7	NA	0.0000	-SN	9999	1280	2300	0	0
2019/03/10 11:43:00	BASE	3.76	104	10.85	105	1.0	100	1.0	39	0	982.7	NA	0.0000	-SN	9999	1210	2230	0	0
2019/03/10 11:44:01	BASE	4.15	36	10.85	105	1.0	100	1.0	40	0	982.6	NA	0.0000	-SN	9999	1350	0	0	0
2019/03/10 11:45:00	BASE	4.42	35	10.85	105	1.0	100	1.0	40	0	982.7	NA	0.0000	-SN	9999	1210	0	0	0
2019/03/10 11:46:00	BASE	2.86	49	10.85	105	1.0	100	1.0	41	0	982.7	NA	0.0000	-SN	9999	1210	0	0	0
2019/03/10 11:47:00	BASE	2.44	71	10.85	105	1.0	100	1.0	42	0	982.7	NA	0.0000	-SN	9999	1310	0	0	0
2019/03/10 11:48:00	BASE	2.36	99	10.85	105	1.1	100	1.1	43	0	982.7	NA	0.0000	-SN	9999	1180	0	0	0
2019/03/10 11:49:00	BASE	2.82	93	8.90	113	1.1	100	1.1	45	0	982.7	NA	0.0000	-SN	9999	980	0	0	0
2019/03/10 11:50:00	BASE	3.51	69	7.82	129	1.1	100	1.1	48	0	982.6	NA	0.0000	-SN	9999	2030	0	0	0
2019/03/10 11:51:00	BASE	4.36	70	7.87	104	1.1	100	1.1	50	0	982.6	NA	0.0000	-SN	9999	2000	0	0	0
2019/03/10 11:52:00	BASE	5.91	90	7.87	104	1.1	100	1.1	52	0	982.6	NA	0.0000	-SN	9999	1380	0	0	0
2019/03/10 11:53:00	BASE	7.24	101	8.08	90	1.0	100	1.0	54	0	982.6	NA	0.0000	-SN	8000	2070	0	0	0
2019/03/10 11:54:00	BASE	7.69	100	8.28	99	1.0	100	1.0	56	0	982.6	NA	0.0000	-SN	4900	2030	0	0	0
2019/03/10 11:55:00	BASE	7.29	102	8.28	99	1.0	100	1.0	59	0	982.5	NA	0.0000	-SN BR	4700	2100	0	0	0
2019/03/10 11:56:01	BASE	6.46	103	8.28	99	1.0	100	1.0	61	0	982.6	NA	0.0000	-SN BR	4500	2000	0	0	0
2019/03/10 11:57:00	BASE	6.33	98	8.28	99	1.0	100	1.0	62	0	982.6	NA	0.0000	-SN BR	5000	1970	0	0	0
2019/03/10 11:58:01	BASE	6.66	99	8.28	99	1.0	100	1.0	63	0	982.5	NA	0.0000	-SN BR	5000	2000	0	0	0
2019/03/10 11:59:00	BASE	6.52	105	8.28	99	1.0	100	1.0	62	0	982.4	NA	0.0000	-SN BR	4900	2170	0	0	0
2019/03/10 12:00:00	BASE	6.35	109	8.28	99	1.0	100	1.0	61	0	982.4	NA	0.0000	-SN BR	6000	2030	0	0	0
2019/03/10 12:01:00	BASE	6.13	107	8.28	99	1.0	100	1.0	60	0	982.4	NA	0.0000	-SN BR	8000	690	2070	0	0
2019/03/10 12:02:00	BASE	6.18	107	8.28	99	0.9	100	0.9	60	0	982.4	NA	0.0000	-SN BR	7000	920	2130	0	0
2019/03/10 12:03:00	BASE	6.90	107	8.28	99	0.9	100	0.9	60	0	982.4	NA	0.0000	-SN BR	7000	950	21390	0	0
2019/03/10 12:04:00	BASE	7.07	105	8.13	102	0.9	100	0.9	60	0	982.4	NA	0.0000	-SN BR	6000	2130	0	0	0
2019/03/10 12:05:00	BASE	6.44	111	7.97	103	0.9	100	0.9	60	0	982.4	NA	0.0000	-SN BR	6000	2030	0	0	0
2019/03/10 12:06:01	BASE	6.11	120	7.97	103	0.9	100	0.9	60	0	982.3	NA	0.0000	-SN BR	6000	2130	0	0	0
2019/03/10 12:07:00	BASE	5.77	124	7.97	103	1.0	100	1.0	61	0	982.3	NA	0.0000	-SN BR	5000	2230	0	0	0
2019/03/10 12:08:01	BASE	5.74	124	7.97	103	1.0	100	1.0	62	0	982.3	NA	0.0000	-SN BR	5000	1120	0	0	0
2019/03/10 12:09:00	BASE	6.09	126	7.97	103	1.0	100	1.0	63	0	982.3	NA	0.0000	BR	5000	920	0	0	0
2019/03/10 12:10:00	BASE	5.95	129	7.97	103	1.1	100	1.1	64	0	982.3	NA	0.0000	BR	4700	850	2130	0	0
2019/03/10 12:11:00	BASE	5.17	128	7.97	103	1.1	100	1.1	65	0	982.3	NA	0.0000	BR	7000	950	2200	0	0
2019/03/10 12:12:01	BASE	4.77	125	7.97	103	1.1	100	1.1	67	0	982.3	NA	0.0000	BR	9000	690	2260	0	0
2019/03/10 12:13:00	BASE	4.24	121	7.61	125	1.1	100	1.1	69	0	982.3	NA	0.0000	BR	9000	1250	2100	0	0
2019/03/10 12:14:00	BASE	3.25	117	7.61	125	1.2	100	1.2	70	0	982.3	NA	0.0000	BR	9000	2130	0	0	0
2019/03/10 12:15:00	BASE	3.16	118	7.61	125	1.2	100	1.2	71	0	982.3	NA	0.0000	BR	8000	2070	0	0	0
2019/03/10 12:16:00	BASE	3.59	113	7.61	125	1.2	100	1.2	72	0	982.3	NA	0.0000	BR	8000	2170	0	0	0
2019/03/10 12:17:00	BASE	4.05	110	7.61	125	1.2	100	1.2	73	0	982.3	NA	0.0000	BR	7000	1180	0	0	0
2019/03/10 12:18:00	BASE	4.14	123	7.61	125	1.2	100	1.2	73	0	982.3	NA	0.0000	BR	7000	2100	0	0	0
2019/03/10 12:19:00	BASE	4.05	129	6.28	130	1.3	100	1.3	74	0	982.3	NA	0.0000	BR	9000	2170	0	0	0
2019/03/10 12:20:00	BASE	2.85	128	5.56	108	1.3	100	1.3	74	0	982.3	NA	0.0000	BR	9999	2070	0	0	0
2019/03/10 12:21:01	BASE	0.92	118	5.56	108	1.3	100	1.3	74	0	982.3	NA	0.0000	BR	9999	2100	0	0	0
2019/03/10 12:22:01	BASE	1.80	116	5.56	108	1.4	100	1.4	75	0	982.3	NA	0.0000	BR	9999	2100	0	0	0
2019/03/10 12:23:01	BASE	2.42	147	5.56	108	1.4	100	1.4	76	0	982.3	NA	0.0000	BR	9999	2100	0	0	0
2019/03/10 12:24:01	BASE	1.81	170	5.56	108	1.4	100	1.4	78	0	982.3	NA	0.0000	BR	9999	2030	0	0	0
2019/03/10 12:25:01	BASE	2.22	181	5.56	108	1.4	100	1.4	80	0	982.3	NA	0.0000		9999	1940	0	0	0
2019/03/10 12:26:01	BASE	2.51	196	5.56	108	1.3	100	1.3	83	0	982.3	NA	0.0000		9999	2230	0	0	0
2019/03/10 12:27:01	BASE	2.66	198	5.09	118	1.3	100	1.3	86	0	982.3	NA	0.0000		9999	2300	0	0	0
2019/03/10 12:28:01	BASE	1.93	197	4.89	124	1.2	100	1.2	90	0	982.3	NA	0.0000		9999	2330	0	0	0
2019/03/10 12:29:01	BASE	2.22	193	4.84	126	1.2	100	1.2	93	0	982.3	NA	0.0000		9999	2360	0	0	0
2019/03/10 12:30:01	BASE	3.93	179	5.04	172	1.2	100	1.2	97	0	982.3	NA	0.0000		9999	2360	0	0	0
2019/03/10 12:31:01	BASE	4.89	177	5.76	180	1.2	100	1.2	100	0	982.3	NA	0.0000		9999	2030	0	0	0
2019/03/10 12:32:01	BASE	5.14	182	5.76	180	1.2	100	1.2	103	0	982.3	NA	0.0000		9999	1800	0	0	0
2019/03/10 12:33:01	BASE	5.11	184	5.76	180	1.2	100	1.2	106	0	982.3	NA	0.0000		9999	1900	0	0	0
2019/03/10 12:34:01	BASE	4.84	177	5.76	180	1.2	100	1.2	110	0	982.3	NA	0.0000		9999	2260	0	0	0
2019/03/10 12:35:01	BASE	4.44	170	5.76	180	1.2	100	1.2	113	0	982.3	NA	0.0000		9999	2230	0	0	0
2019/03/10 12:36:01	BASE	4.36	168	5.76	180	1.2	100	1.2	115	0	982.3	NA	0.0000		9999	2100	0	0	0
2019/03/10 12:37:01	BASE	4.50	164	5.76	180	1.2	100	1.2	117	0	982.2	NA	0.0000		9999	2100	0	0	0
2019/03/10 12:38:01	BASE	4.76	157	5.81	145	1.2	100	1.2	117	0	982.2	NA	0.0000		9999	2260	0	0	0
2019/03/10 12:39:01	BASE	5.01	147	5.81	145	1.2	100	1.2	115	0	982.2	NA	0.0000		9999	1970	0	0	0
2019/03/10 12:40:01	BASE	4.62	140	5.81	145	1.2	100	1.2	114	0	982.2	NA	0.0000		9999	1570	2260	0	0
2019/03/10 12:41:01	BASE	3.97	140	5.81	145	1.2	100	1.2	113	0	982.2	NA	0.0000		9999	1640	2200	0	0
2019/03/10 12:42:01	BASE	3.94	142	5.81	145	1.2	100	1.2	112	0	982.2	NA	0.0000		9999	1970	0	0	0
2019/03/10 12:43:01	BASE	4.02	140	5.81	145	1.2	100	1.2	111	0	982.2	NA	0.0000		9999	2170	0	0	0
2019/03/10 12:44:01	BASE	3.87	137	5.81	145	1.2	100	1.2	110	0	982.2	NA	0.0000		9999	2070	0	0	0
2019/03/10 12:45:01	BASE	4.11	140	5.81	145	1.2	100	1.2	108	0	982.2	NA	0.0000		9999	1870	0	0	0
2019/03/10 12:46:01	BASE	4.98	144	6.79	145	1.2	100	1.2	106	0	982.2	NA	0.0000		9999	2130	0	0	0
2019/03/10 12:47:01	BASE	5.98	150	6.89	155	1.2	100	1.2	104	0	982.2	NA	0.0000		9999	2130	0	0	0
2019/03/10 12:48:01	BASE	6.11	158	6.89	155	1.2	100	1.2	102	0	982.2	NA	0.0000		9999	1670	2230	0	0
2019/03/10 12:49:01	BASE	5.67	160	6.89	155	1.3	100	1.3	100	0	982.2	NA	0.0000		9999	1770	2430	0	0
2019/03/10 12:50:01	BASE	5.43	158	6.89	155	1.3	100	1.3	100	0	982.2	NA	0.0000		9999	1770	2360	0	0
2019/03/10 12:51:01	BASE	5.20	152	6.89	155	1.3	100	1.3	101	0	982.2	NA	0.0000		9999	2070	0	0	0
2019/03/10 12:52:01	BASE	4.95	146	6.89	155	1.3	100	1.3	102	0	982.2	NA	0.0000		9999	1800	2360	0	0
2019/03/10 12:53:01	BASE	4.62	144	6.89	155	1.3	100	1.3	103	0	982.2	NA	0.0000		9999	2300	0	0	0
2019/03/10 12:54:01	BASE	4.52	143	6.89	155	1.4	100	1.4	106	0	982.2	NA	0.0000		9999	1800	2360	0	0
2019/03/10 12:55:01	BASE	4.43	142	6.89	155	1.4	100	1.4	111	0	982.2	NA	0.0000		9999	1770	2560	0	0
2019/03/10 12:56:01	BASE	4.03	140	6.89	155	1.5	100	1.5	114	0	982.2	NA	0.0000		9999	1900	2400	0	0
2019/03/10 12:57:01	BASE	4.23	135	6.02	162	1.5	100	1.5	118	0	982.2	NA	0.0000		9999	1870	0	0	0
2019/03/10 12:58:01	BASE	4.95	129	6.02	162	1.5	100	1.5	122	0	982.2	NA	0.0000		9999	1840	2490	0	0
2019/03/10 12:59:01	BASE	5.41	130	5.92	128	1.4	100	1.4	127	0	982.2	NA	0.0000		9999	1670	2490	0	0
2019/03/10 13:00:01	BASE	5.54	135	5.92	128	1.4	100	1.4	132	0	982.2	NA	0.0000		9999	2300	0	0	0
2019/03/10 13:01:01	BASE	5.84	138	6.84	141	1.4	100	1.4	136	0	982.2	NA	0.0000		9999	2170	0	0	0
2019/03/10 13:02:01	BASE	6.21	139	6.84	141	1.4	100	1.4	139	0	982.1	NA	0.0000		9999	1740	0	0	0
2019/03/10 13:03:01	BASE	6.03	142	6.84	141	1.3	100	1.3	139	0	982.2	NA	0.0000		9999	1770	0	0	0
2019/03/10 13:04:01	BASE	5.82	140	6.84	141	1.3	100	1.3	136	0	982.2	NA	0.0000		9999	1840	0	0	0
2019/03/10 13:05:01	BASE	6.34	133	7.41	134	1.3	100	1.3	130	0	982.1	NA	0.0000		9999	2230	0	0	0
2019/03/10 13:06:01	BASE	6.67	134	7.41	134	1.3	100	1.3	126	0	982.1	NA	0.0000		9999	1800	0	0	0
2019/03/10 13:07:01	BASE	6.30	139	7.41	134	1.3	100	1.3	124	0	982.1	NA	0.0000		9999	1740	0	0	0
2019/03/10 13:08:01	BASE	5.88	143	7.41	134	1.3	100	1.3	124	0	982.2	NA	0.0000		9999	1840	0	0	0
2019/03/10 13:09:00	BASE	5.50	142	7.41	134	1.3	100	1.3	124	0	982.2	NA	0.0000		9999	2230	22180	0	0
2019/03/10 13:10:00	BASE	5.63	139	7.41	134	1.3	100	1.3	125	0	982.2	NA	0.0000		9999	1870	0	0	0
2019/03/10 13:11:00	BASE	5.86	136	7.41	134	1.2	100	1.2	124	0	982.2	NA	0.0000	-RA	9999	1940	2460	0	0
2019/03/10 13:12:00	BASE	5.50	132	7.41	134	1.2	100	1.2	123	0	982.2	NA	0.0000	-RA	9000	1840	0	0	0
2019/03/10 13:13:00	BASE	5.40	129	7.41	134	1.2	100	1.2	122	0	982.2	NA	0.0000	-RA BR	8000	1840	2300	0	0
2019/03/10 13:14:01	BASE	5.55	129	7.41	134	1.2	100	1.2	120	0	982.2	NA	0.0000	-RA BR	8000	1900	0	0	0
2019/03/10 13:15:01	BASE	5.49	131	7.05	136	1.2	100	1.2	118	0	982.2	NA	0.0000	-RA BR	9000	1970	0	0	0
2019/03/10 13:16:00	BASE	5.31	133	6.84	141	1.2	100	1.2	117	0	982.2	NA	0.0000	-RA BR	9000	1670	0	0	0
2019/03/10 13:17:00	BASE	4.90	137	6.43	137	1.2	100	1.2	116	0	982.2	NA	0.0000	-RA BR	9000	1150	0	0	0
2019/03/10 13:18:00	BASE	4.52	144	6.28	135	1.2	100	1.2	115	0	982.2	NA	0.0000	-RA BR	9000	920	0	0	0
2019/03/10 13:19:00	BASE	4.31	146	6.28	135	1.2	100	1.2	114	0	982.1	NA	0.0000	-RA BR	9000	660	0	0	0
2019/03/10 13:20:01	BASE	4.26	146	6.28	135	1.3	100	1.3	113	0	982.1	NA	0.0000	-RA BR	9000	620	0	0	0
2019/03/10 13:21:00	BASE	4.43	146	6.17	130	1.3	100	1.3	111	0	982.1	NA	0.0000	-RA BR	9000	2170	0	0	0
2019/03/10 13:22:00	BASE	4.67	155	6.17	130	1.4	100	1.3	108	0	982.2	NA	0.0000	-RA BR	9000	590	2360	0	0
2019/03/10 13:23:00	BASE	4.29	166	5.81	129	1.4	100	1.4	105	0	982.2	NA	0.0000	-RA BR	7000	520	2400	0	0
2019/03/10 13:24:00	BASE	3.48	170	5.76	129	1.3	100	1.3	103	0	982.2	NA	0.0000	-RA BR	5000	620	2330	0	0
2019/03/10 13:25:01	BASE	2.76	164	5.56	132	1.3	100	1.3	102	0	982.2	NA	0.0000	-RA BR	4900	430	1940	0	0
2019/03/10 13:26:00	BASE	2.57	151	5.50	154	1.2	100	1.2	101	0	982.2	NA	0.0000	-RA BR	4700	390	1970	0	0
2019/03/10 13:27:00	BASE	3.18	146	5.50	154	1.2	100	1.2	100	0	982.2	NA	0.0000	-RA BR	3800	360	0	0	0
2019/03/10 13:28:00	BASE	3.61	152	5.50	154	1.2	100	1.2	100	0	982.2	NA	0.0000	-SN BR	3300	330	0	0	0
2019/03/10 13:29:00	BASE	3.44	158	5.40	145	1.2	100	1.2	100	0	982.2	NA	0.0000	-SN BR	3600	330	2430	0	0
2019/03/10 13:30:01	BASE	3.05	154	5.40	145	1.2	100	1.2	100	0	982.2	NA	0.0000	-SN BR	3700	360	2460	0	0
2019/03/10 13:31:00	BASE	2.48	140	5.20	152	1.1	100	1.1	99	0	982.2	NA	0.0000	-SN BR	4000	1870	2400	0	0
2019/03/10 13:32:01	BASE	1.59	131	4.53	183	1.1	100	1.1	96	0	982.2	NA	0.0000	-SN BR	5000	2360	0	0	0
2019/03/10 13:33:00	BASE	1.04	135	4.12	149	1.1	100	1.1	92	0	982.2	NA	0.0000	-SN BR	5000	2300	0	0	0
2019/03/10 13:34:00	BASE	0.56	155	4.12	149	1.0	100	1.0	88	0	982.2	NA	0.0000	-SN BR	6000	2430	0	0	0
2019/03/10 13:35:01	BASE	0.05	152	4.12	149	1.0	100	1.0	85	0	982.2	NA	0.0000	-SN BR	7000	2300	0	0	0
2019/03/10 13:36:00	BASE	0.00	137	4.12	149	1.1	100	1.1	82	0	982.2	NA	0.0000	-SN BR	6000	1900	0	0	0
2019/03/10 13:37:00	BASE	0.00	99	4.01	150	1.1	100	1.1	80	0	982.2	NA	0.0000	-SN BR	7000	2490	0	0	0
2019/03/10 13:38:01	BASE	0.78	38	3.60	160	1.1	100	1.1	78	0	982.2	NA	0.0000	-SN BR	6000	750	0	0	0
2019/03/10 13:39:00	BASE	0.82	24	2.98	142	1.1	100	1.1	78	0	982.2	NA	0.0000	-SN BR	8000	390	0	0	0
2019/03/10 13:40:00	BASE	0.05	49	2.83	141	1.1	100	1.1	78	0	982.2	NA	0.0000	-SN BR	6000	360	0	0	0
2019/03/10 13:41:00	BASE	0.00	86	2.42	21	1.0	100	1.0	79	0	982.2	NA	0.0000	-SN BR	7000	390	0	0	0
2019/03/10 13:42:00	BASE	0.05	104	2.42	21	1.0	100	1.0	80	0	982.2	NA	0.0000	-SN BR	9000	430	0	0	0
2019/03/10 13:43:01	BASE	0.46	90	2.42	21	1.0	100	1.0	82	0	982.2	NA	0.0000	-SN BR	9000	430	2430	0	0
2019/03/10 13:44:01	BASE	0.97	57	3.09	43	1.1	100	1.1	85	0	982.2	NA	0.0000	-SN BR	8000	1610	2460	0	0
2019/03/10 13:45:00	BASE	1.79	44	3.09	43	1.1	100	1.1	89	0	982.2	NA	0.0000	-SN BR	8000	1800	2460	0	0
2019/03/10 13:46:00	BASE	2.05	39	3.09	43	1.1	100	1.1	92	0	982.2	NA	0.0000	-SN BR	9000	1900	2460	0	0
2019/03/10 13:47:00	BASE	0.81	33	3.09	43	1.1	100	1.1	94	0	982.2	NA	0.0000	-SN BR	9999	1900	0	0	0
2019/03/10 13:48:01	BASE	0.15	27	3.09	43	1.1	100	1.1	96	0	982.2	NA	0.2540	-SN BR	9999	1800	2490	0	0
2019/03/10 13:49:00	BASE	0.30	4	3.09	43	1.1	100	1.1	98	0	982.2	NA	0.0000	-SN BR	9999	1900	2490	0	0
2019/03/10 13:50:00	BASE	0.14	343	3.09	43	1.1	100	1.1	99	0	982.2	NA	0.0000	-SN BR	9999	2490	0	0	0
2019/03/10 13:51:00	BASE	0.04	4	3.09	43	1.1	100	1.1	101	0	982.2	NA	0.0000	-SN BR	9999	1870	2530	0	0
2019/03/10 13:52:00	BASE	0.09	60	3.09	43	1.2	100	1.2	102	0	982.2	NA	0.0000	-SN	9999	2530	0	0	0
2019/03/10 13:53:00	BASE	0.77	108	3.09	43	1.2	100	1.2	103	0	982.2	NA	0.0000	-SN	9999	2490	0	0	0
2019/03/10 13:54:00	BASE	1.46	133	2.78	44	1.3	100	1.3	104	0	982.2	NA	0.0000	-SN	9999	1940	2490	0	0
2019/03/10 13:55:00	BASE	1.60	141	2.47	39	1.3	100	1.3	106	0	982.1	NA	0.0000	-SN	9999	1900	2590	0	0
2019/03/10 13:56:00	BASE	1.76	144	2.01	149	1.3	100	1.3	107	0	982.1	NA	0.0000	-SN	9999	1870	2560	0	0
2019/03/10 13:57:00	BASE	1.79	141	2.01	149	1.4	100	1.4	107	0	982.1	NA	0.0000	-SN	9999	1710	2560	0	0
2019/03/10 13:58:00	BASE	1.63	123	2.11	115	1.3	100	1.3	108	0	982.1	NA	0.0000	-SN	9999	1740	2590	0	0
2019/03/10 13:59:01	BASE	1.63	123	2.11	136	1.3	100	1.3	110	0	982.1	NA	0.0000	-SN	9999	2490	0	0	0
2019/03/10 14:00:00	BASE	1.97	145	2.47	162	1.3	100	1.3	112	0	982.1	NA	0.0000	-SN	9999	1940	2490	0	0
2019/03/10 14:01:00	BASE	2.45	168	3.24	184	1.3	100	1.3	114	0	982.1	NA	0.0000	-SN	9999	2000	0	0	0
2019/03/10 14:02:00	BASE	2.84	172	3.60	171	1.3	100	1.3	116	0	982.1	NA	0.0000	-SN	9999	2000	2660	0	0
2019/03/10 14:03:00	BASE	2.92	163	3.60	171	1.3	100	1.3	117	0	982.1	NA	0.0000	-SN	9999	1970	2590	0	0
2019/03/10 14:04:00	BASE	2.94	160	3.60	171	1.3	100	1.3	117	0	982.1	NA	0.0000	-SN	9999	2030	2660	0	0
2019/03/10 14:05:00	BASE	2.66	160	3.60	171	1.4	100	1.4	117	0	982.1	NA	0.0000	-SN	9999	2530	0	0	0
2019/03/10 14:06:00	BASE	2.26	156	3.60	171	1.4	100	1.4	116	0	982.0	NA	0.0000	-SN	9999	1870	0	0	0
2019/03/10 14:07:00	BASE	1.94	138	3.60	171	1.5	100	1.5	115	0	982.1	NA	0.0000	-SN	9999	1940	0	0	0
2019/03/10 14:08:00	BASE	1.80	122	3.60	171	1.5	100	1.5	115	0	982.1	NA	0.0000	-SN	9999	2400	0	0	0
2019/03/10 14:09:00	BASE	1.98	126	3.60	171	1.5	100	1.5	115	0	982.0	NA	0.0000	-SN	9999	2400	0	0	0
2019/03/10 14:10:00	BASE	2.29	136	3.60	171	1.5	100	1.5	115	0	982.0	NA	0.0000	-SN	9999	2230	0	0	0
2019/03/10 14:11:00	BASE	2.53	142	3.60	171	1.6	100	1.6	114	0	982.0	NA	0.0000	-SN	9999	750	0	0	0
2019/03/10 14:12:00	BASE	2.28	142	3.45	163	1.5	100	1.5	113	0	982.0	NA	0.0000	-SN	9999	660	2430	0	0
2019/03/10 14:13:00	BASE	2.04	140	3.45	163	1.5	100	1.5	111	0	982.0	NA	0.0000	-SN	9999	520	2530	0	0
2019/03/10 14:14:00	BASE	1.91	137	2.98	170	1.5	100	1.5	109	0	982.0	NA	0.0000	-SN	9999	430	2490	0	0
2019/03/10 14:15:00	BASE	1.77	133	2.88	141	1.5	100	1.5	109	0	982.0	NA	0.0000	-SN	9999	390	0	0	0
2019/03/10 14:16:00	BASE	2.15	122	3.50	108	1.5	100	1.5	112	0	982.0	NA	0.0000	-SN	9000	1900	2490	0	0
2019/03/10 14:17:00	BASE	2.87	110	3.76	111	1.5	100	1.5	116	0	982.0	NA	0.0000	-SN	9000	1640	2490	0	0
2019/03/10 14:18:00	BASE	3.51	103	3.96	93	1.5	100	1.5	122	0	982.0	NA	0.0000	-SN	9000	1610	2530	0	0
2019/03/10 14:19:00	BASE	3.71	107	3.96	93	1.5	100	1.5	127	0	982.0	NA	0.0000	-SN	9000	2490	0	0	0
2019/03/10 14:20:00	BASE	3.77	109	4.58	98	1.5	100	1.5	133	0	982.0	NA	0.0000	-SN	6000	2200	0	0	0
2019/03/10 14:21:00	BASE	3.73	105	4.58	98	1.6	100	1.6	138	0	981.9	NA	0.0000	-SN BR	5000	2000	2490	0	0
2019/03/10 14:22:00	BASE	3.58	110	4.58	98	1.6	100	1.6	140	0	981.9	NA	0.0000	-SN BR	6000	2030	2490	0	0
2019/03/10 14:23:00	BASE	3.62	116	4.58	98	1.6	100	1.6	141	0	981.9	NA	0.0000	-SN BR	8000	2360	0	0	0
2019/03/10 14:24:00	BASE	3.59	115	4.58	98	1.6	100	1.6	139	0	981.9	NA	0.0000	-SN BR	8000	2430	0	0	0
2019/03/10 14:25:00	BASE	3.53	110	4.58	98	1.6	100	1.6	135	0	981.9	NA	0.0000	-SN BR	8000	2430	0	0	0
2019/03/10 14:26:00	BASE	3.54	108	4.58	98	1.7	100	1.7	131	0	981.9	NA	0.0000	-SN BR	9000	2400	0	0	0
2019/03/10 14:27:00	BASE	3.50	110	4.58	98	1.7	100	1.7	127	0	981.8	NA	0.0000	-SN BR	9000	2400	0	0	0
2019/03/10 14:28:00	BASE	3.51	115	4.58	98	1.6	100	1.6	122	0	981.8	NA	0.0000	-SN BR	9999	2430	0	0	0
2019/03/10 14:29:01	BASE	3.55	121	4.58	98	1.6	100	1.6	118	0	981.8	NA	0.0000	-SN BR	9000	2430	0	0	0
2019/03/10 14:30:00	BASE	3.37	124	4.48	111	1.7	100	1.7	116	0	981.8	NA	0.0000	-SN BR	9000	460	0	0	0
2019/03/10 14:31:00	BASE	2.81	141	4.48	111	1.6	100	1.6	115	0	981.7	NA	0.0000	-SN BR	9000	430	0	0	0
2019/03/10 14:32:00	BASE	2.33	172	4.22	127	1.6	100	1.6	115	0	981.7	NA	0.0000	-SN BR	9000	390	0	0	0
2019/03/10 14:33:00	BASE	2.81	187	4.01	122	1.6	100	1.6	114	0	981.7	NA	0.0000	-SN BR	9000	430	0	0	0
2019/03/10 14:34:00	BASE	3.18	191	4.01	122	1.5	100	1.5	112	0	981.7	NA	0.0000	-SN BR	7000	2360	0	0	0
2019/03/10 14:35:00	BASE	2.62	194	4.01	122	1.4	100	1.4	109	0	981.7	NA	0.0000	-SN BR	6000	2400	0	0	0
2019/03/10 14:36:00	BASE	2.35	191	4.01	122	1.3	100	1.3	108	0	981.7	NA	0.0000	-SN BR	5000	2430	0	0	0
2019/03/10 14:37:00	BASE	2.48	186	4.01	122	1.2	100	1.2	107	0	981.7	NA	0.0000	-SN BR	6000	2430	0	0	0
2019/03/10 14:38:00	BASE	2.86	189	3.96	121	1.1	100	1.1	107	0	981.7	NA	0.0000	-SN BR	7000	2430	0	0	0
2019/03/10 14:39:00	BASE	3.06	192	3.76	191	1.1	100	1.1	109	0	981.7	NA	0.0000	-SN BR	5000	2360	0	0	0
2019/03/10 14:40:00	BASE	2.89	186	3.76	191	1.1	100	1.1	111	0	981.7	NA	0.0000	-SN BR	6000	2400	0	0	0
2019/03/10 14:41:00	BASE	2.91	180	3.76	191	1.1	100	1.1	113	0	981.7	NA	0.0000	-SN BR	8000	2360	0	0	0
2019/03/10 14:42:00	BASE	2.97	177	3.76	191	1.1	100	1.1	116	0	981.7	NA	0.0000	-SN BR	8000	2330	0	0	0
2019/03/10 14:43:00	BASE	2.89	175	3.76	191	1.1	100	1.1	116	0	981.7	NA	0.0000	-SN BR	8000	2360	0	0	0
2019/03/10 14:44:00	BASE	2.77	164	3.60	197	1.2	100	1.2	117	0	981.7	NA	0.0000	-SN BR	8000	2460	0	0	0
2019/03/10 14:45:00	BASE	2.39	155	3.60	197	1.3	100	1.3	118	0	981.7	NA	0.0000	-SN BR	7000	430	0	0	0
2019/03/10 14:46:00	BASE	1.95	146	3.60	197	1.3	100	1.3	118	0	981.7	NA	0.0000	-SN BR	8000	460	0	0	0
2019/03/10 14:47:00	BASE	1.41	134	3.60	197	1.3	100	1.3	120	0	981.7	NA	0.0000	-SN BR	8000	390	0	0	0
2019/03/10 14:48:00	BASE	1.15	129	3.45	188	1.3	100	1.3	122	0	981.7	NA	0.0000	-SN BR	8000	2300	0	0	0
2019/03/10 14:49:00	BASE	1.40	111	3.40	176	1.4	100	1.4	126	0	981.6	NA	0.0000	-SN BR	8000	490	0	0	0
2019/03/10 14:50:00	BASE	1.23	91	3.40	176	1.4	100	1.4	129	0	981.6	NA	0.0000	-SN BR	8000	520	0	0	0
2019/03/10 14:51:00	BASE	1.65	106	3.19	146	1.4	100	1.4	133	0	981.6	NA	0.0000	-SN BR	8000	430	0	0	0
2019/03/10 14:52:00	BASE	1.66	109	3.19	146	1.5	100	1.5	139	0	981.6	NA	0.0000	-SN BR	7000	430	0	0	0
2019/03/10 14:53:00	BASE	0.56	92	3.19	146	1.5	100	1.5	145	0	981.6	NA	0.0000	-SN BR	7000	430	22470	0	0
2019/03/10 14:54:00	BASE	0.05	68	3.04	112	1.5	100	1.5	152	0	981.6	NA	0.0000	-SN BR	7000	2260	0	0	0
2019/03/10 14:55:00	BASE	0.49	75	3.04	112	1.5	100	1.5	159	0	981.6	NA	0.0000	BR	7000	2300	0	0	0
2019/03/10 14:56:00	BASE	0.86	83	3.04	112	1.5	100	1.5	166	0	981.6	NA	0.0000	BR	7000	2260	0	0	0
2019/03/10 14:57:00	BASE	0.41	58	3.04	112	1.5	100	1.5	171	0	981.6	NA	0.0000	-SN BR	7000	2260	0	0	0
2019/03/10 14:58:00	BASE	0.46	82	3.04	112	1.5	100	1.5	176	0	981.6	NA	0.0000	-SN BR	7000	2330	0	0	0
2019/03/10 14:59:00	BASE	1.36	120	3.04	112	1.5	100	1.5	183	0	981.5	NA	0.0000	-SN BR	7000	2300	2950	0	0
2019/03/10 15:00:00	BASE	2.15	137	3.04	112	1.5	100	1.5	191	0	981.5	NA	0.0000	-SN BR	7000	2330	0	0	0
2019/03/10 15:01:00	BASE	2.38	140	3.24	124	1.5	100	1.5	200	0	981.5	NA	0.0000	-SN BR	7000	2330	0	0	0
2019/03/10 15:02:00	BASE	2.29	127	3.24	124	1.5	100	1.5	210	0	981.5	NA	0.0000	-SN BR	9000	2330	0	0	0
2019/03/10 15:03:00	BASE	1.97	118	3.24	124	1.5	100	1.5	215	0	981.5	NA	0.0000	-SN BR	9999	2300	0	0	0
2019/03/10 15:04:00	BASE	1.97	111	3.24	124	1.5	100	1.5	214	0	981.5	NA	0.0000	-SN BR	9999	2330	0	0	0
2019/03/10 15:05:00	BASE	2.42	97	3.45	98	1.6	100	1.6	210	0	981.5	NA	0.0000	-SN BR	9999	2300	0	0	0
2019/03/10 15:06:01	BASE	2.01	66	3.45	98	1.6	100	1.6	205	0	981.5	NA	0.0000	-SN BR	9999	2300	0	0	0
2019/03/10 15:07:00	BASE	1.56	35	3.45	98	1.6	100	1.6	202	0	981.5	NA	0.0000	-SN BR	9999	2260	0	0	0
2019/03/10 15:08:00	BASE	1.27	38	3.45	98	1.6	100	1.6	201	0	981.5	NA	0.0000	-SN BR	9999	0	0	0	3220
2019/03/10 15:09:00	BASE	0.43	43	3.45	98	1.6	100	1.6	201	0	981.4	NA	0.0000	-SN BR	9999	0	0	0	3380
2019/03/10 15:10:00	BASE	0.00	3	3.45	98	1.6	100	1.6	201	0	981.4	NA	0.0000	-SN BR	9999	0	0	0	3280
2019/03/10 15:11:00	BASE	0.00	344	3.45	98	1.6	100	1.6	204	0	981.4	NA	0.0000	-SN	9999	0	0	0	3180
2019/03/10 15:12:00	BASE	0.00	7	3.45	98	1.6	100	1.6	207	0	981.4	NA	0.0000	-SN	9999	0	0	0	3080
2019/03/10 15:13:00	BASE	0.45	64	3.45	98	1.6	100	1.6	212	0	981.4	NA	0.0000	-SN	9999	2530	0	0	0
2019/03/10 15:14:00	BASE	0.77	90	3.45	98	1.6	100	1.6	217	0	981.4	NA	0.0000	-SN	9999	2260	0	0	0
2019/03/10 15:15:00	BASE	0.43	82	2.37	61	1.7	100	1.7	223	0	981.3	NA	0.0000	-SN	9999	2260	0	0	0
2019/03/10 15:16:00	BASE	1.38	86	2.88	85	1.7	100	1.7	227	0	981.2	NA	0.0000	-SN	9999	2230	0	0	0
2019/03/10 15:17:00	BASE	3.06	98	4.12	99	1.7	100	1.7	232	0	981.2	NA	0.0000	-SN	9000	2260	0	0	0
2019/03/10 15:18:00	BASE	4.03	102	4.99	107	1.7	100	1.7	238	0	981.2	NA	0.0000	-SN	8000	2200	0	0	0
2019/03/10 15:19:00	BASE	4.49	103	5.45	103	1.7	100	1.7	244	0	981.2	NA	0.0000	-SN BR	8000	0	0	0	4200
2019/03/10 15:20:00	BASE	4.86	100	6.02	102	1.7	100	1.7	250	0	981.2	NA	0.0000	-SN BR	9000	2200	0	0	0
2019/03/10 15:21:00	BASE	5.63	101	6.43	102	1.7	100	1.7	254	0	981.2	NA	0.0000	-SN BR	9000	22930	0	0	0
2019/03/10 15:22:00	BASE	6.10	103	6.58	103	1.7	100	1.7	254	0	981.2	NA	0.0000	-SN BR	9000	0	0	0	8790
2019/03/10 15:23:00	BASE	6.11	103	6.58	103	1.7	100	1.7	252	0	981.2	NA	0.0000	-SN BR	9000	0	0	0	8730
2019/03/10 15:24:00	BASE	5.92	105	6.58	103	1.7	100	1.7	246	0	981.2	NA	0.0000	-SN BR	9000	0	0	0	3220
2019/03/10 15:25:00	BASE	5.64	107	6.58	103	1.7	100	1.7	238	0	981.2	NA	0.0000	-SN BR	9000	0	0	0	3150
2019/03/10 15:26:00	BASE	5.66	108	6.69	109	1.7	100	1.7	227	0	981.2	NA	0.0000	-SN BR	9000	2820	0	0	0
2019/03/10 15:27:00	BASE	5.92	110	6.74	109	1.7	100	1.7	218	0	981.2	NA	0.0000	-SN BR	9000	2890	0	0	0
2019/03/10 15:28:00	BASE	5.95	111	6.74	109	1.7	100	1.7	210	0	981.2	NA	0.0000	BR	9000	2820	0	0	0
2019/03/10 15:29:00	BASE	5.39	110	6.74	109	1.7	100	1.7	203	0	981.2	NA	0.0000	BR	9000	2620	0	0	0
2019/03/10 15:30:00	BASE	5.25	108	6.74	109	1.8	100	1.8	197	0	981.2	NA	0.0000	BR	9000	2360	0	0	0
2019/03/10 15:31:00	BASE	5.56	105	6.74	109	1.8	100	1.8	193	0	981.2	NA	0.0000	BR	9000	2590	0	0	0
2019/03/10 15:32:00	BASE	5.46	104	6.74	109	1.8	100	1.8	192	0	981.2	NA	0.0000	BR	9000	2430	0	0	0
2019/03/10 15:33:00	BASE	5.56	102	6.74	109	1.8	100	1.8	191	0	981.2	NA	0.0000	BR	8000	2360	0	0	0
2019/03/10 15:34:00	BASE	5.77	100	6.84	101	1.8	100	1.8	190	0	981.2	NA	0.0000	BR	8000	2230	23000	0	0
2019/03/10 15:35:00	BASE	6.10	99	7.15	95	1.8	100	1.8	189	0	981.2	NA	0.0000	BR	8000	2260	0	0	0
2019/03/10 15:36:00	BASE	6.61	98	7.41	98	1.8	100	1.8	188	0	981.1	NA	0.0000	BR	8000	2030	0	0	0
2019/03/10 15:37:00	BASE	6.56	99	7.41	98	1.8	100	1.8	186	0	981.0	NA	0.0000	BR	8000	0	0	0	3380
2019/03/10 15:38:00	BASE	6.40	99	7.41	98	1.8	100	1.8	184	0	981.0	NA	0.0000	BR	8000	2460	0	0	0
2019/03/10 15:39:00	BASE	6.54	100	7.41	98	1.7	100	1.7	182	0	981.0	NA	0.0000	BR	8000	2400	0	0	0
2019/03/10 15:40:00	BASE	6.46	103	7.41	98	1.7	100	1.7	179	0	981.0	NA	0.0000	BR	8000	2360	0	0	0
2019/03/10 15:41:00	BASE	6.14	103	7.41	98	1.7	100	1.7	176	0	981.1	NA	0.0000	BR	8000	2300	0	0	0
2019/03/10 15:42:00	BASE	6.18	102	7.41	98	1.7	100	1.7	172	0	981.1	NA	0.0000	BR	8000	2300	0	0	0
2019/03/10 15:43:00	BASE	6.53	102	7.41	98	1.7	100	1.7	170	0	981.2	NA	0.0000	BR	8000	2430	0	0	0
2019/03/10 15:44:00	BASE	6.48	101	7.41	98	1.7	100	1.7	169	0	981.2	NA	0.0000	BR	8000	2430	0	0	0
2019/03/10 15:45:00	BASE	6.08	101	7.41	98	1.7	100	1.7	169	0	981.2	NA	0.0000	BR	8000	2490	0	0	0
2019/03/10 15:46:00	BASE	5.92	100	7.20	95	1.7	100	1.7	169	0	981.2	NA	0.0000	BR	8000	2490	0	0	0
2019/03/10 15:47:00	BASE	6.11	102	7.20	95	1.7	100	1.7	170	0	981.1	NA	0.0000	BR	8000	2530	0	0	0
2019/03/10 15:48:00	BASE	6.14	106	7.15	100	1.7	100	1.7	171	0	981.0	NA	0.0000	BR	8000	2590	0	0	0
2019/03/10 15:49:00	BASE	5.68	110	6.84	102	1.7	100	1.7	173	0	981.0	NA	0.0000	BR	8000	2490	0	0	0
2019/03/10 15:50:00	BASE	5.35	113	6.84	102	1.8	100	1.8	174	0	981.0	NA	0.0000	BR	8000	2430	0	0	0
2019/03/10 15:51:00	BASE	5.86	114	7.00	115	1.9	100	1.9	176	0	981.0	NA	0.0000	BR	8000	2430	0	0	0
2019/03/10 15:52:00	BASE	6.57	114	7.25	116	1.9	100	1.9	178	0	981.0	NA	0.0000	BR	8000	430	0	0	0
2019/03/10 15:53:00	BASE	6.84	116	7.25	118	2.0	100	2.0	180	0	981.0	NA	0.0000	BR	8000	2400	0	0	0
2019/03/10 15:54:00	BASE	6.69	119	7.25	118	2.0	100	2.0	181	0	981.0	NA	0.0000	UP BR	5000	390	0	0	0
2019/03/10 15:55:00	BASE	6.61	119	7.25	118	2.0	100	2.0	182	0	981.0	NA	0.0000	UP BR	3900	2560	0	0	0
2019/03/10 15:56:00	BASE	6.47	117	7.25	118	1.9	100	1.9	184	0	981.0	NA	0.0000	UP BR	3800	2560	0	0	0
2019/03/10 15:57:00	BASE	6.29	114	7.25	118	1.9	100	1.9	187	0	981.0	NA	0.0000	UP BR	4400	2360	0	0	0
2019/03/10 15:58:00	BASE	5.99	110	7.25	118	2.0	100	2.0	189	0	981.0	NA	0.0000	UP BR	5000	2490	0	0	0
2019/03/10 15:59:00	BASE	5.86	107	7.25	118	2.0	100	2.0	190	0	981.0	NA	0.0000	UP BR	5000	2400	0	0	0
2019/03/10 16:00:00	BASE	5.98	109	7.25	118	2.0	100	2.0	191	0	980.9	NA	0.0000	UP BR	5000	3250	0	0	0
2019/03/10 16:01:00	BASE	6.26	111	7.25	118	2.0	100	2.0	190	0	980.9	NA	0.0000	UP BR	5000	3020	0	0	0
2019/03/10 16:02:00	BASE	6.40	112	7.25	118	2.1	100	2.1	190	0	980.9	NA	0.0000	UP BR	5000	0	0	0	3740
2019/03/10 16:03:00	BASE	6.54	115	7.25	116	2.1	100	2.1	189	0	980.9	NA	0.0000	UP BR	5000	0	0	0	3870
2019/03/10 16:04:00	BASE	6.81	115	7.25	116	2.1	100	2.1	188	0	980.9	NA	0.0000	UP BR	5000	2530	3410	0	0
2019/03/10 16:05:00	BASE	6.94	116	7.36	119	2.1	100	2.1	187	0	980.9	NA	0.0000	UP BR	5000	3970	0	0	0
2019/03/10 16:06:00	BASE	7.02	117	7.36	119	2.1	100	2.1	188	0	980.9	NA	0.0000	UP BR	5000	3940	0	0	0
2019/03/10 16:07:00	BASE	7.11	118	7.61	121	2.1	100	2.1	188	0	980.8	NA	0.0000	UP BR	5000	3870	0	0	0
2019/03/10 16:08:00	BASE	7.14	121	7.61	121	2.1	100	2.1	188	0	980.8	NA	0.0000	UP BR	5000	3410	3870	0	0
2019/03/10 16:09:00	BASE	6.79	122	7.61	121	2.1	100	2.1	188	0	980.8	NA	0.0000	UP BR	5000	3410	3940	0	0
2019/03/10 16:10:00	BASE	6.12	124	7.61	121	2.0	100	2.0	188	0	980.8	NA	0.0000	UP BR	7000	3450	3940	0	0
2019/03/10 16:11:00	BASE	5.17	126	7.61	121	2.0	100	2.0	189	0	980.8	NA	0.0000	UP BR	9000	2530	0	0	0
2019/03/10 16:12:00	BASE	4.91	128	7.61	121	2.0	100	2.0	189	0	980.8	NA	0.0000	UP BR	9000	2620	3120	0	0
2019/03/10 16:13:00	BASE	4.74	131	7.61	121	2.0	100	2.0	189	0	980.8	NA	0.0000	UP BR	9000	2490	3120	0	0
2019/03/10 16:14:00	BASE	4.58	132	7.61	121	1.9	100	1.9	188	0	980.8	NA	0.0000	UP BR	9000	2400	3220	0	0
2019/03/10 16:15:00	BASE	4.74	131	7.61	121	1.9	100	1.9	188	0	980.8	NA	0.0000	UP BR	9000	2360	3380	0	0
2019/03/10 16:16:00	BASE	5.14	130	7.61	121	1.8	100	1.8	187	0	980.7	NA	0.0000	UP BR	9000	2660	3480	0	0
2019/03/10 16:17:00	BASE	5.57	129	7.25	124	1.7	100	1.7	188	0	980.7	NA	0.0000	UP BR	9000	2530	0	0	0
2019/03/10 16:18:00	BASE	5.76	130	7.25	124	1.6	100	1.6	189	0	980.7	NA	0.0000	UP BR	9000	2490	0	0	0
2019/03/10 16:19:00	BASE	5.81	132	6.53	134	1.5	100	1.5	190	0	980.7	NA	0.0000	UP BR	9000	2460	0	0	0
2019/03/10 16:20:00	BASE	6.03	132	6.74	130	1.4	100	1.4	191	0	980.7	NA	0.0000	UP BR	9999	2400	0	0	0
2019/03/10 16:21:00	BASE	6.07	130	6.74	130	1.4	100	1.4	191	0	980.7	NA	0.0000	UP BR	9999	2360	0	0	0
2019/03/10 16:22:00	BASE	5.81	128	6.74	130	1.3	100	1.3	191	0	980.6	NA	0.0000	UP BR	9999	3150	0	0	0
2019/03/10 16:23:00	BASE	5.72	127	6.74	130	1.3	100	1.3	190	0	980.6	NA	0.0000	UP BR	9999	2890	0	0	0
2019/03/10 16:24:00	BASE	5.55	127	6.74	130	1.3	100	1.3	190	0	980.6	NA	0.0000	UP BR	9999	2330	2990	0	0
2019/03/10 16:25:00	BASE	5.92	123	6.94	125	1.3	100	1.3	189	0	980.6	NA	0.0000	UP BR	9999	3020	0	0	0
2019/03/10 16:26:00	BASE	6.13	123	6.94	125	1.3	100	1.3	189	0	980.6	NA	0.0000	UP BR	9999	3020	0	0	0
2019/03/10 16:27:00	BASE	5.79	125	6.94	125	1.3	100	1.3	189	0	980.6	NA	0.0000	UP	9999	2990	4990	0	0
2019/03/10 16:28:00	BASE	5.77	129	6.94	125	1.3	100	1.3	189	0	980.6	NA	0.0000	UP	9000	2950	4990	0	0
2019/03/10 16:29:00	BASE	5.75	132	6.94	125	1.3	100	1.3	189	0	980.6	NA	0.0000	UP	9000	2950	4950	0	0
2019/03/10 16:30:00	BASE	5.61	131	6.94	125	1.3	100	1.3	189	0	980.6	NA	0.0000	UP BR	9000	2950	0	0	0
2019/03/10 16:31:00	BASE	5.67	130	6.94	125	1.2	100	1.2	189	0	980.6	NA	0.0000	UP BR	9000	2660	0	0	0
2019/03/10 16:32:00	BASE	5.93	128	7.10	116	1.2	100	1.2	190	0	980.6	NA	0.0000	UP BR	9000	2530	23920	0	0
2019/03/10 16:33:00	BASE	6.42	127	7.10	130	1.2	100	1.2	192	0	980.5	NA	0.0000	UP BR	9000	2990	0	0	0
2019/03/10 16:34:00	BASE	6.76	124	7.15	122	1.2	100	1.2	194	0	980.5	NA	0.0000	UP BR	9999	2990	0	0	0
2019/03/10 16:35:00	BASE	6.97	122	7.56	121	1.2	100	1.2	197	0	980.4	NA	0.0000	UP BR	9999	2950	0	0	0
2019/03/10 16:36:00	BASE	6.45	125	7.56	121	1.2	100	1.2	199	0	980.4	NA	0.0000	UP	9999	3020	0	0	0
2019/03/10 16:37:00	BASE	5.94	126	7.56	121	1.2	100	1.2	202	0	980.4	NA	0.0000	UP	9999	2990	0	0	0
2019/03/10 16:38:00	BASE	6.05	123	7.56	121	1.2	100	1.2	204	0	980.4	NA	0.0000		9999	2990	0	0	0
2019/03/10 16:39:00	BASE	6.21	121	7.56	121	1.2	100	1.2	205	0	980.4	NA	0.0000		9999	3020	0	0	0
2019/03/10 16:40:00	BASE	6.19	122	7.56	121	1.3	100	1.3	206	0	980.4	NA	0.0000		9999	2990	0	0	0
2019/03/10 16:41:00	BASE	5.70	120	7.56	121	1.4	100	1.4	206	0	980.4	NA	0.0000		9999	2990	0	0	0
2019/03/10 16:42:00	BASE	5.27	117	7.56	121	1.5	100	1.5	205	0	980.4	NA	0.0000		9999	2950	0	0	0
2019/03/10 16:43:00	BASE	5.04	117	7.56	121	1.6	100	1.6	206	0	980.4	NA	0.0000		9999	3050	0	0	0
2019/03/10 16:44:00	BASE	4.79	114	7.56	121	1.7	100	1.7	207	0	980.4	NA	0.0000		9999	3020	0	0	0
2019/03/10 16:45:00	BASE	4.45	111	6.84	122	1.8	100	1.8	210	0	980.4	NA	0.0000		9999	3020	0	0	0
2019/03/10 16:46:00	BASE	2.74	101	6.84	122	1.9	100	1.9	213	0	980.4	NA	0.0000		9999	3050	0	0	0
2019/03/10 16:47:00	BASE	0.86	67	6.84	122	1.9	100	1.9	215	0	980.4	NA	0.0000		9999	3020	0	0	0
2019/03/10 16:48:00	BASE	0.85	12	6.84	122	1.9	100	1.9	215	0	980.4	NA	0.0000		9999	3020	0	0	0
2019/03/10 16:49:00	BASE	0.66	351	6.58	125	1.9	100	1.9	215	0	980.4	NA	0.0000		9999	3020	0	0	0
2019/03/10 16:50:00	BASE	0.67	352	6.48	118	1.8	100	1.8	214	0	980.4	NA	0.0000		9999	3080	20440	21200	0
2019/03/10 16:51:00	BASE	1.30	346	6.48	118	1.7	100	1.7	215	0	980.4	NA	0.0000		9999	3120	0	0	0
2019/03/10 16:52:00	BASE	1.11	334	5.61	107	1.6	100	1.6	218	0	980.3	NA	0.0000		9999	3150	0	0	0
2019/03/10 16:53:00	BASE	0.94	314	5.61	107	1.6	100	1.6	222	0	980.3	NA	0.0000		9999	3220	0	0	0
2019/03/10 16:54:00	BASE	1.47	311	4.89	116	1.6	100	1.6	229	0	980.3	NA	0.0000		9999	3250	0	0	0
2019/03/10 16:55:00	BASE	2.18	315	2.88	113	1.6	100	1.6	237	0	980.3	NA	0.0000		9999	3250	0	0	0
2019/03/10 16:56:01	BASE	2.59	319	3.04	323	1.7	100	1.7	245	0	980.3	NA	0.0000		9999	3310	0	0	0
2019/03/10 16:57:00	BASE	2.54	338	3.04	323	1.7	100	1.7	253	0	980.3	NA	0.0000		9999	4130	0	0	0
2019/03/10 16:58:01	BASE	2.28	324	3.04	323	1.6	100	1.6	259	0	980.2	NA	0.0000		9999	3350	0	0	0
2019/03/10 16:59:00	BASE	1.64	298	3.04	323	1.6	100	1.6	264	0	980.2	NA	0.0000		9999	3350	0	0	0
2019/03/10 17:00:00	BASE	0.95	299	3.04	323	1.6	100	1.6	265	0	980.2	NA	0.0000		9999	3350	0	0	0
2019/03/10 17:01:00	BASE	0.76	304	3.04	323	1.6	100	1.6	263	0	980.2	NA	0.0000		9999	3380	0	0	0
2019/03/10 17:02:00	BASE	0.96	319	3.04	323	1.6	100	1.6	259	0	980.2	NA	0.0000		9999	3250	0	0	0
2019/03/10 17:03:00	BASE	1.34	324	3.04	323	1.6	100	1.6	253	0	980.2	NA	0.0000		9999	3380	0	0	0
2019/03/10 17:04:00	BASE	1.26	319	3.04	323	1.6	100	1.6	248	0	980.2	NA	0.0000		9999	3380	0	0	0
2019/03/10 17:05:00	BASE	0.77	313	3.04	323	1.6	100	1.6	242	0	980.2	NA	0.0000		9999	3410	0	0	0
2019/03/10 17:06:01	BASE	0.77	325	2.78	340	1.6	100	1.6	237	0	980.2	NA	0.0000		9999	3380	0	0	0
2019/03/10 17:07:00	BASE	0.57	351	2.52	327	1.6	100	1.6	233	0	980.2	NA	0.0000		9999	4200	0	0	0
2019/03/10 17:08:00	BASE	0.00	341	2.16	293	1.6	100	1.6	233	0	980.2	NA	0.0000		9999	4130	0	0	0
2019/03/10 17:09:00	BASE	0.22	321	2.01	340	1.6	100	1.6	237	0	980.2	NA	0.0000		9999	4070	0	0	0
2019/03/10 17:10:00	BASE	0.68	328	2.01	340	1.7	100	1.7	245	0	980.2	NA	0.0000		9999	3580	0	0	0
2019/03/10 17:11:00	BASE	0.46	344	2.01	340	1.7	100	1.7	256	0	980.2	NA	0.0000		9999	3540	0	0	0
2019/03/10 17:12:00	BASE	0.00	3	2.01	340	1.7	100	1.7	274	0	980.1	NA	0.0000		9999	3610	0	0	0
2019/03/10 17:13:00	BASE	0.00	13	2.01	340	1.7	100	1.7	284	0	980.1	NA	0.0000		9999	3510	0	0	0
2019/03/10 17:14:00	BASE	0.00	7	1.85	334	1.8	100	1.8	292	0	980.1	NA	0.0000		9999	3670	0	0	0
2019/03/10 17:15:00	BASE	0.34	355	1.85	334	1.8	100	1.8	299	0	980.1	NA	0.0000		9999	3670	0	0	0
2019/03/10 17:16:00	BASE	1.36	346	2.37	329	1.8	100	1.8	291	0	980.1	NA	0.0000		9999	3610	0	0	0
2019/03/10 17:17:00	BASE	2.36	333	2.83	325	1.9	100	1.9	279	0	980.1	NA	0.0000		9999	3510	0	0	0
2019/03/10 17:18:00	BASE	2.60	327	3.09	341	1.9	100	1.9	264	0	980.1	NA	0.0000		9999	3450	0	0	0
2019/03/10 17:19:00	BASE	2.11	326	3.09	341	1.8	100	1.8	250	0	980.1	NA	0.0000		9999	7710	20800	0	0
2019/03/10 17:20:00	BASE	1.51	321	3.09	341	1.7	100	1.7	235	0	980.1	NA	0.0000		9999	7680	20080	0	0
2019/03/10 17:21:00	BASE	1.75	315	3.09	341	1.6	100	1.6	222	0	980.1	NA	0.0000		9999	3450	0	0	0
2019/03/10 17:22:00	BASE	2.94	320	4.12	320	1.6	100	1.6	210	0	980.1	NA	0.0000		9999	3610	0	0	0
2019/03/10 17:23:00	BASE	3.45	325	4.12	320	1.6	100	1.6	200	0	980.2	NA	0.0000		9999	3610	0	0	0
2019/03/10 17:24:00	BASE	3.53	324	4.27	324	1.6	100	1.6	191	0	980.1	NA	0.0000		9999	3180	0	0	0
2019/03/10 17:25:00	BASE	3.96	322	4.27	324	1.6	100	1.6	183	0	980.1	NA	0.0000		9999	3180	0	0	0
2019/03/10 17:26:00	BASE	3.85	320	4.27	324	1.6	100	1.6	179	0	980.1	NA	0.0000		9999	3120	0	0	0
2019/03/10 17:27:00	BASE	3.69	319	4.27	324	1.5	100	1.5	176	0	980.1	NA	0.0000		9999	3050	0	0	0
2019/03/10 17:28:00	BASE	3.54	317	4.27	324	1.4	100	1.4	174	0	980.1	NA	0.0000		9999	3120	0	0	0
2019/03/10 17:29:00	BASE	3.22	312	4.27	324	1.4	100	1.4	174	0	980.1	NA	0.0000		9999	3180	0	0	0
2019/03/10 17:30:00	BASE	3.08	314	4.27	324	1.4	100	1.4	174	0	980.1	NA	0.0000		9999	3080	0	0	0
2019/03/10 17:31:00	BASE	2.89	318	4.27	324	1.4	100	1.4	174	0	980.1	NA	0.0000		9999	3080	3670	0	0
2019/03/10 17:32:00	BASE	2.96	325	4.27	324	1.4	100	1.4	173	0	980.1	NA	0.0000		9999	3080	3710	0	0
2019/03/10 17:33:00	BASE	3.55	333	4.37	338	1.4	100	1.4	171	0	980.1	NA	0.0000		9999	3080	3710	0	0
2019/03/10 17:34:00	BASE	4.18	336	5.35	335	1.4	100	1.4	169	0	980.1	NA	0.0000		9999	2990	3710	0	0
2019/03/10 17:35:00	BASE	4.77	336	5.35	337	1.4	100	1.4	167	0	980.1	NA	0.0000		9999	2990	3740	0	0
2019/03/10 17:36:00	BASE	5.14	338	5.56	339	1.4	100	1.4	167	0	980.1	NA	0.0000		9999	3020	3710	0	0
2019/03/10 17:37:00	BASE	4.87	341	5.56	339	1.4	100	1.4	166	0	980.2	NA	0.0000		9999	3020	3710	0	0
2019/03/10 17:38:00	BASE	4.77	343	5.56	339	1.5	100	1.5	167	0	980.1	NA	0.0000		9999	3050	3710	0	0
2019/03/10 17:39:00	BASE	5.08	342	5.56	339	1.4	100	1.4	167	0	980.1	NA	0.0000		9999	2990	0	0	0
2019/03/10 17:40:00	BASE	4.93	341	5.56	339	1.4	100	1.4	167	0	980.1	NA	0.0000		9999	2950	0	0	0
2019/03/10 17:41:00	BASE	4.44	339	5.56	339	1.4	100	1.4	168	0	980.1	NA	0.0000		9999	3710	0	0	0
2019/03/10 17:42:00	BASE	4.02	341	5.56	339	1.4	100	1.4	168	0	980.1	NA	0.0000		9999	3710	0	0	0
2019/03/10 17:43:00	BASE	4.53	342	5.56	339	1.4	100	1.4	168	0	980.1	NA	0.0000		9999	3710	0	0	0
2019/03/10 17:44:00	BASE	5.18	342	5.71	344	1.4	100	1.4	168	0	980.1	NA	0.0000		9999	3740	0	0	0
2019/03/10 17:45:00	BASE	5.39	344	6.02	346	1.4	100	1.4	168	0	980.1	NA	0.0000		9999	3770	0	0	0
2019/03/10 17:46:00	BASE	5.66	343	6.22	341	1.4	100	1.4	168	0	980.1	NA	0.0000		9999	0	0	0	5020
2019/03/10 17:47:00	BASE	5.81	341	6.22	341	1.4	100	1.4	168	0	980.1	NA	0.0000		9999	0	0	0	5050
2019/03/10 17:48:01	BASE	6.10	341	6.94	343	1.5	100	1.5	167	0	980.1	NA	0.0000		9999	0	0	0	5090
2019/03/10 17:49:00	BASE	6.76	343	7.72	343	1.5	100	1.5	167	0	980.0	NA	0.0000		9999	0	0	0	4070
2019/03/10 17:50:00	BASE	6.83	345	7.72	343	1.4	100	1.4	168	0	980.0	NA	0.0000		9999	0	0	0	4360
2019/03/10 17:51:00	BASE	6.33	348	7.72	343	1.4	100	1.4	168	0	980.1	NA	0.0000		9999	0	0	0	5350
2019/03/10 17:52:00	BASE	6.50	347	7.72	343	1.3	100	1.3	169	0	980.1	NA	0.0000		9999	0	0	0	4170
2019/03/10 17:53:00	BASE	6.82	345	7.72	343	1.2	100	1.2	171	0	980.1	NA	0.0000		9999	0	0	0	4070
2019/03/10 17:54:00	BASE	6.51	345	7.72	343	1.1	100	1.1	173	0	980.0	NA	0.0000		9000	0	0	0	3710
2019/03/10 17:55:00	BASE	6.32	343	7.72	343	1.1	100	1.1	175	0	980.0	NA	0.0000		9000	0	0	0	3770
2019/03/10 17:56:00	BASE	6.11	342	7.72	343	1.1	100	1.1	177	0	980.0	NA	0.0000	BR	9000	0	0	0	3940
2019/03/10 17:57:00	BASE	5.25	346	7.72	343	1.2	100	1.2	179	0	979.9	NA	0.0000	BR	9000	0	0	0	3870
2019/03/10 17:58:00	BASE	5.15	346	7.72	343	1.1	100	1.1	180	0	979.9	NA	0.0000	BR	9000	0	0	0	5450
2019/03/10 17:59:00	BASE	5.74	344	7.36	344	1.2	100	1.2	180	0	979.9	NA	0.0000	BR	9000	0	0	0	3610
2019/03/10 18:00:00	BASE	6.13	343	7.36	344	1.2	100	1.2	180	0	979.9	NA	0.0000	BR	9000	5090	0	0	0
2019/03/10 18:01:00	BASE	5.99	340	7.36	344	1.2	100	1.2	180	0	979.9	NA	0.0000	BR	9000	0	0	0	4040
2019/03/10 18:02:00	BASE	5.29	339	7.05	347	1.3	100	1.3	180	0	979.9	NA	0.0000	BR	9000	5050	0	0	0
2019/03/10 18:03:00	BASE	5.34	336	6.84	338	1.3	100	1.3	180	0	979.9	NA	0.0000	BR	9999	0	0	0	4230
2019/03/10 18:04:00	BASE	5.59	334	6.84	338	1.3	100	1.3	181	0	979.9	NA	0.0000	BR	9999	0	0	0	5380
2019/03/10 18:05:00	BASE	5.27	334	6.84	338	1.4	100	1.4	182	0	979.9	NA	0.0000	BR	9999	0	0	0	5320
2019/03/10 18:06:00	BASE	5.00	333	6.84	338	1.4	100	1.4	182	0	979.9	NA	0.0000	BR	9999	0	0	0	5640
2019/03/10 18:07:00	BASE	4.73	334	6.84	338	1.3	100	1.3	182	0	979.9	NA	0.0000		9999	0	0	0	5610
2019/03/10 18:08:00	BASE	4.31	334	6.84	338	1.2	100	1.2	181	0	979.9	NA	0.0000		9999	0	0	0	5970
2019/03/10 18:09:00	BASE	4.11	333	6.84	338	1.2	100	1.2	179	0	979.9	NA	0.0000		9999	0	0	0	5940
2019/03/10 18:10:00	BASE	3.77	331	6.28	340	1.2	100	1.2	178	0	979.9	NA	0.0000	UP	9999	0	0	0	6000
2019/03/10 18:11:00	BASE	3.52	331	6.17	331	1.2	100	1.2	177	0	979.9	NA	0.0000	UP	9999	300	0	0	0
2019/03/10 18:12:00	BASE	4.19	331	6.17	331	1.2	100	1.2	175	0	979.9	NA	0.0000	UP	9999	0	0	0	5380
2019/03/10 18:13:00	BASE	4.72	330	6.07	334	1.3	100	1.3	172	0	979.9	NA	0.0000	UP	9999	0	0	0	5910
2019/03/10 18:14:00	BASE	4.73	331	5.50	334	1.4	100	1.4	170	0	979.9	NA	0.0000	UP	9999	0	0	0	5320
2019/03/10 18:15:00	BASE	4.78	331	5.25	331	1.4	100	1.4	167	0	979.9	NA	0.0000	UP	9999	0	0	0	5710
2019/03/10 18:16:00	BASE	4.80	330	5.25	331	1.4	100	1.4	164	0	979.9	NA	0.0000	UP	9999	0	0	0	5580
2019/03/10 18:17:00	BASE	4.87	330	5.25	331	1.4	100	1.4	160	0	979.9	NA	0.0000	UP	9999	0	0	0	6530
2019/03/10 18:18:00	BASE	5.04	329	5.71	332	1.4	100	1.4	157	0	979.9	NA	0.0000	UP	9999	0	0	0	4820
2019/03/10 18:19:00	BASE	5.22	332	5.71	329	1.4	100	1.4	154	0	979.9	NA	0.0000	UP	9999	7190	0	0	0
2019/03/10 18:20:00	BASE	5.38	332	6.02	332	1.4	100	1.4	151	0	979.9	NA	0.0000		9999	7220	0	0	0
2019/03/10 18:21:00	BASE	5.46	333	6.02	332	1.4	100	1.4	149	0	979.9	NA	0.0000		9999	0	0	0	5250
2019/03/10 18:22:00	BASE	5.52	333	6.02	331	1.4	100	1.4	146	0	979.8	NA	0.0000		9999	7250	0	0	0
2019/03/10 18:23:00	BASE	5.65	333	6.22	333	1.3	100	1.3	143	0	979.8	NA	0.0000		9999	7250	0	0	0
2019/03/10 18:24:00	BASE	5.90	332	6.38	336	1.2	100	1.2	139	0	979.8	NA	0.0000		9999	7250	0	0	0
2019/03/10 18:25:00	BASE	6.06	330	6.38	326	1.3	100	1.3	135	0	979.8	NA	0.0000		9999	7250	0	0	0
2019/03/10 18:26:00	BASE	5.81	331	6.38	326	1.3	100	1.3	130	0	979.8	NA	0.0000		9999	7250	0	0	0
2019/03/10 18:27:00	BASE	5.34	332	6.38	326	1.3	100	1.3	126	0	979.8	NA	0.0000		9999	0	0	0	6040
2019/03/10 18:28:00	BASE	5.43	329	6.38	326	1.3	100	1.3	122	0	979.9	NA	0.0000		9999	0	0	0	6100
2019/03/10 18:29:00	BASE	5.71	330	6.38	326	1.4	100	1.4	119	0	979.9	NA	0.0000		9999	7280	0	0	0
2019/03/10 18:30:00	BASE	5.65	330	6.38	326	1.3	100	1.3	116	0	979.9	NA	0.0000		9999	7250	0	0	0
2019/03/10 18:31:00	BASE	5.48	333	6.38	326	1.3	100	1.3	114	0	979.9	NA	0.0000		9999	330	0	0	0
2019/03/10 18:32:00	BASE	5.43	338	6.38	326	1.3	100	1.3	115	0	979.9	NA	0.0000		9999	260	0	0	0
2019/03/10 18:33:00	BASE	5.60	338	6.38	326	1.2	100	1.2	115	0	979.9	NA	0.0000		9999	330	0	0	0
2019/03/10 18:34:00	BASE	5.56	337	6.38	326	1.2	100	1.2	114	0	979.9	NA	0.0000		9999	7220	0	0	0
2019/03/10 18:35:00	BASE	5.55	334	6.22	329	1.2	100	1.2	114	0	979.9	NA	0.0000		9999	330	7190	0	0
2019/03/10 18:36:00	BASE	5.49	333	6.22	329	1.2	100	1.2	113	0	979.9	NA	0.0000		9999	7220	0	0	0
2019/03/10 18:37:00	BASE	5.28	336	6.22	329	1.2	100	1.2	113	0	979.8	NA	0.0000		9999	7220	0	0	0
2019/03/10 18:38:00	BASE	5.08	335	6.17	339	1.2	100	1.2	111	0	979.9	NA	0.0000		9999	7320	0	0	0
2019/03/10 18:39:00	BASE	4.89	335	6.17	339	1.2	100	1.2	108	0	979.8	NA	0.0000		9999	7280	0	0	0
2019/03/10 18:40:00	BASE	4.62	332	6.17	339	1.1	100	1.1	106	0	979.8	NA	0.0000		9999	300	0	0	0
2019/03/10 18:41:00	BASE	4.13	328	6.17	339	1.1	100	1.1	103	0	979.9	NA	0.0000		9999	300	0	0	0
2019/03/10 18:42:00	BASE	3.77	328	5.97	337	1.2	100	1.2	104	0	979.9	NA	0.0000		9999	300	0	0	0
2019/03/10 18:43:00	BASE	3.83	329	5.97	337	1.1	100	1.1	103	0	979.9	NA	0.0000		9999	330	0	0	0
2019/03/10 18:44:00	BASE	4.16	328	5.97	337	1.1	100	1.1	103	0	979.9	NA	0.0000		9999	300	0	0	0
2019/03/10 18:45:00	BASE	4.33	324	5.97	337	1.1	100	1.1	102	0	979.9	NA	0.0000		9999	300	0	0	0
2019/03/10 18:46:00	BASE	4.32	319	5.56	327	1.1	100	1.1	101	0	979.9	NA	0.0000		9999	330	0	0	0
2019/03/10 18:47:00	BASE	4.24	316	5.56	327	1.0	100	1.0	102	0	979.8	NA	0.0000		9999	360	0	0	0
2019/03/10 18:48:00	BASE	4.00	316	5.35	337	1.0	100	1.0	102	0	979.8	NA	0.0000		9999	360	0	0	0
2019/03/10 18:49:00	BASE	3.77	316	4.78	319	1.0	100	1.0	101	0	979.8	NA	0.0000		9999	330	0	0	0
2019/03/10 18:50:00	BASE	3.85	317	4.78	319	1.0	100	1.0	99	0	979.8	NA	0.0000		9999	330	0	0	0
2019/03/10 18:51:01	BASE	3.99	317	4.78	319	0.9	100	0.9	97	0	979.8	NA	0.0000	UP	9999	390	0	0	0
2019/03/10 18:52:00	BASE	4.09	319	4.78	319	0.9	100	0.9	96	0	979.8	NA	0.0000	UP	9999	390	0	0	0
2019/03/10 18:53:00	BASE	4.23	318	4.78	319	0.9	100	0.9	96	0	979.8	NA	0.0000	UP	9999	390	0	0	0
2019/03/10 18:54:00	BASE	4.31	317	4.78	319	0.9	100	0.9	96	0	979.9	NA	0.0000	UP	9999	390	0	0	0
2019/03/10 18:55:00	BASE	4.32	317	4.73	316	0.9	100	0.9	95	0	979.9	NA	0.0000	UP	9999	390	0	0	0
2019/03/10 18:56:00	BASE	4.27	320	4.73	316	0.9	100	0.9	95	0	979.9	NA	0.0000	UP	9999	430	3740	0	0
2019/03/10 18:57:00	BASE	4.22	323	4.73	316	0.9	100	0.9	95	0	979.9	NA	0.0000	UP	9999	390	3770	0	0
2019/03/10 18:58:00	BASE	4.26	324	4.73	316	0.9	100	0.9	95	0	979.9	NA	0.0000	UP	9999	390	3810	0	0
2019/03/10 18:59:00	BASE	4.09	328	4.73	316	0.9	100	0.9	96	0	979.9	NA	0.0000	UP	9999	390	0	0	0
2019/03/10 19:00:00	BASE	4.00	331	4.73	316	0.9	100	0.9	97	0	979.9	NA	0.0000	UP	9999	390	0	0	0
2019/03/10 19:01:00	BASE	4.14	333	4.73	316	1.0	100	1.0	97	0	979.9	NA	0.0000	UP	9999	390	0	0	0
2019/03/10 19:02:00	BASE	4.12	336	4.73	316	1.0	100	1.0	98	0	979.9	NA	0.0000	UP	9999	390	20570	0	0
2019/03/10 19:03:00	BASE	4.07	337	4.68	315	1.0	100	1.0	99	0	979.9	NA	0.0000	UP	9999	390	0	0	0
2019/03/10 19:04:00	BASE	3.96	337	4.68	315	1.0	100	1.0	99	0	979.8	NA	0.0000	UP	9999	300	0	0	0
2019/03/10 19:05:00	BASE	3.85	343	4.58	319	1.0	100	1.0	101	0	979.8	NA	0.0000	UP	9999	300	0	0	0
2019/03/10 19:06:00	BASE	3.95	345	4.58	319	1.1	100	1.1	102	0	979.8	NA	0.0000	UP	9999	300	0	0	0
2019/03/10 19:07:00	BASE	3.95	343	4.53	322	1.0	100	1.0	104	0	979.8	NA	0.0000	UP	9999	0	0	0	4000
2019/03/10 19:08:00	BASE	3.78	342	4.48	337	1.0	100	1.0	106	0	979.8	NA	0.0000	UP	9999	360	0	0	0
2019/03/10 19:09:00	BASE	3.50	345	4.48	337	1.0	100	1.0	106	0	979.8	NA	0.0000	UP	9999	20930	0	0	0
2019/03/10 19:10:00	BASE	3.48	354	4.48	337	1.0	100	1.0	105	0	979.8	NA	0.0000	UP	9999	300	0	0	0
2019/03/10 19:11:00	BASE	3.76	357	4.48	337	0.9	100	0.9	105	0	979.8	NA	0.0000	UP BR	3300	300	0	0	0
2019/03/10 19:12:00	BASE	4.01	359	4.48	1	1.0	100	1.0	105	0	979.8	NA	0.0000	UP BR	2200	260	0	0	0
2019/03/10 19:13:00	BASE	4.01	0	4.48	1	1.0	100	1.0	104	0	979.8	NA	0.0000	-SN BR	3600	260	0	0	0
2019/03/10 19:14:00	BASE	3.93	1	4.48	1	0.9	100	0.9	103	0	979.8	NA	0.0000	-SN BR	6000	300	0	0	0
2019/03/10 19:15:00	BASE	3.87	2	4.48	1	0.9	100	0.9	101	0	979.8	NA	0.0000	-SN BR	5000	0	0	0	3810
2019/03/10 19:16:00	BASE	3.94	360	4.48	1	0.9	100	0.9	100	0	979.8	NA	0.0000	-SN BR	4500	0	0	0	3870
2019/03/10 19:17:00	BASE	4.06	2	4.48	1	0.9	100	0.9	98	0	979.8	NA	0.0000	-SN BR	6000	0	0	0	4270
2019/03/10 19:18:00	BASE	4.07	355	4.48	355	0.9	100	0.9	97	0	979.8	NA	0.0000	-SN BR	6000	0	0	0	4300
2019/03/10 19:19:00	BASE	4.30	351	4.53	354	0.9	100	0.9	97	0	979.8	NA	0.0000	-SN BR	8000	0	0	0	4130
2019/03/10 19:20:00	BASE	4.35	357	4.53	355	0.9	100	0.9	97	0	979.8	NA	0.0000	-SN BR	9999	5940	0	0	0
2019/03/10 19:21:00	BASE	4.41	350	4.78	351	0.9	100	0.9	97	0	979.8	NA	0.0000	-SN BR	9999	0	0	0	4130
2019/03/10 19:22:00	BASE	4.46	348	4.78	351	0.9	100	0.9	97	0	979.8	NA	0.0000	-SN BR	9999	5940	0	0	0
2019/03/10 19:23:00	BASE	4.31	352	4.78	351	0.9	100	0.9	99	0	979.8	NA	0.0000	-SN BR	9999	0	0	0	3810
2019/03/10 19:24:00	BASE	4.29	351	4.78	351	0.8	100	0.8	100	0	979.8	NA	0.0000	-SN BR	9999	6100	0	0	0
2019/03/10 19:25:00	BASE	4.19	352	4.78	351	0.8	100	0.8	102	0	979.8	NA	0.0000	-SN BR	9999	6200	0	0	0
2019/03/10 19:26:00	BASE	4.04	357	4.78	351	0.8	100	0.8	103	0	979.8	NA	0.0000	-SN	9999	6230	0	0	0
2019/03/10 19:27:00	BASE	4.16	355	4.78	351	0.8	100	0.8	103	0	979.8	NA	0.0000	-SN	9999	6270	0	0	0
2019/03/10 19:28:00	BASE	4.31	350	4.78	351	0.8	100	0.8	103	0	979.8	NA	0.0000	-SN	9999	6270	0	0	0
2019/03/10 19:29:00	BASE	4.44	351	5.09	349	0.9	100	0.9	103	0	979.7	NA	0.0000	-SN	9999	6270	0	0	0
2019/03/10 19:30:00	BASE	4.86	351	5.35	347	0.9	100	0.9	102	0	979.7	NA	0.0000	-SN	9999	6170	0	0	0
2019/03/10 19:31:00	BASE	5.10	350	5.40	351	0.8	100	0.8	102	0	979.7	NA	0.0000	-SN	9999	6140	0	0	0
2019/03/10 19:32:00	BASE	5.05	349	5.40	351	0.9	100	0.9	102	0	979.7	NA	0.0000	-SN	9999	6100	0	0	0
2019/03/10 19:33:00	BASE	4.88	349	5.40	351	0.8	100	0.8	101	0	979.7	NA	0.0000	-SN	9999	6070	0	0	0
2019/03/10 19:34:00	BASE	4.63	349	5.40	351	0.8	100	0.8	101	0	979.7	NA	0.0000		9999	6100	0	0	0
2019/03/10 19:35:00	BASE	4.56	349	5.40	351	0.8	100	0.8	100	0	979.7	NA	0.0000		9999	6170	0	0	0
2019/03/10 19:36:00	BASE	4.76	348	5.40	351	0.8	100	0.8	99	0	979.6	NA	0.0000		9999	6230	0	0	0
2019/03/10 19:37:00	BASE	4.83	347	5.40	351	0.8	100	0.8	98	0	979.7	NA	0.0000		9999	6230	0	0	0
2019/03/10 19:38:00	BASE	4.73	347	5.40	351	0.8	100	0.8	98	0	979.7	NA	0.0000		9999	6140	0	0	0
2019/03/10 19:39:00	BASE	4.77	346	5.40	351	0.8	100	0.8	98	0	979.7	NA	0.0000		9999	6070	0	0	0
2019/03/10 19:40:00	BASE	4.78	345	5.40	351	0.8	100	0.8	99	0	979.6	NA	0.0000		9999	6040	0	0	0
2019/03/10 19:41:00	BASE	4.41	345	5.35	342	0.8	100	0.8	100	0	979.6	NA	0.0000		9999	6000	0	0	0
2019/03/10 19:42:00	BASE	3.83	347	5.04	342	0.9	100	0.9	101	0	979.6	NA	0.0000		9999	6070	0	0	0
2019/03/10 19:43:00	BASE	3.76	348	5.04	342	0.9	100	0.9	102	0	979.6	NA	0.0000		9999	6070	0	0	0
2019/03/10 19:44:00	BASE	3.78	348	5.04	342	0.9	100	0.9	104	0	979.6	NA	0.0000		9999	6000	0	0	0
2019/03/10 19:45:00	BASE	3.47	345	5.04	342	1.0	100	1.0	105	0	979.6	NA	0.0000		9999	6040	0	0	0
2019/03/10 19:46:00	BASE	3.23	340	5.04	342	1.0	100	1.0	106	0	979.6	NA	0.0000		9999	6000	0	0	0
2019/03/10 19:47:23	BASE	3.44	342	5.04	342	1.0	100	1.0	107	0	979.6	NA	0.0000		9999	6070	0	0	0
2019/03/10 19:48:00	BASE	3.67	342	5.04	342	1.0	100	1.0	109	0	979.6	NA	0.0000		9999	6000	0	0	0
2019/03/10 19:49:00	BASE	3.90	342	5.04	342	1.0	100	1.0	110	0	979.5	NA	0.0000		9999	6070	0	0	0
2019/03/10 19:50:00	BASE	4.14	340	4.73	335	1.0	100	1.0	111	0	979.5	NA	0.0000		9999	6070	0	0	0
2019/03/10 19:51:00	BASE	4.31	340	4.73	335	1.0	100	1.0	111	0	979.5	NA	0.0000		9999	5970	0	0	0
2019/03/10 19:52:00	BASE	4.27	341	4.73	335	1.0	100	1.0	111	0	979.5	NA	0.0000		9999	6100	0	0	0
2019/03/10 19:53:00	BASE	4.16	342	4.73	335	1.0	100	1.0	112	0	979.5	NA	0.0000		9999	6040	0	0	0
2019/03/10 19:54:00	BASE	4.18	342	4.73	335	1.0	100	1.0	113	0	979.5	NA	0.0000		9999	6000	0	0	0
2019/03/10 19:55:00	BASE	4.50	342	5.20	341	1.1	100	1.1	114	0	979.5	NA	0.0000		9999	5970	0	0	0
2019/03/10 19:56:00	BASE	5.02	343	5.61	344	1.1	100	1.1	115	0	979.4	NA	0.0000		9999	6000	0	0	0
2019/03/10 19:57:00	BASE	5.39	346	5.76	348	1.1	100	1.1	117	0	979.3	NA	0.0000		9999	6170	0	0	0
2019/03/10 19:58:00	BASE	5.61	347	5.97	347	1.0	100	1.0	119	0	979.3	NA	0.0000		9999	6100	0	0	0
2019/03/10 19:59:00	BASE	5.56	346	5.97	347	1.0	100	1.0	120	0	979.3	NA	0.0000		9999	6100	0	0	0
2019/03/10 20:00:00	BASE	5.20	345	5.97	347	1.0	100	1.0	122	0	979.3	NA	0.0000		9999	6040	0	0	0
2019/03/10 20:01:00	BASE	4.42	343	5.97	347	1.0	100	1.0	122	0	979.3	NA	0.0000		9999	6100	8040	0	0
2019/03/10 20:02:00	BASE	4.46	341	5.97	347	1.0	100	1.0	122	0	979.2	NA	0.0000		9999	6100	8040	0	0
2019/03/10 20:03:00	BASE	4.94	342	5.97	347	1.0	100	1.0	122	0	979.2	NA	0.0000		9999	6100	8040	0	0
2019/03/10 20:04:00	BASE	4.70	345	5.97	347	1.0	100	1.0	121	0	979.2	NA	0.0000		9999	6100	7940	0	0
2019/03/10 20:05:00	BASE	4.68	348	5.97	347	1.0	100	1.0	120	0	979.2	NA	0.0000		9999	6100	7970	0	0
2019/03/10 20:06:00	BASE	4.67	350	5.97	347	0.9	100	0.9	118	0	979.2	NA	0.0000		9999	8040	0	0	0
2019/03/10 20:07:00	BASE	4.45	351	5.97	347	0.9	100	0.9	115	0	979.2	NA	0.0000		9999	7090	8040	0	0
2019/03/10 20:08:00	BASE	4.41	351	5.86	345	0.9	100	0.9	112	0	979.2	NA	0.0000		9999	7050	8010	0	0
2019/03/10 20:09:00	BASE	4.32	350	5.50	340	0.9	100	0.9	108	0	979.2	NA	0.0000		9999	7090	8040	0	0
2019/03/10 20:10:00	BASE	4.00	349	5.50	340	0.9	100	0.9	104	0	979.2	NA	0.0000		9999	7120	0	0	0
2019/03/10 20:11:00	BASE	3.93	352	5.50	340	0.9	100	0.9	99	0	979.2	NA	0.0000		9999	6070	0	0	0
2019/03/10 20:12:00	BASE	4.00	352	4.99	342	0.9	100	0.9	94	0	979.2	NA	0.0000		9999	5940	0	0	0
2019/03/10 20:13:00	BASE	3.97	350	4.89	352	0.9	100	0.9	89	0	979.2	NA	0.0000		9999	5970	0	0	0
2019/03/10 20:14:00	BASE	3.83	347	4.89	352	0.9	100	0.9	85	0	979.2	NA	0.0000		9999	5940	0	0	0
2019/03/10 20:15:00	BASE	3.58	346	4.78	347	0.9	100	0.9	81	0	979.2	NA	0.0000		9999	5870	0	0	0
2019/03/10 20:16:00	BASE	3.42	344	4.63	354	0.9	100	0.9	78	0	979.2	NA	0.0000		9999	5910	0	0	0
2019/03/10 20:17:00	BASE	3.37	339	4.63	354	1.0	100	1.0	76	0	979.2	NA	0.0000		9999	5910	0	0	0
2019/03/10 20:18:00	BASE	3.28	340	4.53	347	1.0	100	1.0	74	0	979.2	NA	0.0000		9999	5840	0	0	0
2019/03/10 20:19:00	BASE	3.29	341	4.22	354	1.0	100	1.0	73	0	979.2	NA	0.0000		9999	5840	7050	0	0
2019/03/10 20:20:00	BASE	3.50	340	4.22	354	1.0	100	1.0	73	0	979.2	NA	0.0000		9999	6760	0	0	0
2019/03/10 20:21:00	BASE	3.62	341	4.22	354	1.0	100	1.0	73	0	979.2	NA	0.0000		9999	6890	0	0	0
2019/03/10 20:22:00	BASE	3.43	342	4.22	354	1.0	100	1.0	73	0	979.1	NA	0.0000		9999	6000	7090	0	0
2019/03/10 20:23:00	BASE	3.29	342	4.01	339	1.1	100	1.1	74	0	979.1	NA	0.0000		9999	6070	7120	0	0
2019/03/10 20:24:00	BASE	3.60	338	4.17	336	1.0	100	1.0	74	0	979.1	NA	0.0000		9999	6100	0	0	0
2019/03/10 20:25:00	BASE	3.78	337	4.17	336	1.0	100	1.0	75	0	979.1	NA	0.0000		9999	6040	0	0	0
2019/03/10 20:26:00	BASE	3.48	339	4.17	336	1.0	100	1.0	75	0	979.1	NA	0.0000		9999	6040	0	0	0
2019/03/10 20:27:00	BASE	3.20	339	4.17	336	1.0	100	1.0	75	0	979.1	NA	0.0000		9999	6000	0	0	0
2019/03/10 20:28:00	BASE	3.23	335	4.17	336	1.0	100	1.0	75	0	979.1	NA	0.0000		9999	5940	0	0	0
2019/03/10 20:29:00	BASE	2.99	333	4.17	336	1.0	100	1.0	75	0	979.1	NA	0.0000		9999	5970	0	0	0
2019/03/10 20:30:00	BASE	2.56	335	4.17	336	1.0	100	1.0	74	0	979.1	NA	0.0000		9999	5970	6990	0	0
2019/03/10 20:31:00	BASE	2.70	337	4.17	336	1.0	100	1.0	73	0	979.1	NA	0.0000		9999	6000	7120	0	0
2019/03/10 20:32:00	BASE	2.73	337	4.17	336	1.0	100	1.0	72	0	979.1	NA	0.0000		9999	6000	7120	0	0
2019/03/10 20:33:00	BASE	2.52	335	4.17	336	1.0	100	1.0	70	0	979.1	NA	0.0000		9999	6000	7120	0	0
2019/03/10 20:34:00	BASE	2.45	331	3.86	339	1.0	100	1.0	69	0	979.1	NA	0.0000		9999	6000	0	0	0
2019/03/10 20:35:00	BASE	2.60	329	3.65	334	1.1	100	1.1	68	0	979.1	NA	0.0000		9999	5840	0	0	0
2019/03/10 20:36:00	BASE	2.96	328	3.76	331	1.1	100	1.1	66	0	979.1	NA	0.0000		9999	5770	0	0	0
2019/03/10 20:37:00	BASE	3.44	323	4.01	320	1.0	100	1.0	65	0	979.1	NA	0.0000		9999	5810	0	0	0
2019/03/10 20:38:00	BASE	3.79	322	4.12	324	1.0	100	1.0	64	0	979.1	NA	0.0000		9999	5810	7090	0	0
2019/03/10 20:39:00	BASE	3.91	323	4.12	322	0.9	100	0.9	63	0	979.0	NA	0.0000		9999	7190	0	0	0
2019/03/10 20:40:00	BASE	4.15	323	4.94	324	0.9	100	0.9	62	0	979.1	NA	0.0000		9999	7150	0	0	0
2019/03/10 20:41:00	BASE	4.59	325	5.09	329	0.8	100	0.8	60	0	979.0	NA	0.0000		9999	5870	7190	0	0
2019/03/10 20:42:00	BASE	5.08	323	5.56	320	0.8	100	0.8	59	0	979.0	NA	0.0000		9999	5910	0	0	0
2019/03/10 20:43:00	BASE	5.35	319	5.61	319	0.8	100	0.8	57	0	979.0	NA	0.0000		9999	5870	0	0	0
2019/03/10 20:44:00	BASE	5.31	319	5.61	317	0.8	100	0.8	56	0	979.0	NA	0.0000		9999	5910	0	0	0
2019/03/10 20:45:00	BASE	5.15	321	5.61	317	0.8	100	0.8	54	0	979.1	NA	0.0000		9999	5840	0	0	0
2019/03/10 20:46:00	BASE	5.08	325	5.61	317	0.7	100	0.7	53	0	979.0	NA	0.0000		9999	5810	0	0	0
2019/03/10 20:47:00	BASE	4.94	327	5.61	317	0.7	100	0.7	52	0	979.0	NA	0.0000		9999	5840	0	0	0
2019/03/10 20:48:00	BASE	4.50	327	5.61	317	0.8	100	0.8	51	0	979.0	NA	0.0000		9999	5810	0	0	0
2019/03/10 20:49:00	BASE	4.33	326	5.61	317	0.8	100	0.8	50	0	979.0	NA	0.0000		9999	5740	0	0	0
2019/03/10 20:50:00	BASE	4.44	327	5.61	317	0.8	100	0.8	49	0	979.0	NA	0.0000		9999	5680	0	0	0
2019/03/10 20:51:00	BASE	4.34	329	5.61	317	0.8	100	0.8	49	0	979.0	NA	0.0000		9999	5710	0	0	0
2019/03/10 20:52:00	BASE	4.27	329	5.61	317	0.8	100	0.8	48	0	979.0	NA	0.0000		9999	5710	0	0	0
2019/03/10 20:53:00	BASE	4.38	328	5.61	317	0.8	100	0.8	47	0	979.0	NA	0.0000		9999	5710	0	0	0
2019/03/10 20:54:00	BASE	4.38	331	5.30	325	0.9	100	0.9	47	0	979.0	NA	0.0000		9999	5840	6400	0	0
2019/03/10 20:55:00	BASE	4.25	335	5.20	329	0.9	100	0.9	47	0	979.0	NA	0.0000		9999	5840	6330	0	0
2019/03/10 20:56:00	BASE	4.17	336	5.14	326	0.9	100	0.9	46	0	979.0	NA	0.0000		9999	5970	0	0	0
2019/03/10 20:57:00	BASE	4.07	336	4.78	327	0.9	100	0.9	46	0	979.0	NA	0.0000		9999	6300	0	0	0
2019/03/10 20:58:00	BASE	4.05	334	4.78	327	1.0	100	1.0	46	0	979.0	NA	0.0000		9999	6370	0	0	0
2019/03/10 20:59:00	BASE	4.12	333	4.78	327	1.0	100	1.0	45	0	979.0	NA	0.0000		9999	6370	0	0	0
2019/03/10 21:00:00	BASE	4.16	335	4.58	338	1.0	100	1.0	45	0	979.0	NA	0.0000		9999	6430	0	0	0
2019/03/10 21:01:00	BASE	4.07	337	4.58	338	0.9	100	0.9	44	0	979.0	NA	0.0000		9999	6370	0	0	0
2019/03/10 21:02:00	BASE	3.88	338	4.58	338	0.9	100	0.9	44	0	979.0	NA	0.0000		9999	6400	0	0	0
2019/03/10 21:03:00	BASE	3.52	342	4.58	338	1.0	100	1.0	43	0	979.0	NA	0.0000		9999	6500	7090	0	0
2019/03/10 21:04:00	BASE	3.54	346	4.58	338	0.9	100	0.9	42	0	978.9	NA	0.0000		9999	6560	7090	0	0
2019/03/10 21:05:00	BASE	3.99	346	4.58	338	0.9	100	0.9	42	0	978.9	NA	0.0000		9999	6590	0	0	0
2019/03/10 21:06:00	BASE	4.32	346	4.73	348	0.8	100	0.8	41	0	979.0	NA	0.0000		9999	6560	0	0	0
2019/03/10 21:07:00	BASE	4.47	346	4.73	348	0.8	100	0.8	41	0	979.0	NA	0.0000		9999	6560	0	0	0
2019/03/10 21:08:00	BASE	4.60	347	4.89	348	0.7	100	0.7	40	0	979.0	NA	0.0000		9999	6560	0	0	0
2019/03/10 21:09:00	BASE	4.76	347	4.94	348	0.7	100	0.7	40	0	978.9	NA	0.0000		9999	6560	0	0	0
2019/03/10 21:10:00	BASE	4.67	345	4.94	348	0.7	100	0.7	39	0	978.9	NA	0.0000		9999	6530	0	0	0
2019/03/10 21:11:00	BASE	4.58	343	4.94	348	0.6	100	0.6	39	0	978.9	NA	0.0000		9999	6560	0	0	0
2019/03/10 21:12:00	BASE	4.52	342	4.94	348	0.6	100	0.6	39	0	978.9	NA	0.0000		9999	6530	7020	0	0
2019/03/10 21:13:00	BASE	4.32	341	4.94	348	0.7	100	0.7	39	0	978.9	NA	0.0000		9999	6460	7020	0	0
2019/03/10 21:14:00	BASE	4.16	341	4.94	348	0.7	100	0.7	40	0	978.9	NA	0.0000		9999	6500	7020	0	0
2019/03/10 21:15:00	BASE	4.06	340	4.94	348	0.7	100	0.7	40	0	978.9	NA	0.0000		9999	6460	7050	0	0
2019/03/10 21:16:00	BASE	4.04	338	4.94	348	0.7	100	0.7	40	0	978.9	NA	0.0000		9999	6400	7050	0	0
2019/03/10 21:17:00	BASE	3.93	338	4.94	348	0.7	100	0.7	40	0	978.9	NA	0.0000		9999	6960	8690	0	0
2019/03/10 21:18:00	BASE	3.63	337	4.94	348	0.7	100	0.7	39	0	978.9	NA	0.0000		9999	2690	6990	8660	0
2019/03/10 21:19:00	BASE	3.29	335	4.84	343	0.7	100	0.7	39	0	978.9	NA	0.0000		9999	2760	8690	0	0
2019/03/10 21:20:00	BASE	3.02	332	4.84	343	0.7	100	0.7	39	0	978.9	NA	0.0000		9999	2820	7050	8600	0
2019/03/10 21:21:00	BASE	2.88	330	4.78	343	0.8	100	0.8	38	0	978.9	NA	0.0000		9999	2790	7050	8630	0
2019/03/10 21:22:00	BASE	2.71	331	4.42	338	0.8	100	0.8	38	0	978.9	NA	0.0000		9999	2760	7090	8690	0
2019/03/10 21:23:00	BASE	2.25	331	4.22	339	0.8	100	0.8	37	0	978.9	NA	0.0000		9999	2790	7020	8630	0
2019/03/10 21:24:00	BASE	1.71	325	4.22	339	0.8	100	0.8	37	0	978.9	NA	0.0000		9999	2760	7050	8660	0
2019/03/10 21:25:00	BASE	1.52	320	4.22	339	0.8	100	0.8	36	0	978.9	NA	0.0000		9999	2760	7050	8630	0
2019/03/10 21:26:00	BASE	1.63	320	4.01	339	0.8	100	0.8	35	0	978.9	NA	0.0000		9999	2790	7090	8660	0
2019/03/10 21:27:00	BASE	1.87	323	3.65	339	0.8	100	0.8	35	0	978.9	NA	0.0000		9999	8600	0	0	0
2019/03/10 21:28:00	BASE	2.11	329	3.24	335	0.8	100	0.8	34	0	978.8	NA	0.0000		9999	8660	0	0	0
2019/03/10 21:29:00	BASE	2.08	337	3.09	331	0.8	100	0.8	33	0	978.8	NA	0.0000		9999	7250	8630	0	0
2019/03/10 21:30:00	BASE	1.84	346	2.98	329	0.8	100	0.8	32	0	978.8	NA	0.0000		9999	8630	0	0	0
2019/03/10 21:31:00	BASE	1.79	355	2.73	331	0.9	100	0.9	31	0	978.8	NA	0.0000		9999	8200	0	0	0
2019/03/10 21:32:00	BASE	1.59	5	2.52	328	0.9	100	0.9	31	0	978.7	NA	0.0000		9999	8300	8690	0	0
2019/03/10 21:33:00	BASE	0.66	14	2.52	328	0.9	100	0.9	30	0	978.7	NA	0.0000		9999	7380	0	0	0
2019/03/10 21:34:00	BASE	0.00	0	2.52	328	0.9	100	0.9	30	0	978.7	NA	0.0000		9999	7450	0	0	0
2019/03/10 21:35:00	BASE	0.00	324	2.52	328	0.9	100	0.9	29	0	978.7	NA	0.0000		9999	7510	0	0	0
2019/03/10 21:36:00	BASE	0.00	262	2.52	328	0.9	100	0.9	29	0	978.7	NA	0.0000		9999	8370	0	0	0
2019/03/10 21:37:00	BASE	0.09	196	2.42	328	0.9	100	0.9	29	0	978.7	NA	0.0000		9999	8600	0	0	0
2019/03/10 21:38:00	BASE	0.09	173	2.11	355	0.9	100	0.9	28	0	978.7	NA	0.0000		9999	8560	0	0	0
2019/03/10 21:39:00	BASE	0.00	181	2.06	348	0.9	100	0.9	28	0	978.7	NA	0.0000		9999	8600	0	0	0
2019/03/10 21:40:00	BASE	0.47	217	1.95	360	0.9	100	0.9	28	0	978.7	NA	0.0000		9999	8530	0	0	0
2019/03/10 21:41:00	BASE	0.80	248	1.75	1	0.9	100	0.9	27	0	978.7	NA	0.0000		9999	8560	0	0	0
2019/03/10 21:42:00	BASE	1.03	256	1.54	268	0.9	100	0.9	27	0	978.7	NA	0.0000		9999	8630	0	0	0
2019/03/10 21:43:00	BASE	1.06	254	1.54	268	0.9	100	0.9	26	0	978.7	NA	0.0000		9999	8630	0	0	0
2019/03/10 21:44:00	BASE	0.35	231	1.54	268	0.8	100	0.8	26	0	978.7	NA	0.0000		9999	8300	0	0	0
2019/03/10 21:45:00	BASE	0.00	195	1.54	268	0.9	100	0.9	26	0	978.7	NA	0.0000		9999	8560	0	0	0
2019/03/10 21:46:00	BASE	0.58	179	1.85	181	0.9	100	0.9	25	0	978.8	NA	0.0000		9999	850	8600	0	0
2019/03/10 21:47:00	BASE	1.37	167	1.85	137	0.9	100	0.9	25	0	978.8	NA	0.0000		9999	890	8560	0	0
2019/03/10 21:48:00	BASE	2.08	153	3.09	149	0.9	100	0.9	25	0	978.7	NA	0.0000		9999	980	8660	0	0
2019/03/10 21:49:00	BASE	2.78	149	3.29	131	1.0	100	1.0	25	0	978.7	NA	0.0000		9999	8600	0	0	0
2019/03/10 21:50:00	BASE	2.67	140	3.29	131	1.0	100	1.0	25	0	978.7	NA	0.0000		9999	8560	0	0	0
2019/03/10 21:51:00	BASE	2.06	132	3.29	131	1.0	100	1.0	25	0	978.7	NA	0.0000		9999	1020	8530	0	0
2019/03/10 21:52:00	BASE	1.56	128	3.29	131	1.0	100	1.0	25	0	978.7	NA	0.0000		9999	8530	0	0	0
2019/03/10 21:53:00	BASE	1.89	121	3.29	131	1.0	100	1.0	26	0	978.7	NA	0.0000		9999	7910	8500	0	0
2019/03/10 21:54:00	BASE	2.39	116	3.29	131	1.0	100	1.0	25	0	978.7	NA	0.0000		9999	7910	8560	0	0
2019/03/10 21:55:00	BASE	2.38	113	3.76	118	1.0	100	1.0	25	0	978.7	NA	0.0000		9999	7910	8530	0	0
2019/03/10 21:56:00	BASE	3.12	107	4.42	106	1.0	100	1.0	25	0	978.7	NA	0.0000		9999	7870	8530	0	0
2019/03/10 21:57:00	BASE	4.02	109	4.99	121	0.9	100	0.9	25	0	978.7	NA	0.0000		9999	7910	8600	0	0
2019/03/10 21:58:00	BASE	4.52	111	5.40	108	0.9	100	0.9	24	0	978.7	NA	0.0000		9999	7870	8690	0	0
2019/03/10 21:59:00	BASE	4.90	108	5.50	103	0.9	100	0.9	24	0	978.7	NA	0.0000		9999	7910	8530	0	0
2019/03/10 22:00:00	BASE	4.78	108	5.50	103	0.9	100	0.9	23	0	978.6	NA	0.0000		9999	7910	8560	0	0
2019/03/10 22:01:00	BASE	4.77	108	5.56	111	0.9	100	0.9	22	0	978.6	NA	0.0000		9999	7870	8370	0	0
2019/03/10 22:02:00	BASE	5.21	108	6.07	105	0.9	100	0.9	22	0	978.6	NA	0.0000		9999	7910	0	0	0
2019/03/10 22:03:00	BASE	5.86	106	6.53	103	0.9	100	0.9	21	0	978.6	NA	0.0000		9999	7840	0	0	0
2019/03/10 22:04:00	BASE	6.33	104	6.69	106	0.9	100	0.9	20	0	978.6	NA	0.0000		9999	8300	0	0	0
2019/03/10 22:05:00	BASE	6.33	106	6.69	103	0.8	100	0.8	19	0	978.6	NA	0.0000		9999	8240	0	0	0
2019/03/10 22:06:00	BASE	5.99	108	6.69	103	0.8	100	0.8	18	0	978.6	NA	0.0000		9999	8240	0	0	0
2019/03/10 22:07:00	BASE	5.77	109	6.69	103	0.8	100	0.8	17	0	978.6	NA	0.0000		9999	8200	0	0	0
2019/03/10 22:08:00	BASE	5.65	108	6.69	103	0.8	100	0.8	16	0	978.6	NA	0.0000		9999	8200	0	0	0
2019/03/10 22:09:00	BASE	5.56	107	6.69	103	0.8	100	0.8	16	0	978.6	NA	0.0000		9999	8460	0	0	0
2019/03/10 22:10:00	BASE	5.83	109	6.69	103	0.8	100	0.8	15	0	978.6	NA	0.0000		9999	7780	8400	0	0
2019/03/10 22:11:00	BASE	6.04	112	6.69	103	0.8	100	0.8	14	0	978.5	NA	0.0000		9999	7710	8500	0	0
2019/03/10 22:12:00	BASE	5.79	112	6.69	103	0.8	100	0.8	14	0	978.6	NA	0.0000		9999	7710	8530	0	0
2019/03/10 22:13:00	BASE	5.42	111	6.69	103	0.8	100	0.8	14	0	978.6	NA	0.0000		9999	7580	8560	0	0
2019/03/10 22:14:00	BASE	5.26	113	6.69	103	0.8	100	0.8	14	0	978.6	NA	0.0000		9999	7580	0	0	0
2019/03/10 22:15:00	BASE	5.04	115	6.43	108	0.8	100	0.8	13	0	978.6	NA	0.0000		9999	7580	0	0	0
2019/03/10 22:16:00	BASE	5.06	115	6.43	108	0.8	100	0.8	13	0	978.5	NA	0.0000		9999	7610	0	0	0
2019/03/10 22:17:00	BASE	5.14	114	6.43	108	0.8	100	0.8	13	0	978.5	NA	0.0000		9999	7610	0	0	0
2019/03/10 22:18:00	BASE	5.02	115	6.43	108	0.8	100	0.8	13	0	978.5	NA	0.0000		9999	7610	0	0	0
2019/03/10 22:19:00	BASE	4.95	117	6.43	108	0.8	100	0.8	12	0	978.5	NA	0.0000		9999	7580	0	0	0
2019/03/10 22:20:00	BASE	4.84	120	6.28	116	0.8	100	0.8	12	0	978.5	NA	0.0000		9999	7580	0	0	0
2019/03/10 22:21:00	BASE	4.69	125	6.02	109	0.8	100	0.8	11	0	978.5	NA	0.0000		9999	7610	0	0	0
2019/03/10 22:22:00	BASE	4.65	129	5.76	117	0.8	100	0.8	11	0	978.5	NA	0.0000		9999	7580	0	0	0
2019/03/10 22:23:00	BASE	4.98	133	5.76	117	0.7	100	0.7	10	0	978.5	NA	0.0000		9999	7610	0	0	0
2019/03/10 22:24:00	BASE	5.21	137	5.76	117	0.7	100	0.7	10	0	978.5	NA	0.0000		9999	7610	0	0	0
2019/03/10 22:25:00	BASE	5.02	141	5.76	117	0.7	100	0.7	10	0	978.5	NA	0.0000		9999	7610	0	0	0
2019/03/10 22:26:00	BASE	4.93	146	5.71	145	0.7	100	0.7	9	0	978.5	NA	0.0000		9999	7640	0	0	0
2019/03/10 22:27:00	BASE	5.13	149	5.71	154	0.7	100	0.7	9	0	978.5	NA	0.0000		9999	360	7710	0	0
2019/03/10 22:28:00	BASE	5.22	153	5.71	154	0.7	100	0.7	8	0	978.5	NA	0.0000		9999	390	7680	0	0
2019/03/10 22:29:00	BASE	4.71	154	5.71	154	0.7	100	0.7	8	0	978.5	NA	0.0000		9999	330	0	0	0
2019/03/10 22:30:00	BASE	4.46	153	5.71	154	0.7	100	0.7	7	0	978.5	NA	0.0000		9999	300	0	0	0
2019/03/10 22:31:00	BASE	4.30	157	5.71	154	0.8	100	0.8	7	0	978.5	NA	0.0000		9999	360	8140	0	0
2019/03/10 22:32:00	BASE	3.84	160	5.71	154	0.8	100	0.8	6	0	978.5	NA	0.0000		9999	390	7710	0	0
2019/03/10 22:33:00	BASE	3.80	157	5.71	154	0.8	100	0.8	6	0	978.5	NA	0.0000		9999	430	7740	0	0
2019/03/10 22:34:00	BASE	3.82	154	5.71	154	0.8	100	0.8	6	0	978.5	NA	0.0000		9999	490	7780	0	0
2019/03/10 22:35:00	BASE	3.72	154	5.71	154	0.8	100	0.8	6	0	978.5	NA	0.0000		9999	390	7870	0	0
2019/03/10 22:36:00	BASE	3.68	155	5.71	154	0.8	100	0.8	6	0	978.5	NA	0.0000		9999	460	7780	0	0
2019/03/10 22:37:00	BASE	3.53	164	5.50	159	0.8	100	0.8	5	0	978.5	NA	0.0000		9999	460	7810	0	0
2019/03/10 22:38:00	BASE	3.37	170	4.84	162	0.8	100	0.8	5	0	978.5	NA	0.0000		9999	430	0	0	0
2019/03/10 22:39:00	BASE	3.43	173	4.84	162	0.8	100	0.8	5	0	978.5	NA	0.0000		9999	390	0	0	0
2019/03/10 22:40:00	BASE	3.41	175	4.48	168	0.8	100	0.8	4	0	978.5	NA	0.0000		9000	300	7910	0	0
2019/03/10 22:41:00	BASE	3.23	176	4.37	160	0.8	100	0.8	4	0	978.5	NA	0.0000		9000	330	7910	0	0
2019/03/10 22:42:00	BASE	2.94	175	4.27	151	0.8	100	0.8	4	0	978.5	NA	0.0000		9999	360	7910	0	0
2019/03/10 22:43:00	BASE	2.72	175	4.12	180	0.8	100	0.8	4	0	978.5	NA	0.0000		9999	390	7840	0	0
2019/03/10 22:44:00	BASE	2.80	176	4.12	180	0.8	100	0.8	4	0	978.5	NA	0.0000		9999	390	7840	0	0
2019/03/10 22:45:00	BASE	2.92	177	4.12	180	0.8	100	0.8	4	0	978.5	NA	0.0000		9999	430	7910	0	0
2019/03/10 22:46:00	BASE	2.80	179	4.12	180	0.8	100	0.8	3	0	978.5	NA	0.0000		9999	430	0	0	0
2019/03/10 22:47:00	BASE	2.82	177	4.12	180	0.8	100	0.8	3	0	978.5	NA	0.0000		9999	430	7910	0	0
2019/03/10 22:48:00	BASE	2.97	172	4.12	180	0.7	100	0.7	3	0	978.5	NA	0.0000		9999	390	0	0	0
2019/03/10 22:49:00	BASE	2.87	169	4.12	180	0.7	100	0.7	3	0	978.5	NA	0.0000		9999	430	7870	0	0
2019/03/10 22:50:00	BASE	2.57	164	3.34	177	0.7	100	0.7	3	0	978.5	NA	0.0000		9999	490	7810	0	0
2019/03/10 22:51:00	BASE	2.18	158	3.29	161	0.7	100	0.7	3	0	978.5	NA	0.0000		9999	7780	0	0	0
2019/03/10 22:52:00	BASE	2.18	160	3.29	161	0.7	100	0.7	3	0	978.5	NA	0.0000		9999	7810	0	0	0
2019/03/10 22:53:00	BASE	2.39	164	3.29	161	0.7	100	0.7	3	0	978.5	NA	0.0000		9999	7810	0	0	0
2019/03/10 22:54:00	BASE	2.42	166	3.29	161	0.7	100	0.7	3	0	978.5	NA	0.0000		9999	7840	0	0	0
2019/03/10 22:55:00	BASE	2.61	169	3.29	161	0.7	100	0.7	2	0	978.5	NA	0.0000		9999	7840	0	0	0
2019/03/10 22:56:00	BASE	2.72	174	3.29	161	0.7	100	0.7	2	0	978.5	NA	0.0000		9999	7840	0	0	0
2019/03/10 22:57:00	BASE	2.79	174	3.29	178	0.7	100	0.7	2	0	978.5	NA	0.0000		9999	7810	0	0	0
2019/03/10 22:58:00	BASE	2.67	170	3.29	178	0.7	100	0.7	2	0	978.5	NA	0.0000		9999	7780	0	0	0
2019/03/10 22:59:00	BASE	2.44	166	3.29	178	0.7	100	0.7	2	0	978.5	NA	0.0000		9999	7840	0	0	0
2019/03/10 23:00:00	BASE	2.29	162	3.29	178	0.6	100	0.6	2	0	978.5	NA	0.0000		9999	7810	0	0	0
2019/03/10 23:01:00	BASE	1.90	157	3.29	178	0.7	100	0.7	2	0	978.5	NA	0.0000		9999	7810	0	0	0
2019/03/10 23:02:00	BASE	1.37	152	3.29	178	0.7	100	0.7	2	0	978.5	NA	0.0000		9999	7870	0	0	0
2019/03/10 23:03:00	BASE	1.28	146	3.29	178	0.7	100	0.7	2	0	978.5	NA	0.0000		9999	7910	0	0	0
2019/03/10 23:04:00	BASE	1.36	147	3.29	178	0.7	100	0.7	2	0	978.5	NA	0.0000		9999	7840	0	0	0
2019/03/10 23:05:00	BASE	1.31	155	3.29	178	0.7	100	0.7	2	0	978.5	NA	0.0000		9999	7810	0	0	0
2019/03/10 23:06:00	BASE	0.90	161	3.29	178	0.7	100	0.7	2	0	978.5	NA	0.0000		9999	7810	0	0	0
2019/03/10 23:07:00	BASE	0.60	160	2.78	169	0.7	100	0.7	2	0	978.5	NA	0.0000		9999	7810	0	0	0
2019/03/10 23:08:00	BASE	1.04	164	2.52	166	0.8	100	0.8	2	0	978.5	NA	0.0000		9999	7870	0	0	0
2019/03/10 23:09:00	BASE	1.63	174	2.47	162	0.8	100	0.8	2	0	978.5	NA	0.0000		9999	7870	0	0	0
2019/03/10 23:10:00	BASE	2.00	179	2.62	181	0.8	100	0.8	2	0	978.5	NA	0.0000		9999	8040	0	0	0
2019/03/10 23:11:00	BASE	2.81	176	3.86	169	0.8	100	0.8	2	0	978.5	NA	0.0000		9999	8040	0	0	0
2019/03/10 23:12:00	BASE	3.72	172	4.32	177	0.8	100	0.8	2	0	978.5	NA	0.0000		9999	8100	0	0	0
2019/03/10 23:13:00	BASE	3.68	168	4.53	165	0.7	100	0.7	1	0	978.5	NA	0.0000		9999	8140	0	0	0
2019/03/10 23:14:00	BASE	3.99	163	4.89	163	0.7	100	0.7	1	0	978.5	NA	0.0000		9999	8040	0	0	0
2019/03/10 23:15:00	BASE	4.11	155	4.89	163	0.7	100	0.7	1	0	978.5	NA	0.0000		9999	8070	0	0	0
2019/03/10 23:16:00	BASE	4.18	154	5.14	159	0.7	100	0.7	1	0	978.5	NA	0.0000		9999	7910	0	0	0
2019/03/10 23:17:00	BASE	4.63	157	5.25	160	0.7	100	0.7	1	0	978.5	NA	0.0000		9999	590	7940	0	0
2019/03/10 23:18:00	BASE	4.70	159	5.50	160	0.6	100	0.6	1	0	978.5	NA	0.0000		9999	490	7970	0	0
2019/03/10 23:19:00	BASE	4.56	160	5.50	160	0.6	100	0.6	1	0	978.5	NA	0.0000		9999	490	8010	0	0
2019/03/10 23:20:00	BASE	4.14	157	5.50	160	0.6	100	0.6	1	0	978.5	NA	0.0000		9999	490	8240	0	0
2019/03/10 23:21:00	BASE	3.68	158	5.50	160	0.6	100	0.6	1	0	978.5	NA	0.0000		9999	8170	0	0	0
2019/03/10 23:22:00	BASE	3.48	157	5.50	160	0.6	100	0.6	1	0	978.5	NA	0.0000		9999	8100	0	0	0
2019/03/10 23:23:00	BASE	3.69	154	5.50	160	0.6	100	0.6	1	0	978.4	NA	0.0000		9999	8200	0	0	0
2019/03/10 23:24:00	BASE	3.90	153	5.50	160	0.6	100	0.6	1	0	978.4	NA	0.0000		9999	8240	0	0	0
2019/03/10 23:25:00	BASE	3.92	154	5.50	160	0.6	100	0.6	1	0	978.4	NA	0.0000		9999	560	8200	0	0
2019/03/10 23:26:00	BASE	3.89	156	5.50	160	0.6	100	0.6	1	0	978.4	NA	0.0000		9999	8300	0	0	0
2019/03/10 23:27:00	BASE	3.89	155	5.50	160	0.6	100	0.6	0	0	978.4	NA	0.0000		9999	8330	0	0	0
2019/03/10 23:28:00	BASE	3.81	157	4.58	155	0.6	100	0.6	0	0	978.4	NA	0.0000		9999	520	8300	0	0
2019/03/10 23:29:00	BASE	3.64	158	4.53	156	0.6	100	0.6	0	0	978.4	NA	0.0000		9999	8270	0	0	0
2019/03/10 23:30:00	BASE	3.81	157	4.53	156	0.6	100	0.6	0	0	978.4	NA	0.0000		9999	490	8270	0	0
2019/03/10 23:31:00	BASE	3.98	157	4.68	155	0.6	100	0.6	0	0	978.4	NA	0.0000		9999	8300	0	0	0
2019/03/10 23:32:00	BASE	3.92	158	4.68	155	0.6	100	0.6	0	0	978.4	NA	0.0000		9999	8370	0	0	0
2019/03/10 23:33:00	BASE	3.94	161	4.68	155	0.6	100	0.6	0	0	978.4	NA	0.0000		9999	8430	0	0	0
2019/03/10 23:34:00	BASE	3.88	164	4.68	155	0.6	100	0.6	0	0	978.4	NA	0.0000		9999	8460	0	0	0
2019/03/10 23:35:00	BASE	3.83	165	4.89	171	0.6	100	0.6	0	0	978.4	NA	0.0000		9999	8400	0	0	0
2019/03/10 23:36:00	BASE	4.25	162	5.30	160	0.6	100	0.6	0	0	978.4	NA	0.0000		9999	8500	0	0	0
2019/03/10 23:37:00	BASE	4.61	160	5.30	158	0.6	100	0.6	0	0	978.4	NA	0.0000		9999	8400	0	0	0
2019/03/10 23:38:00	BASE	4.74	160	5.71	159	0.5	100	0.5	0	0	978.4	NA	0.0000		9999	8330	0	0	0
2019/03/10 23:39:00	BASE	5.19	166	6.17	173	0.5	100	0.5	0	0	978.3	NA	0.0000		9999	8330	0	0	0
2019/03/10 23:40:00	BASE	5.43	173	6.22	171	0.5	100	0.5	0	0	978.3	NA	0.0000		9999	8330	0	0	0
2019/03/10 23:41:00	BASE	5.08	172	6.22	171	0.5	100	0.5	0	0	978.3	NA	0.0000		9999	8400	0	0	0
2019/03/10 23:42:00	BASE	4.71	167	6.22	171	0.5	100	0.5	0	0	978.3	NA	0.0000		9999	8330	0	0	0
2019/03/10 23:43:00	BASE	4.40	164	6.22	171	0.5	100	0.5	0	0	978.3	NA	0.0000		9999	8370	0	0	0
2019/03/10 23:44:00	BASE	3.38	155	6.22	171	0.5	100	0.5	0	0	978.3	NA	0.0000		9999	8430	0	0	0
2019/03/10 23:45:00	BASE	2.89	151	6.22	171	0.5	100	0.5	0	0	978.3	NA	0.0000		9999	8500	0	0	0
2019/03/10 23:46:00	BASE	3.11	159	6.22	171	0.5	100	0.5	0	0	978.3	NA	0.0000		9999	8500	0	0	0
2019/03/10 23:47:00	BASE	2.78	158	6.22	171	0.5	100	0.5	0	0	978.3	NA	0.0000		9999	8460	0	0	0
2019/03/10 23:48:00	BASE	2.01	155	6.22	171	0.5	100	0.5	0	0	978.3	NA	0.0000		9999	8530	0	0	0
2019/03/10 23:49:00	BASE	1.57	154	6.22	171	0.5	100	0.5	0	0	978.3	NA	0.0000		9999	8500	0	0	0
2019/03/10 23:50:00	BASE	1.73	158	5.30	169	0.5	100	0.5	0	0	978.3	NA	0.0000		9999	590	8600	0	0
2019/03/10 23:51:00	BASE	2.17	166	4.94	173	0.5	100	0.5	0	0	978.3	NA	0.0000		9999	560	8600	0	0
2019/03/10 23:52:00	BASE	2.64	177	4.58	164	0.5	100	0.5	0	0	978.3	NA	0.0000		9999	8600	0	0	0
2019/03/10 23:53:00	BASE	3.32	178	4.32	175	0.5	100	0.5	0	0	978.3	NA	0.0000		9999	8630	0	0	0
2019/03/10 23:54:00	BASE	3.90	168	4.32	167	0.5	100	0.5	0	0	978.3	NA	0.0000		9999	8690	10200	0	0
2019/03/10 23:55:00	BASE	3.84	165	4.32	167	0.5	100	0.5	0	0	978.3	NA	0.0000		9999	8400	10240	0	0
2019/03/10 23:56:00	BASE	3.59	166	4.32	167	0.5	100	0.5	0	0	978.3	NA	0.0000		9999	8430	0	0	0
2019/03/10 23:57:00	BASE	3.35	165	4.32	167	0.5	100	0.5	0	0	978.3	NA	0.0000		9999	8270	8790	0	0
2019/03/10 23:58:00	BASE	3.05	162	4.32	167	0.5	100	0.5	0	0	978.3	NA	0.0000		9999	8240	0	0	0
2019/03/10 23:59:00	BASE	2.86	159	4.32	167	0.5	100	0.5	0	0	978.3	NA	0.0000		9999	8240	0	0	0